[[{"header":{"parameterUnit":"m.s-1","parameterCategory":1,"la1":31.0,"la2":29.5877,"lo1":-88.7671,"lo2":-86.6584,"dy":0.0162,"dx":0.0185,"nx":115,"ny":88,"refTime":"2023-05-02T00:00:00:Z","depth":0,"parameterNumber":2,"parameterNumberName":"U-component_of_WINDS"},"data":[0.0,0.0,0.0,0.0,0.0,0.0,0.0,0.0,0.0,0.0,0.0,0.0,0.0,0.0,0.0,0.0,0.0,0.0,0.0,0.0,0.0,0.0,0.0,0.0,0.0,0.0,0.0,0.0,0.0,0.0,0.0,0.0,0.0,0.0,0.0,0.0,0.0,0.0,0.0,0.0,0.0,0.0,0.0,0.0,0.0,0.0,0.0,0.0,0.0,0.0,0.0,0.0,0.0,0.0,0.0,0.0,0.0,0.0,0.0,0.0,0.0,0.0,0.0,0.0,0.0,0.0,0.0,0.0,0.0,0.0,0.0,0.0,0.0,0.0,0.0,0.0,0.0,0.0,0.0,0.0,0.0,0.0,0.0,0.0,0.0,0.0,0.0,0.0,0.0,0.0,0.0,0.0,0.0,0.0,0.0,0.0,0.0,0.0,0.0,0.0,0.0,0.0,0.0,0.0,0.0,0.0,0.0,0.0,0.0,0.0,0.0,0.0,0.0,0.0,0.0,0.0,0.0,0.0,0.0,0.0,0.0,0.0,0.0,0.0,0.0,0.0,0.0,0.0,0.0,0.0,0.0,0.0,0.0,0.0,0.0,0.0,0.0,0.0,0.0,0.0,0.0,0.0,0.0,0.0,0.0,0.0,0.0,0.0,0.0,0.0,0.0,0.0,0.0,0.0,0.0,0.0,0.0,0.0,0.0,0.0,0.0,0.0,0.0,0.0,0.0,0.0,0.0,0.0,0.0,0.0,0.0,0.0,0.0,0.0,0.0,0.0,0.0,0.0,0.0,0.0,0.0,0.0,0.0,0.0,0.0,0.0,0.0,0.0,0.0,0.0,0.0,0.0,0.0,0.0,0.0,0.0,0.0,0.0,0.0,0.0,0.0,0.0,0.0,0.0,0.0,0.0,0.0,0.0,0.0,0.0,0.0,0.0,0.0,0.0,0.0,0.0,0.0,0.0,0.0,0.0,0.0,0.0,0.0,0.0,0.0,0.0,0.0,0.0,0.0,0.0,0.0,0.0,0.0,0.0,0.0,0.0,0.0,0.0,0.0,0.0,0.0,0.0,0.0,0.0,0.0,0.0,0.0,0.0,0.0,0.0,0.0,0.0,0.0,0.0,0.0,0.0,0.0,0.0,0.0,0.0,0.0,0.0,0.0,0.0,0.0,0.0,0.0,0.0,0.0,0.0,0.0,0.0,0.0,0.0,0.0,0.0,0.0,0.0,0.0,0.0,0.0,0.0,0.0,0.0,0.0,0.0,0.0,0.0,0.0,0.0,0.0,0.0,0.0,0.0,0.0,0.0,0.0,0.0,0.0,0.0,0.0,0.0,0.0,0.0,0.0,0.0,0.0,0.0,0.0,0.0,0.0,0.0,0.0,0.0,0.0,0.0,0.0,0.0,0.0,0.0,0.0,0.0,0.0,0.0,0.0,0.0,0.0,0.0,0.0,0.0,0.0,0.0,0.0,0.0,0.0,0.0,0.0,0.0,0.0,0.0,0.0,0.0,0.0,0.0,0.0,0.0,0.0,0.0,0.0,0.0,0.0,0.0,0.0,0.0,0.0,0.0,0.0,0.0,0.0,0.0,0.0,0.0,0.0,0.0,0.0,0.0,0.0,0.0,0.0,0.0,0.0,0.0,0.0,0.0,0.0,0.0,0.0,0.0,0.0,0.0,0.0,0.0,0.0,0.0,0.0,0.0,0.0,0.0,0.0,0.0,0.0,0.0,0.0,0.0,0.0,0.0,0.0,0.0,0.0,0.0,0.0,0.0,0.0,0.0,0.0,0.0,0.0,0.0,0.0,0.0,0.0,0.0,0.0,0.0,0.0,0.0,0.0,0.0,0.0,0.0,0.0,0.0,0.0,0.0,0.0,0.0,0.0,0.0,0.0,0.0,0.0,0.0,0.0,0.0,0.0,0.0,0.0,0.0,0.0,0.0,0.0,0.0,0.0,0.0,0.0,0.0,0.0,0.0,0.0,0.0,0.0,0.0,0.0,0.0,0.0,0.0,0.0,0.0,0.0,0.0,0.0,0.0,0.0,0.0,0.0,0.0,0.0,0.0,0.0,0.0,0.0,0.0,0.0,0.0,0.0,0.0,0.0,0.0,0.0,0.0,0.0,0.0,0.0,0.0,0.0,0.0,0.0,0.0,0.0,0.0,0.0,0.0,0.0,0.0,0.0,0.0,0.0,0.0,0.0,0.0,0.0,0.0,0.0,0.0,0.0,0.0,0.0,0.0,0.0,0.0,0.0,0.0,0.0,0.0,0.0,0.0,0.0,0.0,0.0,0.0,0.0,0.0,0.0,0.0,0.0,0.0,0.0,0.0,0.0,0.0,0.0,0.0,0.0,0.0,0.0,0.0,0.0,0.0,0.0,0.0,0.0,0.0,0.0,0.0,0.0,0.0,0.0,0.0,0.0,0.0,0.0,0.0,0.0,0.0,0.0,0.0,0.0,0.0,0.0,0.0,0.0,0.0,0.0,0.0,0.0,0.0,0.0,0.0,0.0,0.0,0.0,0.0,0.0,0.0,0.0,0.0,0.0,0.0,0.0,0.0,0.0,0.0,0.0,0.0,0.0,0.0,0.0,0.0,0.0,0.0,0.0,0.0,0.0,0.0,0.0,0.0,0.0,0.0,0.0,0.0,0.0,0.0,0.0,0.0,0.0,0.0,0.0,0.0,0.0,0.0,0.0,0.0,0.0,0.0,0.0,0.0,0.0,0.0,0.0,0.0,0.0,0.0,0.0,0.0,0.0,0.0,0.0,0.0,0.0,0.0,0.0,0.0,0.0,0.0,0.0,0.0,0.0,0.0,0.0,0.0,0.0,0.0,0.0,0.0,0.0,0.0,0.0,0.0,0.0,0.0,0.0,0.0,0.0,0.0,0.0,0.0,0.0,0.0,0.0,0.0,0.0,0.0,0.0,0.0,0.0,0.0,0.0,0.0,0.0,0.0,0.0,0.0,0.0,0.0,0.0,0.0,0.0,0.0,0.0,0.0,0.0,0.0,0.0,0.0,0.0,0.0,0.0,0.0,0.0,0.0,0.0,0.0,0.0,0.0,0.0,0.0,0.0,0.0,0.0,0.0,0.0,0.0,0.0,0.0,0.0,0.0,0.0,0.0,0.0,0.0,0.0,0.0,0.0,0.0,0.0,0.0,0.0,0.0,0.0,0.0,0.0,0.0,0.0,0.0,0.0,0.0,0.0,0.0,0.0,0.0,0.0,0.0,0.0,0.0,0.0,0.0,0.0,0.0,0.0,0.0,0.0,0.0,0.0,0.0,0.0,0.0,0.0,0.0,0.0,0.0,0.0,0.0,0.0,0.0,0.0,0.0,0.0,0.0,0.0,0.0,0.0,0.0,0.0,0.0,0.0,0.0,0.0,0.0,0.0,0.0,0.0,0.0,0.0,0.0,0.0,0.0,0.0,0.0,0.0,0.0,0.0,0.0,0.0,0.0,0.0,0.0,0.0,0.0,0.0,0.0,0.0,0.0,0.0,0.0,0.0,0.0,0.0,0.0,0.0,0.0,0.0,0.0,0.0,0.0,0.0,0.0,0.0,0.0,0.0,0.0,0.0,0.0,0.0,0.0,0.0,0.0,0.0,0.0,0.0,0.0,0.0,0.0,0.0,0.0,0.0,0.0,0.0,0.0,0.0,0.0,0.0,0.0,0.0,0.0,0.0,0.0,0.0,0.0,0.0,0.0,0.0,0.0,0.0,0.0,0.0,0.0,0.0,0.0,0.0,0.0,0.0,0.0,0.0,0.0,0.0,0.0,0.0,0.0,0.0,0.0,0.0,0.0,0.0,0.0,0.0,0.0,0.0,0.0,0.0,0.0,0.0,0.0,0.0,0.0,0.0,0.0,0.0,0.0,0.0,0.0,0.0,0.0,0.0,0.0,0.0,0.0,0.0,0.0,0.0,0.0,0.0,0.0,0.0,0.0,0.0,0.0,0.0,0.0,0.0,0.0,0.0,0.0,0.0,0.0,0.0,0.0,0.0,0.0,0.0,0.0,0.0,0.0,0.0,0.0,0.0,0.0,0.0,0.0,0.0,0.0,0.0,0.0,0.0,0.0,0.0,0.0,0.0,0.0,0.0,0.0,0.0,0.0,0.0,0.0,0.0,0.0,0.0,0.0,0.0,0.0,0.0,0.0,0.0,0.0,0.0,0.0,0.0,0.0,0.0,0.0,0.0,0.0,0.0,0.0,0.0,0.0,0.0,0.0,0.0,0.0,0.0,0.0,0.0,0.0,0.0,0.0,2.4207,0.0,0.0,0.0,0.0,0.0,0.0,0.0,0.0,0.0,0.0,0.0,0.0,0.0,0.0,0.0,0.0,0.0,0.0,0.0,0.0,0.0,0.0,0.0,0.0,0.0,0.0,0.0,0.0,0.0,0.0,0.0,0.0,0.0,0.0,0.0,0.0,0.0,0.0,0.0,0.0,0.0,0.0,0.0,0.0,0.0,0.0,0.0,0.0,0.0,0.0,0.0,0.0,0.0,0.0,0.0,0.0,0.0,0.0,0.0,0.0,0.0,0.0,0.0,0.0,0.0,0.0,0.0,0.0,0.0,0.0,0.0,0.0,0.0,0.0,0.0,0.0,0.0,0.0,0.0,0.0,0.0,0.0,0.0,0.0,0.0,0.0,0.0,0.0,0.0,0.0,0.0,0.0,0.0,0.0,0.0,0.0,0.0,0.0,0.0,0.0,0.0,0.0,0.0,0.0,0.0,0.0,0.0,0.0,0.0,0.0,2.4103,2.3935,2.3935,2.4003,2.4169,0.0,0.0,0.0,0.0,0.0,0.0,0.0,0.0,0.0,0.0,0.0,0.0,0.0,0.0,0.0,0.0,0.0,0.0,0.0,0.0,0.0,0.0,0.0,0.0,0.0,0.0,0.0,0.0,0.0,0.0,0.0,0.0,0.0,0.0,0.0,0.0,0.0,0.0,0.0,0.0,0.0,0.0,0.0,0.0,0.0,0.0,0.0,0.0,0.0,0.0,0.0,0.0,0.0,0.0,0.0,0.0,0.0,0.0,0.0,0.0,0.0,0.0,0.0,0.0,0.0,0.0,0.0,0.0,0.0,0.0,0.0,0.0,0.0,0.0,0.0,0.0,0.0,0.0,0.0,0.0,0.0,0.0,0.0,0.0,0.0,0.0,0.0,0.0,0.0,0.0,0.0,0.0,0.0,0.0,0.0,0.0,0.0,0.0,0.0,0.0,0.0,0.0,0.0,0.0,0.0,0.0,0.0,0.0,0.0,0.0,0.0,0.0,2.4487,2.4391,2.4408,0.0,0.0,0.0,0.0,0.0,0.0,0.0,0.0,0.0,0.0,0.0,0.0,0.0,0.0,0.0,0.0,0.0,0.0,0.0,0.0,0.0,0.0,0.0,0.0,0.0,0.0,0.0,0.0,0.0,0.0,0.0,0.0,0.0,0.0,0.0,0.0,0.0,0.0,0.0,0.0,0.0,0.0,0.0,0.0,0.0,0.0,0.0,0.0,0.0,0.0,0.0,0.0,0.0,0.0,0.0,0.0,0.0,0.0,0.0,0.0,0.0,0.0,0.0,0.0,0.0,0.0,0.0,0.0,0.0,0.0,0.0,0.0,0.0,0.0,0.0,0.0,0.0,0.0,0.0,0.0,0.0,0.0,0.0,0.0,0.0,0.0,0.0,0.0,0.0,0.0,0.0,0.0,0.0,0.0,0.0,0.0,0.0,0.0,0.0,0.0,0.0,0.0,0.0,0.0,0.0,0.0,0.0,0.0,0.0,0.0,2.464,2.7947,2.6925,0.0,2.5162,0.0,0.0,0.0,0.0,0.0,0.0,0.0,0.0,0.0,0.0,0.0,0.0,0.0,0.0,0.0,0.0,0.0,0.0,0.0,0.0,0.0,0.0,0.0,0.0,0.0,0.0,0.0,0.0,0.0,0.0,0.0,0.0,0.0,0.0,0.0,0.0,0.0,0.0,0.0,0.0,0.0,0.0,0.0,0.0,0.0,0.0,0.0,0.0,0.0,0.0,0.0,0.0,0.0,0.0,0.0,0.0,0.0,0.0,0.0,0.0,0.0,0.0,0.0,0.0,0.0,0.0,0.0,0.0,0.0,0.0,0.0,0.0,0.0,0.0,0.0,0.0,0.0,0.0,0.0,0.0,0.0,0.0,0.0,0.0,0.0,0.0,0.0,0.0,0.0,0.0,0.0,0.0,0.0,0.0,0.0,0.0,0.0,0.0,0.0,0.0,0.0,0.0,0.0,0.0,0.0,0.0,0.0,0.0,0.0,0.0,2.4849,2.7344,2.8147,2.6743,0.0,0.0,0.0,0.0,0.0,0.0,0.0,0.0,0.0,0.0,0.0,0.0,0.0,0.0,0.0,0.0,0.0,0.0,0.0,0.0,0.0,0.0,0.0,0.0,0.0,0.0,0.0,0.0,0.0,0.0,0.0,0.0,0.0,0.0,0.0,0.0,0.0,0.0,0.0,0.0,0.0,0.0,0.0,0.0,0.0,0.0,0.0,0.0,0.0,0.0,0.0,0.0,0.0,0.0,0.0,0.0,0.0,0.0,0.0,0.0,0.0,0.0,0.0,0.0,0.0,0.0,0.0,0.0,0.0,0.0,0.0,0.0,0.0,0.0,0.0,0.0,0.0,0.0,0.0,0.0,0.0,0.0,0.0,0.0,0.0,0.0,0.0,0.0,0.0,0.0,0.0,0.0,0.0,0.0,0.0,0.0,0.0,0.0,0.0,0.0,0.0,0.0,0.0,0.0,0.0,0.0,0.0,0.0,0.0,0.0,2.4599,2.5338,2.6883,2.7483,2.5881,2.1883,0.0,0.0,0.0,0.0,0.0,0.0,0.0,0.0,0.0,0.0,0.0,0.0,0.0,0.0,0.0,0.0,0.0,0.0,0.0,0.0,0.0,0.0,0.0,0.0,0.0,0.0,0.0,0.0,0.0,0.0,0.0,0.0,0.0,0.0,0.0,0.0,0.0,0.0,0.0,0.0,0.0,0.0,0.0,0.0,0.0,0.0,0.0,0.0,0.0,0.0,0.0,0.0,0.0,0.0,0.0,0.0,0.0,0.0,0.0,0.0,0.0,0.0,0.0,0.0,0.0,0.0,0.0,0.0,0.0,0.0,0.0,0.0,0.0,0.0,0.0,0.0,0.0,0.0,0.0,0.0,0.0,0.0,0.0,0.0,0.0,0.0,0.0,0.0,0.0,0.0,0.0,0.0,0.0,0.0,0.0,0.0,0.0,0.0,0.0,0.0,0.0,0.0,0.0,0.0,0.0,0.0,0.0,0.0,2.7018,2.6065,2.6262,2.7572,2.4479,2.2927,0.0,0.0,0.0,0.0,0.0,0.0,0.0,0.0,0.0,0.0,0.0,0.0,0.0,0.0,0.0,0.0,0.0,0.0,0.0,0.0,0.0,0.0,0.0,0.0,0.0,0.0,0.0,0.0,0.0,0.0,0.0,0.0,0.0,0.0,0.0,0.0,0.0,0.0,0.0,0.0,0.0,0.0,0.0,0.0,0.0,0.0,0.0,0.0,0.0,0.0,0.0,0.0,0.0,0.0,0.0,0.0,0.0,0.0,0.0,0.0,0.0,0.0,0.0,0.0,0.0,0.0,0.0,0.0,0.0,0.0,0.0,0.0,0.0,0.0,0.0,0.0,0.0,0.0,0.0,0.0,0.0,0.0,0.0,0.0,0.0,0.0,0.0,0.0,0.0,0.0,0.0,0.0,0.0,0.0,0.0,0.0,0.0,0.0,0.0,0.0,0.0,0.0,0.0,0.0,0.0,0.0,0.0,0.0,0.0,2.4699,2.4919,2.4529,2.3558,2.4948,2.4193,0.0,0.0,0.0,0.0,0.0,0.0,0.0,0.0,0.0,0.0,0.0,0.0,0.0,0.0,0.0,0.0,0.0,0.0,0.0,0.0,0.0,0.0,0.0,0.0,0.0,0.0,0.0,0.0,0.0,0.0,0.0,0.0,0.0,0.0,0.0,0.0,0.0,0.0,0.0,0.0,0.0,0.0,0.0,0.0,0.0,0.0,0.0,0.0,0.0,0.0,0.0,0.0,0.0,0.0,0.0,0.0,0.0,0.0,0.0,0.0,0.0,0.0,0.0,0.0,0.0,0.0,0.0,0.0,0.0,0.0,0.0,0.0,0.0,0.0,0.0,0.0,0.0,0.0,0.0,0.0,0.0,0.0,0.0,0.0,0.0,0.0,0.0,0.0,0.0,0.0,0.0,0.0,0.0,0.0,0.0,0.0,0.0,0.0,0.0,0.0,0.0,0.0,0.0,0.0,0.0,0.0,0.0,0.0,0.0,2.3781,0.0,2.3576,2.0779,2.3584,2.2861,0.0,0.0,0.0,0.0,0.0,0.0,0.0,0.0,0.0,0.0,0.0,0.0,0.0,0.0,0.0,0.0,0.0,0.0,0.0,0.0,0.0,0.0,0.0,0.0,0.0,0.0,0.0,0.0,0.0,0.0,0.0,0.0,0.0,0.0,0.0,0.0,0.0,0.0,0.0,0.0,0.0,0.0,0.0,0.0,0.0,0.0,0.0,0.0,0.0,0.0,0.0,0.0,0.0,0.0,0.0,0.0,0.0,0.0,0.0,0.0,0.0,0.0,0.0,0.0,0.0,0.0,0.0,0.0,0.0,0.0,0.0,0.0,0.0,0.0,0.0,0.0,0.0,0.0,0.0,0.0,0.0,0.0,0.0,0.0,0.0,0.0,0.0,0.0,0.0,0.0,0.0,0.0,0.0,0.0,0.0,0.0,0.0,0.0,0.0,0.0,0.0,0.0,0.0,0.0,0.0,0.0,0.0,0.0,2.3081,2.4801,2.5264,2.3427,1.9597,1.9871,1.8397,0.0,0.0,0.0,0.0,0.0,0.0,0.0,0.0,0.0,0.0,0.0,0.0,0.0,0.0,0.0,0.0,0.0,0.0,0.0,0.0,0.0,0.0,0.0,0.0,0.0,0.0,0.0,0.0,0.0,0.0,0.0,0.0,0.0,0.0,0.0,0.0,0.0,0.0,0.0,0.0,0.0,0.0,0.0,0.0,0.0,0.0,0.0,0.0,0.0,0.0,0.0,0.0,0.0,0.0,0.0,0.0,0.0,0.0,0.0,0.0,0.0,0.0,0.0,0.0,0.0,0.0,0.0,0.0,0.0,0.0,0.0,0.0,0.0,0.0,0.0,0.0,0.0,0.0,0.0,0.0,0.0,0.0,0.0,0.0,0.0,0.0,0.0,0.0,0.0,0.0,0.0,0.0,0.0,0.0,0.0,0.0,0.0,0.0,0.0,0.0,0.0,0.0,0.0,0.0,0.0,0.0,0.0,0.0,0.0,2.1046,2.186,1.956,1.4218,1.6297,1.5393,0.0,0.0,0.0,0.0,0.0,0.0,0.0,0.0,0.0,0.0,0.0,0.0,0.0,0.0,0.0,0.0,0.0,0.0,0.0,0.0,0.0,0.0,0.0,0.0,0.0,0.0,0.0,0.0,0.0,0.0,0.0,0.0,0.0,0.0,0.0,0.0,0.0,0.0,0.0,0.0,0.0,0.0,0.0,0.0,0.0,0.0,0.0,0.0,0.0,0.0,0.0,0.0,0.0,0.0,0.0,0.0,0.0,0.0,0.0,0.0,0.0,0.0,0.0,0.0,0.0,0.0,0.0,0.0,0.0,0.0,0.0,0.0,0.0,0.0,0.0,0.0,0.0,0.0,0.0,0.0,0.0,0.0,0.0,0.0,0.0,0.0,0.0,0.0,0.0,0.0,0.0,0.0,0.0,0.0,0.0,0.0,0.0,0.0,0.0,0.0,0.0,0.0,0.0,0.0,0.0,0.0,0.0,0.0,0.0,1.7375,1.976,1.7371,0.9783,1.5633,1.4991,0.6754,0.0,0.0,0.0,0.0,0.0,0.0,0.0,0.0,0.0,0.0,0.0,0.0,0.0,0.0,0.0,0.0,0.0,0.0,0.0,0.0,0.0,0.0,0.0,0.0,0.0,0.0,0.0,0.0,0.0,0.0,0.0,0.0,0.0,0.0,0.0,0.0,0.0,0.0,0.0,0.0,0.0,0.0,0.0,0.0,0.0,0.0,0.0,0.0,0.0,0.0,0.0,0.0,0.0,0.0,0.0,0.0,0.0,0.0,0.0,0.0,0.0,0.0,0.0,0.0,0.0,0.0,0.0,0.0,0.0,0.0,0.0,0.0,0.0,0.0,0.0,0.0,0.0,0.0,0.0,0.0,0.0,0.0,0.0,0.0,0.0,0.0,0.0,0.0,0.0,0.0,0.0,0.0,0.0,0.0,0.0,0.0,0.0,0.0,0.0,0.0,0.0,0.0,0.0,0.0,0.0,0.0,0.0,0.0,1.3769,1.8356,1.6112,0.6916,1.6002,1.5302,0.0,0.0,0.0,0.0,0.0,0.0,0.0,0.0,0.0,0.0,0.0,0.0,0.0,0.0,0.0,0.0,0.0,0.0,0.0,0.0,0.0,0.0,0.0,0.0,0.0,0.0,0.0,0.0,0.0,0.0,0.0,0.0,0.0,0.0,0.0,0.0,0.0,0.0,0.0,0.0,0.0,0.0,0.0,0.0,0.0,0.0,0.0,0.0,0.0,0.0,0.0,0.0,0.0,0.0,0.0,0.0,0.0,0.0,0.0,0.0,0.0,0.0,0.0,0.0,0.0,0.0,0.0,0.0,0.0,0.0,0.0,0.0,0.0,0.0,0.0,0.0,0.0,0.0,0.0,0.0,0.0,0.0,0.0,0.0,0.0,0.0,0.0,0.0,0.0,0.0,0.0,0.0,0.0,0.0,0.0,0.0,0.0,0.0,0.0,0.0,0.0,0.0,0.0,0.0,0.0,0.0,0.0,0.0,0.0,1.0748,1.0372,0.7931,0.3602,0.3035,0.0615,0.0,0.0,0.0,0.0,0.0,0.0,0.0,0.0,0.0,0.0,0.0,0.0,0.0,0.0,0.0,0.0,0.0,0.0,0.0,0.0,0.0,0.0,0.0,0.0,0.0,0.0,0.0,0.0,0.0,0.0,0.0,0.0,0.0,0.0,0.0,0.0,0.0,0.0,0.0,0.0,0.0,0.0,0.0,0.0,0.0,0.0,0.0,0.0,0.0,0.0,0.0,0.0,0.0,0.0,0.0,0.0,0.0,0.0,0.0,0.0,0.0,0.0,0.0,0.0,0.0,0.0,0.0,0.0,0.0,0.0,0.0,0.0,0.0,0.0,0.0,0.0,0.0,0.0,0.0,0.0,0.0,0.0,0.0,0.0,0.0,0.0,0.0,0.0,0.0,0.0,0.0,0.0,0.0,0.0,0.0,0.0,0.0,0.0,0.0,0.0,0.0,0.0,0.0,0.0,0.0,0.0,0.0,0.0,0.9038,0.7584,0.5762,0.3187,-0.0088,-0.348,-0.5377,0.0,0.0,0.0,0.0,0.0,0.0,0.0,0.0,0.0,0.0,0.0,0.0,0.0,0.0,0.0,0.0,0.0,0.0,0.0,0.0,0.0,0.0,0.0,0.0,0.0,0.0,0.0,0.0,0.0,0.0,0.0,0.0,0.0,0.0,0.0,0.0,0.0,0.0,0.0,0.0,0.0,0.0,0.0,0.0,0.0,0.0,0.0,0.0,0.0,0.0,0.0,0.0,0.0,0.0,0.0,0.0,0.0,0.0,0.0,0.0,0.0,0.0,0.0,0.0,0.0,0.0,0.0,0.0,0.0,0.0,0.0,0.0,0.0,0.0,0.0,0.0,0.0,0.0,0.0,0.0,0.0,0.0,0.0,0.0,0.0,0.0,0.0,0.0,0.0,0.0,0.0,0.0,0.0,0.0,0.0,0.0,0.0,0.0,0.0,0.0,0.0,0.0,0.0,0.0,0.0,0.0,0.0,0.0,0.7171,0.4426,0.3118,0.0384,-0.3875,-0.5523,-0.5887,0.0,0.0,0.0,0.0,0.0,0.0,0.0,0.0,0.0,0.0,0.0,0.0,0.0,0.0,0.0,0.0,0.0,0.0,0.0,0.0,0.0,0.0,0.0,0.0,0.0,0.0,0.0,0.0,0.0,0.0,0.0,0.0,0.0,0.0,0.0,0.0,0.0,0.0,0.0,0.0,0.0,0.0,0.0,0.0,0.0,0.0,0.0,0.0,0.0,0.0,0.0,0.0,0.0,0.0,0.0,0.0,0.0,0.0,0.0,0.0,0.0,0.0,0.0,0.0,0.0,0.0,0.0,0.0,0.0,0.0,0.0,0.0,0.0,0.0,0.0,0.0,0.0,0.0,0.0,0.0,0.0,0.0,0.0,0.0,0.0,0.0,0.0,0.0,0.0,0.0,0.0,0.0,0.0,0.0,0.0,0.0,0.0,0.0,0.0,0.0,0.0,0.0,0.0,0.0,0.0,0.0,0.0,0.0,0.5029,0.144,-0.047,-0.3143,-0.6705,-0.6927,-0.6791,0.0,0.0,0.0,0.0,0.0,0.0,0.0,0.0,0.0,0.0,0.0,0.0,0.0,0.0,0.0,0.0,0.0,0.0,0.0,0.0,0.0,0.0,0.0,0.0,0.0,0.0,0.0,0.0,0.0,0.0,0.0,0.0,0.0,0.0,0.0,0.0,0.0,0.0,0.0,0.0,0.0,0.0,0.0,0.0,0.0,0.0,0.0,0.0,1.8999,0.0,0.0,0.0,0.0,0.0,0.0,0.0,0.0,0.0,0.0,0.0,0.0,0.0,0.0,0.0,0.0,0.0,0.0,0.0,0.0,0.0,0.0,0.0,0.0,0.0,0.0,0.0,0.0,0.0,0.0,0.0,0.0,0.0,0.0,0.0,0.0,0.0,0.0,0.0,0.0,0.0,0.0,0.0,0.0,0.0,0.0,0.0,0.0,0.0,0.0,0.0,0.0,0.0,0.0,0.0,0.0,0.0,0.0,0.0,0.1379,-0.267,-0.4415,-0.6358,-0.8578,-0.776,-0.7034,0.0,0.0,0.0,0.0,0.0,0.0,0.0,0.0,0.0,0.0,0.0,0.0,0.0,0.0,0.0,0.0,0.0,0.0,0.0,0.0,0.0,0.0,0.0,0.0,0.0,0.0,0.0,0.0,0.0,0.0,0.0,0.0,0.0,0.0,0.0,0.0,0.0,0.0,0.0,0.0,0.0,0.0,0.0,0.0,0.0,0.0,0.0,0.0,0.0,0.0,0.0,0.0,0.0,0.0,0.0,0.0,0.0,0.0,0.0,0.0,0.0,0.0,0.0,0.0,0.0,0.0,0.0,0.0,0.0,0.0,0.0,0.0,0.0,0.0,0.0,0.0,0.0,0.0,0.0,0.0,0.0,0.0,0.0,0.0,0.0,0.0,0.0,0.0,0.0,0.0,0.0,0.0,0.0,0.0,0.0,0.0,0.0,0.0,0.0,0.0,0.0,0.0,0.0,0.0,0.0,0.0,0.0,0.0383,-0.3181,-0.7105,-0.8122,-0.8981,-0.9653,-0.8148,-0.7091,-0.6442,0.0,0.0,0.0,0.0,0.0,0.0,0.0,0.0,0.0,0.0,0.0,0.0,0.0,0.0,0.0,0.0,0.0,0.0,0.0,0.0,0.0,0.0,0.0,0.0,0.0,0.0,0.0,0.0,0.0,0.0,0.0,0.0,0.0,0.0,0.0,0.0,0.0,0.0,2.3021,2.2198,0.0,0.0,0.0,0.0,0.0,0.0,0.0,0.0,1.8226,0.0,0.0,0.0,0.0,0.0,0.0,0.0,0.0,0.0,0.0,0.0,0.0,0.0,0.0,0.0,0.0,0.0,0.0,0.0,0.0,0.0,0.0,0.0,0.0,0.0,0.0,0.0,0.0,0.0,0.0,0.0,0.0,0.0,0.0,0.0,0.0,0.0,0.0,0.0,0.0,0.0,0.0,0.0,0.0,0.0,0.0,0.0,0.0,0.0,0.0,0.0,0.0,0.0,0.0,0.0,0.0,0.5651,-0.2499,-0.8082,-1.0913,-1.1182,-1.0266,-0.8225,-0.7549,-0.7115,-0.6915,0.0,0.0,0.0,0.0,0.0,0.0,0.0,0.0,0.0,0.0,0.0,0.0,0.0,0.0,0.0,0.0,0.0,0.0,0.0,0.0,0.0,0.0,0.0,0.0,0.0,0.0,0.0,0.0,0.0,0.0,0.0,0.0,0.0,0.0,0.0,0.0,0.0,0.0,0.0,2.1888,2.168,0.0,0.0,0.0,0.0,0.0,0.0,0.0,0.0,1.6442,0.0,0.0,0.0,0.0,0.0,0.0,0.0,0.0,0.0,0.0,0.0,0.0,0.0,0.0,0.0,0.0,0.0,0.0,0.0,0.0,0.0,0.0,0.0,0.0,0.0,0.0,0.0,0.0,0.0,0.0,0.0,0.0,0.0,0.0,0.0,0.0,0.0,0.0,0.0,0.0,0.0,0.0,0.0,0.0,0.0,0.0,0.0,0.0,0.0,0.0,0.0,0.0,0.0,0.0,0.0,-0.0075,-0.4908,-0.9196,-1.2472,-1.1879,-1.0934,-0.988,-0.846,-0.7535,0.0,0.0,0.0,0.0,0.0,0.0,0.0,0.0,0.0,0.0,0.0,0.0,0.0,0.0,0.0,0.0,0.0,0.0,0.0,0.0,0.0,0.0,0.0,0.0,0.0,0.0,0.0,0.0,0.0,0.0,0.0,0.0,0.0,0.0,0.0,0.0,0.0,0.0,0.0,0.0,2.1402,2.1082,2.0065,0.0,0.0,0.0,0.0,0.0,0.0,1.5896,1.4959,0.0,0.0,0.0,0.0,0.0,0.0,0.0,0.0,0.0,0.0,0.0,0.0,0.0,0.0,0.0,0.0,0.0,0.0,0.0,0.0,0.0,0.0,0.0,0.0,0.0,0.0,0.0,0.0,0.0,0.0,0.0,0.0,0.0,0.0,0.0,0.0,0.0,0.0,0.0,0.0,0.0,0.0,0.0,0.0,0.0,0.0,0.0,0.0,0.0,0.0,0.0,0.0,0.0,0.0,0.0,-0.6033,-0.7681,-0.9995,-1.2894,-1.2307,-1.172,-1.1384,-0.9503,-0.7932,0.0,0.0,0.0,0.0,0.0,0.0,0.0,0.0,0.0,0.0,0.0,0.0,0.0,0.0,0.0,0.0,0.0,0.0,0.0,0.0,0.0,0.0,0.0,0.0,0.0,0.0,0.0,0.0,0.0,0.0,0.0,0.0,0.0,0.0,0.0,0.0,0.0,0.0,0.0,0.0,0.0,2.0655,1.8979,1.8845,0.0,0.0,0.0,0.0,1.5363,1.4507,0.0,0.0,0.0,0.0,0.0,0.0,0.0,0.0,0.0,0.0,0.0,0.0,0.0,0.0,0.0,0.0,0.0,0.0,0.0,0.0,0.0,0.0,0.0,0.0,0.0,0.0,0.0,0.0,0.0,0.0,0.0,0.0,0.0,0.0,0.0,0.0,0.0,0.0,0.0,0.0,0.0,0.0,0.0,0.0,0.0,0.0,0.0,0.0,0.0,0.0,0.0,0.0,0.0,0.0,0.0,0.0,-0.7739,-1.1383,-1.2932,-1.2316,-1.3761,-1.3261,-1.0654,-0.9601,-0.8076,0.0,0.0,0.0,0.0,0.0,0.0,0.0,0.0,0.0,0.0,0.0,0.0,0.0,0.0,0.0,0.0,0.0,0.0,0.0,0.0,0.0,0.0,0.0,0.0,0.0,0.0,0.0,0.0,0.0,0.0,0.0,0.0,0.0,0.0,0.0,0.0,0.0,0.0,0.0,0.0,0.0,2.1311,1.8481,1.8575,1.8328,0.0,0.0,1.5921,1.4559,1.3204,0.0,0.0,0.0,0.0,0.0,0.0,0.0,0.0,0.0,0.0,0.0,0.0,0.0,0.0,0.0,0.0,0.0,0.0,0.0,0.0,0.0,0.0,0.0,0.0,0.0,0.0,0.0,0.0,0.0,0.0,0.0,0.0,0.0,0.0,0.0,0.0,0.0,0.0,0.0,0.0,0.0,0.0,0.0,0.0,0.0,0.0,0.0,0.0,0.0,0.0,0.0,0.0,0.0,0.0,0.0,-0.5994,-0.9059,-1.2384,-1.3759,-1.3002,-1.3677,-1.3008,-1.1078,-1.0111,-0.8759,0.0,0.0,0.0,0.0,0.0,0.0,0.0,0.0,0.0,0.0,0.0,0.0,0.0,0.0,0.0,0.0,0.0,0.0,0.0,0.0,0.0,0.0,0.0,0.0,0.0,0.0,0.0,0.0,0.0,0.0,0.0,0.0,0.0,0.0,0.0,0.0,0.0,0.0,0.0,0.0,0.0,0.0,1.8764,1.8397,0.0,0.0,0.0,1.442,1.2325,0.0,0.0,0.0,0.0,0.0,0.0,0.0,0.0,0.0,0.0,0.0,0.0,0.0,0.0,0.0,0.0,0.0,0.0,0.0,0.0,0.0,0.0,0.0,0.0,0.0,0.0,0.0,0.0,0.0,0.0,0.0,0.0,0.0,0.0,0.0,0.0,0.0,0.0,0.0,0.0,0.0,0.0,0.0,0.0,0.0,0.0,0.0,0.0,0.0,0.0,0.0,0.0,0.0,0.0,0.0,0.0,0.0,-1.0217,-1.2523,-1.3914,-1.4311,-1.348,-1.274,-1.2236,-1.0929,0.0,0.0,0.0,0.0,0.0,0.0,0.0,0.0,0.0,0.0,0.0,0.0,0.0,0.0,0.0,0.0,0.0,0.0,0.0,0.0,0.0,0.0,0.0,0.0,0.0,0.0,0.0,1.2831,0.0,0.0,0.0,0.0,0.0,0.0,0.0,0.0,0.0,0.0,0.0,0.0,0.0,0.0,2.0526,1.8277,1.7685,1.668,0.0,0.0,1.2723,1.0389,0.9473,0.8514,0.0,0.0,0.0,0.0,0.0,0.0,0.0,0.0,0.0,0.0,0.0,0.0,0.0,0.0,0.0,0.0,0.0,0.0,0.0,0.0,0.0,0.0,0.0,0.0,0.0,0.0,0.0,0.0,0.0,0.0,0.0,0.0,0.0,0.0,0.0,0.0,0.0,0.0,0.0,0.0,0.0,0.0,0.0,0.0,0.0,0.0,0.0,0.0,0.0,0.0,0.0,0.0,0.0,0.0,0.0,-1.1135,-1.2048,-1.378,-1.6283,-1.3768,-1.2943,-1.4096,-1.2096,-1.0308,0.0,0.0,0.0,0.0,0.0,0.0,0.0,0.0,0.0,0.0,0.0,0.0,0.0,0.0,0.0,0.0,0.0,0.0,0.0,0.0,0.0,0.0,0.0,0.0,0.0,0.0,0.0,0.0,0.0,0.0,0.0,0.0,0.0,0.0,0.0,0.0,0.0,0.0,0.0,0.0,0.0,2.0443,1.6237,1.601,1.5352,0.0,0.0,1.0929,0.9486,0.8276,0.7242,0.6702,0.0,0.0,0.0,0.0,0.0,0.0,0.0,0.0,0.0,0.0,0.0,0.0,0.0,0.0,0.0,0.0,0.0,0.0,0.0,0.0,0.0,0.0,0.0,0.0,0.0,0.0,0.0,0.0,0.0,0.0,0.0,0.0,0.0,0.0,0.0,0.0,0.0,0.0,0.0,0.0,0.0,0.0,0.0,0.0,0.0,0.0,0.0,0.0,0.0,0.0,0.0,0.0,0.0,-0.8515,-1.2289,-1.4641,-1.5826,-1.5823,-1.6321,-1.5946,-1.4632,-1.3068,-1.1348,0.0,0.0,0.0,0.0,0.0,0.0,0.0,0.0,0.0,0.0,0.0,0.0,0.0,0.0,0.0,0.0,0.0,0.0,0.0,0.0,0.0,0.0,0.0,0.0,0.0,0.0,0.0,0.0,1.2865,1.3868,1.5487,0.0,0.0,0.0,0.0,0.0,0.0,0.0,0.0,0.0,0.0,1.8199,1.6415,1.5158,0.0,0.0,1.0698,0.9627,0.7912,0.7344,0.6753,0.5852,0.5547,0.0,0.0,0.0,0.0,0.0,0.0,0.0,0.0,0.0,0.0,0.0,0.0,0.0,0.0,0.0,0.0,0.0,0.0,0.0,0.0,0.0,0.0,0.0,0.0,0.0,0.0,0.0,0.0,0.0,0.0,0.0,0.0,0.0,0.0,0.0,0.0,0.0,0.0,0.0,0.0,0.0,0.0,0.0,0.0,0.0,0.0,0.0,0.0,0.0,0.0,0.0,0.0,-0.9713,-1.3356,-1.6421,-1.7398,-1.6254,-1.7965,-1.7778,-1.542,-1.3928,-1.2255,0.0,0.0,0.0,0.0,0.0,0.0,0.0,0.0,0.0,0.0,0.0,0.0,0.0,0.0,0.0,0.0,0.0,0.0,0.0,0.0,0.0,0.0,0.0,0.0,0.0,0.0,0.0,0.0,1.2264,1.3537,1.5362,0.0,0.0,0.0,0.0,0.0,0.0,0.0,0.0,0.0,0.0,1.6073,1.5498,1.3596,1.1877,1.0777,0.9568,0.8317,0.6946,0.6626,0.6172,0.5182,0.0,0.0,0.0,0.0,0.0,0.0,0.0,0.0,0.0,0.0,0.0,0.0,0.0,0.0,0.0,0.0,0.0,0.0,0.0,0.0,0.0,0.0,0.0,0.0,0.0,0.0,0.0,0.0,0.0,0.0,0.0,0.0,0.0,0.0,0.0,0.0,0.0,0.0,0.0,0.0,0.0,0.0,0.0,0.0,0.0,0.0,0.0,0.0,0.0,0.0,0.0,0.0,0.0,-1.1865,-1.4392,-1.6743,-1.8162,-1.8414,-1.8199,-1.7641,-1.6775,-1.4689,-1.297,-1.1677,0.0,0.0,0.0,0.0,0.0,0.0,0.0,0.0,0.0,0.0,0.0,0.0,0.0,0.0,0.0,0.0,0.0,0.0,0.0,0.0,0.0,0.0,0.0,0.0,0.0,0.0,1.1561,1.2814,1.38,0.0,0.0,0.0,0.0,0.0,0.0,0.0,0.0,0.0,0.0,1.5403,1.4448,1.2841,1.1177,1.0057,0.9915,0.8388,0.7077,0.6713,0.6157,0.5503,0.0,0.0,0.0,0.0,0.0,0.0,0.0,0.0,0.0,0.0,0.0,0.0,0.0,0.0,0.0,0.0,0.0,0.0,0.0,0.0,0.0,0.0,0.0,0.0,0.0,0.0,0.0,-1.172,-1.2022,0.0,0.0,0.0,0.0,0.0,0.0,0.0,0.0,0.0,0.0,0.0,-0.9445,-0.9858,0.0,0.0,0.0,0.0,0.0,0.0,0.0,0.0,0.0,0.0,0.0,0.0,-1.2372,-1.5403,-1.7144,-1.8045,-1.8184,-1.8066,-1.7861,-1.7569,-1.6083,-1.4399,-1.2575,0.0,0.0,0.0,0.0,0.0,0.0,0.0,0.0,0.0,0.0,0.0,0.0,0.0,0.0,0.0,0.0,0.0,0.0,0.0,0.0,0.0,0.0,0.0,0.0,0.0,0.8835,0.0,0.0,0.0,0.0,0.0,0.0,0.0,0.0,0.0,0.0,0.0,1.5709,1.4862,1.3094,1.1691,1.1203,0.9658,0.8427,0.0,0.0,0.0,0.0,0.0,0.0,0.0,0.0,0.0,0.0,0.0,0.0,0.0,0.0,0.1208,0.3968,0.4509,0.4493,0.4487,0.0,0.0,0.0,0.0,0.0,0.0,0.0,0.0,0.0,0.0,0.0,0.0,0.0,0.0,0.0,0.0,-1.3594,0.0,0.0,0.0,0.0,0.0,0.0,0.0,0.0,-1.2514,-1.1604,-1.0405,-1.1731,-1.2528,0.0,-1.2151,-1.1453,0.0,0.0,0.0,0.0,0.0,0.0,0.0,0.0,-1.334,-1.6098,-1.741,-1.8032,-1.8037,-1.8008,-1.8008,-1.7988,-1.6904,-1.5439,-1.3617,-1.3104,-1.2408,0.0,0.0,0.0,0.0,0.0,0.0,0.0,0.0,0.0,0.0,0.0,0.0,0.0,0.0,0.0,0.0,0.0,0.0,0.0,0.0,0.0,0.0,0.0,0.7952,0.0,0.0,0.0,0.0,0.0,0.0,0.0,0.0,0.0,1.5934,1.4463,1.3177,1.3215,1.1061,0.9485,0.9608,0.0,0.0,0.0,0.0,0.0,0.0,0.0,0.5663,0.5431,0.4336,0.3497,0.3555,-0.2083,-0.6617,-0.6594,0.0,0.0,0.1019,0.1796,0.1725,0.1798,0.1761,0.1791,0.1791,0.176,0.1727,0.0,0.0,0.0,0.0,0.0,0.0,0.0,0.0,-1.5881,-1.6621,0.0,-1.5177,0.0,0.0,0.0,0.0,0.0,0.0,0.0,0.0,-1.4478,-1.3656,-1.1927,-1.4028,-1.5589,-1.6444,-1.5713,-1.4866,-1.3979,-1.166,0.0,0.0,0.0,0.0,0.0,0.0,-1.4839,-1.6378,-1.7458,-1.8019,-1.7988,-1.8008,-1.7988,-1.793,-1.7163,-1.6148,-1.4824,-1.3586,-1.2742,-1.2333,-1.1199,0.0,0.0,0.0,0.0,0.0,0.0,0.0,0.0,0.0,0.0,0.0,0.0,0.0,0.0,0.0,0.0,0.0,0.0,0.0,0.0,0.7121,0.0,0.0,0.0,0.0,0.0,0.0,0.0,0.0,0.0,0.0,1.4157,1.2826,1.1532,1.1269,0.0,0.0,0.0,0.0,0.5591,0.5343,0.5748,0.534,0.3323,0.4868,0.6086,0.5512,0.0,0.0,-0.0,-0.3724,-0.6827,-0.7066,-0.6595,-0.5015,-0.1052,-0.008,-0.0,-0.0323,-0.0398,-0.0236,-0.0079,-0.0,-0.0,-2.0947,0.0,0.0,0.0,0.0,-1.5596,-1.6427,-1.7738,-1.6818,-1.6677,-1.7223,-1.7622,0.0,0.0,0.0,0.0,0.0,0.0,-1.504,-1.5832,-1.5936,-1.6009,-1.6108,-1.6302,-1.7455,-1.9314,-1.6996,-1.5822,-1.5783,-1.46,-1.3817,-1.346,0.0,0.0,0.0,0.0,-1.5136,-1.6341,-1.7432,-1.8019,-1.7998,-1.8008,-1.7715,-1.7119,-1.7433,-1.6719,-1.4834,-1.3586,-1.2869,-1.269,-1.145,0.0,0.0,0.0,0.0,0.0,0.0,0.0,0.0,0.0,0.0,0.0,0.0,0.0,0.0,0.0,0.0,0.0,0.0,0.0,0.5683,0.6283,0.6696,0.0,0.0,0.0,0.0,0.0,0.0,0.0,0.0,0.0,1.1368,1.0816,1.0095,0.0,0.0,0.5898,0.5486,0.5428,0.5482,0.5397,0.0,0.0,0.0,0.3543,0.5585,0.5455,0.2396,-0.0,-0.0,-0.1109,-0.3142,-0.6411,-0.682,-0.6169,-0.4997,-0.2127,-0.1352,-0.4141,-0.5038,-0.4458,-0.2884,-0.1265,-0.0,-2.4316,-2.1313,-1.9576,-1.8315,-1.7559,-1.7895,-1.8344,-1.8768,-1.7561,-1.7554,-1.8437,-1.8348,-1.7312,-1.5592,-1.514,0.0,0.0,0.0,-1.6328,-1.721,-1.7467,-1.7905,-1.8461,-1.8389,-1.9132,-2.043,-1.8535,-1.7661,-1.7865,-1.6955,-1.6168,-1.5487,0.0,0.0,-1.5628,-1.5792,-1.612,-1.6766,-1.7615,-1.8024,-1.8008,-1.7852,-1.751,-1.7012,-1.7332,-1.6658,-1.489,-1.4227,-1.3575,-1.2915,-1.2097,-1.1411,0.0,0.0,0.0,0.0,0.0,0.0,0.0,0.0,0.0,0.0,0.0,-0.0,0.0,0.0,0.0,0.0,0.5417,0.5267,0.5067,0.5457,0.0,0.0,0.0,0.0,0.0,0.0,0.0,0.8687,0.7688,0.7591,0.9361,0.8631,0.8403,0.9665,0.7246,0.4664,0.2863,0.0,0.3257,0.3259,0.2838,0.1953,0.03,0.1826,0.3235,0.3231,0.1506,-0.0,-0.0,-0.0,-0.0,-0.4545,-0.6105,-0.6521,-0.5908,-0.4091,-0.3202,-0.5314,-0.6473,-0.6586,-0.5261,-0.3784,-0.2333,-2.7397,-2.6046,-2.3472,-2.1164,-1.934,-2.0557,-2.0256,-1.8901,-1.8454,-1.9073,-2.0245,-1.7882,-1.7224,-1.7842,-1.6657,0.0,-1.6262,-1.7012,-1.7627,-1.8135,-1.8916,-1.9316,-1.9439,-2.0245,-2.0624,-2.0595,-2.0146,-1.9971,-1.9902,-1.875,-1.8154,-1.8076,-1.7561,-1.7171,-1.7038,-1.7324,-1.7473,-1.7451,-1.7823,-1.8008,-1.7998,-1.7598,-1.7344,-1.7266,-1.6947,-1.6078,-1.4841,-1.5046,-1.4501,-1.3057,-1.2935,-1.2377,-1.1288,0.0,0.0,0.0,0.0,0.0,0.0,0.0,0.0,0.0,0.0,0.0,0.0,0.0,0.0,0.0,0.5027,0.0,0.4417,0.4523,0.0,0.0,0.0,0.5306,0.5523,0.6443,0.7263,0.7748,0.0,0.0,0.7939,0.0,0.6655,0.9873,0.7204,0.3782,0.0455,-0.0,-0.0,-0.0,0.3253,0.4325,-0.0,-0.0,-0.0,-0.0,-0.0,-0.0,-0.0,-0.0,-0.0,-0.2916,-0.5027,-0.6309,-0.4944,-0.5887,-0.6378,-0.4316,-0.5625,-0.7115,-0.69,-0.6831,-0.542,-2.85,-2.8077,-2.6623,-2.468,-2.2559,-2.2441,-2.2405,-2.2138,-2.0653,-2.0428,-2.1006,-1.8718,-1.746,-1.6961,-1.6674,-1.6758,-1.708,-1.7295,-1.7959,-1.8965,-1.9189,-1.9625,-2.0321,-2.0468,-2.0594,-2.0605,-2.0495,-2.042,-2.0381,-1.9775,-1.9297,-1.8965,-1.8468,-1.7794,-1.6809,-1.6844,-1.6889,-1.6886,-1.7619,-1.8008,-1.7988,-1.7598,-1.7061,-1.6396,-1.6577,-1.5938,-1.4326,-1.3753,-1.3442,-1.3369,-1.3051,-1.2305,-1.0953,-0.9945,0.0,0.0,0.0,0.0,0.0,0.0,0.0,0.0,0.0,-0.0,-0.0,0.0,0.184,0.0,0.2062,0.1817,0.3008,0.2984,0.0,0.0,0.3317,0.3377,0.345,0.3823,0.4678,0.614,0.4588,0.4129,0.5921,0.6113,0.6352,0.7146,0.3878,0.0934,-0.0,-0.0,-0.0,-0.0,-0.0,0.11,-0.0,-0.0,-0.0,-0.0,-0.0,-0.0,-0.4209,-0.479,-0.4501,-0.3496,-0.491,-0.6109,-0.6111,-0.6347,-0.6369,-0.6051,-0.6567,-0.7091,-0.7068,-0.7081,-0.629,-2.9315,-2.9214,-2.8109,-2.6869,-2.5635,-2.4815,-2.4141,-2.3458,-2.328,-2.2651,-2.152,-1.9481,-1.8107,-1.7314,-1.7305,-1.7432,-1.7686,-1.8057,-1.8613,-1.9297,-1.9678,-2.0161,-2.0619,-2.0566,-2.0623,-2.0619,-2.0633,-2.0459,-2.0264,-1.9844,-1.9414,-1.8994,-1.8574,-1.8008,-1.7344,-1.7272,-1.7293,-1.7311,-1.7726,-1.792,-1.7725,-1.7314,-1.6855,-1.6367,-1.5861,-1.5282,-1.4666,-1.3551,-1.3033,-1.3183,-1.2665,-1.1986,-1.1172,-1.0297,-0.9128,0.0,0.0,0.0,0.0,0.0,0.0,0.0,0.0,0.0,0.0,0.0,0.0397,0.0,0.0588,0.0394,0.1384,0.1304,0.1309,0.1488,0.1529,0.1478,0.1479,0.1587,0.2138,0.3093,0.3817,0.3927,0.3237,0.4929,0.6254,0.625,0.4258,0.2132,-0.0,-0.0,-0.0,-0.0,-0.0,-0.0,-0.0,-0.0,-0.0,-0.0,-0.0,-0.1414,-0.5526,-0.625,-0.5868,-0.4862,-0.5518,-0.6354,-0.6428,-0.642,-0.645,-0.6555,-0.6793,-0.688,-0.7034,-0.7024,-0.6631,-2.9779,-2.9704,-2.8649,-2.8172,-2.8021,-2.7005,-2.5572,-2.4013,-2.5772,-2.4896,-2.2037,-2.0322,-1.9106,-1.8213,-1.8213,-1.8154,-1.8144,-1.8926,-1.936,-1.9545,-2.0335,-2.07,-2.0604,-2.075,-2.0692,-2.0575,-2.0624,-2.0371,-1.999,-1.9777,-1.9446,-1.9011,-1.8646,-1.8438,-1.836,-1.8105,-1.7978,-1.7999,-1.8085,-1.7997,-1.7539,-1.707,-1.6768,-1.6539,-1.5226,-1.4648,-1.5034,-1.3685,-1.2897,-1.2897,-1.2344,-1.1844,-1.145,-1.0792,-0.9658,0.0,-0.7942,0.0,0.0,0.0,0.0,0.0,0.0,0.0,0.0,-0.026,-0.0,-0.0,-0.0,-0.0,-0.0,-0.0,-0.0,-0.0,-0.0,-0.0,-0.0,-0.0,-0.0,-0.0,0.3231,0.4016,0.0863,0.3308,0.5538,0.6094,0.61,0.4729,0.1641,-0.0,-0.0,-0.0,-0.0,-0.0,-0.0,-0.0,-0.0,-0.0,-0.0,-0.0,-0.5096,-0.6071,-0.6237,-0.621,-0.6207,-0.6281,-0.6264,-0.6369,-0.6441,-0.6451,-0.6576,-0.6736,-0.6902,-0.6947,-0.7054,-2.9779,-2.9716,-2.9051,-2.8524,-2.8059,-2.7406,-2.6714,-2.5931,-2.6321,-2.516,-2.287,-2.1567,-2.0435,-1.9572,-1.9514,-1.9191,-1.8545,-1.9053,-1.9713,-2.0563,-2.1032,-2.0987,-2.0683,-2.1357,-2.1308,-2.0661,-2.0604,-2.0527,-2.0517,-2.1161,-2.1248,-2.0886,-2.1113,-2.0887,-2.024,0.0,0.0,0.0,-1.8676,-1.8854,-1.8379,-1.7646,-1.6914,-1.6262,-1.6244,0.0,-1.3471,-1.3076,-1.292,-1.292,-1.3372,0.0,0.0,0.0,0.0,0.0,0.0,0.0,0.0,0.0,0.0,0.0,-0.5055,-0.4722,-0.4339,-0.1697,-0.0,-0.0,-0.0,-0.0,-0.0,-0.0,-0.0,-0.0,-0.0,-0.0,-0.0,-0.0,-0.0,-0.0,-0.0,-0.0,-0.0,0.0786,0.2515,0.5529,0.626,0.597,0.5143,0.2093,-0.0,-0.0,-0.0,-0.0,-0.0,-0.0,-0.0,-0.0,-0.0,-0.0,-0.3297,-0.5286,-0.6291,-0.6268,-0.6264,-0.6261,-0.6261,-0.6362,-0.6308,-0.6379,-0.6417,-0.66,-0.6868,-0.6949,-0.6924,-2.9779,0.0,-2.9164,-2.8775,0.0,-2.7921,-2.7532,-2.7231,-2.6734,-2.5301,-2.3375,-2.2935,-2.2157,-2.1065,-2.1065,-2.079,-2.0407,-2.0881,-2.1378,-2.1827,-2.2284,-2.2302,-2.2091,-2.2476,-2.2467,-2.203,-2.2039,-2.1933,-2.1797,-2.2219,-2.219,-2.1794,-2.1962,-2.1798,-2.1065,-1.907,-1.8022,-1.8008,-1.8409,-1.8429,-1.8008,-1.7393,-1.6846,-1.6387,0.0,0.0,0.0,0.0,0.0,0.0,0.0,0.0,0.0,0.0,0.0,-0.8891,-0.9103,-0.877,-0.7624,-0.6875,-0.6418,-0.6274,-0.5789,-0.5481,-0.5436,-0.2104,-0.0,-0.0,-0.0,-0.0,-0.0,-0.0,-0.0,-0.0,-0.0,-0.0,-0.0,-0.0,-0.0,-0.0,-0.0,-0.0,-0.0,-0.0,-0.0,0.2907,0.5053,0.6261,0.5901,0.2735,-0.0,-0.0,-0.0,-0.0,-0.0,-0.0,-0.0,-0.0,-0.0,-0.0,-0.2729,-0.4865,-0.6288,-0.6264,-0.6261,-0.6261,-0.6261,-0.6261,-0.6261,-0.6264,-0.6318,-0.6468,-0.6749,-0.6875,-0.6973,-2.988,-2.9754,-2.9289,-2.9013,-2.8888,-2.8448,-2.8134,-2.7883,0.0,0.0,0.0,-2.4384,-2.3879,-2.2605,-2.2537,-2.2457,-2.2353,-2.2778,-2.31,-2.3174,-2.3591,-2.3852,-2.4055,-2.3841,-2.3875,-2.3977,-2.3644,-2.3313,-2.3014,-2.3146,-2.3083,-2.2765,-2.2788,-2.2399,-2.1608,-1.9218,-1.8148,-1.8444,-1.8144,-1.7872,-1.7607,-1.7178,-1.6894,-1.6675,-1.5195,-1.4537,-1.4929,-1.3652,-1.2924,-1.2927,-1.3023,-1.3115,-1.2979,-1.1538,-1.0155,-0.8996,-0.8824,-0.9045,-0.9479,-0.8884,-0.8138,-0.7385,-0.6511,-0.5801,-0.5517,-0.2521,-0.0516,-0.0,-0.0,-0.0,-0.0,-0.0,-0.0,-0.0,-0.0,-0.0,-0.0,-0.0,-0.0,-0.0,-0.0,-0.0,-0.0,-0.0,-0.0,-0.0,0.3779,0.5838,0.491,0.2144,-0.0,-0.0,-0.0,-0.0,-0.0,-0.0,-0.0,-0.0,-0.0,-0.0,-0.2731,-0.4849,-0.6112,-0.6264,-0.6261,-0.6261,-0.6261,-0.6261,-0.6261,-0.6261,-0.6261,-0.6342,-0.6593,-0.6756,-0.6898,-3.0218,-2.9779,-2.9691,-2.9377,-2.8925,-2.8837,-2.826,-2.7381,-2.6768,-2.6015,-2.5157,-2.5911,-2.5351,-2.3906,-2.3906,-2.3479,-2.2883,-2.3201,-2.3693,0.0,-2.4602,-2.5242,-2.6031,-2.523,-2.5241,-2.5886,-2.4311,-2.3492,-2.3509,-2.4304,-2.4637,-2.4661,-2.4957,-2.4384,-2.2729,-1.9609,-1.8755,-2.0159,-1.8774,-1.8158,-1.8457,-1.8047,-1.7471,-1.6738,-1.5762,-1.46,-1.3329,-1.3081,-1.2892,-1.2938,-1.3556,-1.382,-1.3539,-1.2663,-1.1293,-0.95,-0.8961,-0.8832,-0.8963,-0.9736,-0.9675,-0.8317,-0.7628,-0.6856,-0.5953,-0.4355,-0.2398,-0.0,-0.0,-0.0,-0.0,-0.0,-0.0,-0.0,-0.0,-0.0,-0.0,-0.0,-0.0,-0.0,-0.0,-0.0,-0.0,-0.0,-0.0,-0.0,0.3219,0.4966,0.1993,0.0431,-0.0,-0.0,-0.0,-0.0,-0.0,-0.0,-0.0,-0.0,-0.0,-0.0679,-0.2723,-0.4871,-0.618,-0.6261,-0.6261,-0.6261,-0.6261,-0.6261,-0.6261,-0.6261,-0.6261,-0.6325,-0.6491,-0.6556,-0.6685,-3.047,-3.0206,-2.9917,-2.9641,-2.939,-2.9402,-2.8938,-2.8099,-2.7569,-2.6872,-2.6101,-2.6367,-2.6095,-2.5436,-2.5436,-2.5217,-2.4869,-2.5027,-2.5296,-2.5505,-2.5693,-2.6042,-2.64,-2.6042,-2.6045,-2.6399,-2.5586,-2.5134,-2.5205,-2.5581,-2.5816,-2.5836,-2.5672,-2.5373,-2.4713,-2.124,-2.0062,-2.1419,-2.0715,-1.9962,-1.9302,-1.8954,-1.8338,-1.7422,-1.6104,-1.5089,-1.427,-1.4246,-1.4247,-1.4233,-1.46,-1.4777,-1.4626,-1.3515,-1.2236,-1.0842,-0.982,-0.9348,-0.9516,-0.9882,-0.9825,-0.9269,-0.8699,-0.795,-0.7021,-0.5881,-0.4693,-0.3542,-0.241,-0.1185,-0.0,-0.0,-0.0,-0.0,-0.0,-0.0,-0.0,-0.0,-0.0,-0.0,-0.0,-0.0,-0.0,-0.0,-0.0,-0.0,0.1946,0.1976,0.022,-0.0,-0.0,-0.0,-0.0,-0.0,-0.0,-0.0,-0.0,-0.0,-0.0,-0.0,-0.2771,-0.4897,-0.61,-0.6247,-0.6257,-0.6261,-0.6331,-0.6261,-0.6261,-0.6261,-0.6261,-0.6318,-0.6434,-0.6532,-0.6702,-3.1194,-3.094,-3.0221,-2.9905,-2.9792,-2.9779,-2.9465,-2.885,-2.8562,-2.7888,-2.6929,-2.6829,-2.6773,-2.6546,-2.659,-2.6578,-2.6533,-2.6521,-2.6452,-2.6521,-2.6521,-2.6521,-2.6521,-2.6521,-2.6521,-2.6521,-2.6521,-2.6521,-2.6521,-2.6521,-2.6521,-2.6414,-2.6013,-2.6068,-2.6445,-2.3447,-2.224,-2.2879,-2.3062,-2.2252,-2.0482,-2.0002,-1.9393,-1.8583,-1.6943,-1.5885,-1.5694,-1.5507,-1.5412,-1.5436,-1.5391,-1.5426,-1.5359,-1.4212,-1.3167,-1.236,-1.1001,-1.0231,-1.0362,-1.0204,-1.0183,-1.0299,-0.984,-0.9178,-0.8514,-0.7374,-0.6539,-0.6213,-0.4724,-0.3193,-0.0,-0.0,-0.0,-0.0,-0.0263,-0.0,-0.0,-0.0,-0.0,-0.0,-0.0,-0.0,-0.0,-0.0,-0.0,-0.0,-0.1384,-0.1277,-0.0884,-0.0656,-0.0496,-0.0,-0.0,-0.0,-0.0,-0.0,-0.0,-0.0,-0.0,-0.2028,-0.336,-0.4839,-0.6235,-0.6474,-0.654,-0.6659,-0.6749,-0.6859,-0.6942,-0.7019,-0.713,-0.7138,-0.7242,-0.7442,-0.7228,-3.2935,-3.1926,-3.0993,-3.0244,-2.9817,-2.9779,-2.9478,-2.9013,-2.9441,-2.8986,-2.7959,-2.7946,-2.7394,-2.6615,-2.6967,-2.6904,-2.6546,-2.6521,-2.6521,-2.6521,-2.6521,-2.6521,-2.6477,-2.6546,-2.6521,-2.6465,-2.6477,-2.649,-2.6521,-2.6521,-2.6521,-2.6521,-2.6471,-2.6445,-2.6433,-2.6052,-2.5629,-2.5128,-2.5759,-2.4764,-2.215,-2.1018,-2.049,-2.0549,-1.8733,-1.7355,-1.6606,-1.5828,-1.5448,-1.5381,-1.5393,-1.5407,-1.5322,-1.4914,-1.4459,-1.3906,-1.2396,-1.1458,-1.1272,-1.1223,-1.1358,-1.1662,-1.1034,-1.0599,-1.0346,-0.8845,-0.7411,-0.6577,-0.6255,-0.5882,-0.5653,-0.417,-0.3261,-0.3161,-0.1551,-0.0,-0.0,-0.0,-0.0,-0.0,-0.0,-0.0,-0.0,-0.0,-0.0,-0.4344,-0.4799,-0.44,-0.306,-0.2623,-0.1983,-0.0708,-0.0,-0.0,-0.0,-0.0,-0.0,-0.0,-0.324,-0.4334,-0.4217,-0.4871,-0.6271,-0.6904,-0.7119,-0.733,-0.7866,-0.8394,-0.8479,-0.8277,-0.8515,-0.8932,-0.9071,-0.9173,-0.8832,-3.3934,-3.2643,-3.185,-3.0881,-2.9894,-2.9779,-2.9666,-2.9453,-2.9694,-2.9366,-2.8687,-2.895,-2.831,-2.6967,-2.6854,-2.6653,-2.6533,-2.6521,-2.6521,-2.6521,-2.6521,-2.6483,-2.6544,-2.6822,-2.6809,-2.6569,-2.6822,-2.6779,-2.6571,-2.6521,-2.6521,-2.6521,-2.6521,-2.6508,-2.6508,-2.6496,-2.6314,-2.6101,-2.6314,-2.5915,-2.4844,-2.3867,-2.294,-2.1959,-2.0445,-1.8846,-1.759,-1.7145,-1.6914,-1.6894,-1.5959,-1.5419,-1.5405,-1.5235,-1.4636,-1.352,-1.1936,-1.1094,-1.1252,-1.1337,-1.155,-1.185,-1.176,-1.1471,-1.083,-1.0193,-0.9202,-0.7593,-0.6958,-0.6627,-0.6509,-0.5808,-0.5467,-0.5499,-0.475,-0.3601,-0.1994,-0.2014,-0.2093,-0.1863,-0.1989,-0.2172,-0.2088,-0.1962,-0.2571,-0.4339,-0.5372,-0.5768,-0.485,-0.4765,-0.4393,-0.3373,-0.2369,-0.1153,-0.0,-0.0,-0.0,-0.2785,-0.4537,-0.5177,-0.5201,-0.5785,-0.6936,-0.7237,-0.7606,-0.8032,-0.8466,-0.8717,-0.8822,-0.9079,-0.918,-0.9296,-0.9296,-0.9539,-0.9252,-3.4886,-3.3477,-3.2368,-3.1098,-2.9804,-2.9779,-2.9779,-2.9779,-2.9779,-2.9553,-2.9202,-2.9302,-2.8674,-2.757,-2.7092,-2.6836,-2.6559,-2.6521,-2.6521,-2.6477,-2.6672,-2.6759,-2.6868,-2.731,-2.7297,-2.7039,-2.7147,-2.6992,-2.6584,-2.6521,-2.6521,-2.6521,-2.6521,-2.6521,-2.6521,-2.6521,-2.6521,-2.6521,-2.6521,-2.6521,-2.6364,-2.577,-2.4841,-2.3618,-2.2444,-2.082,-1.8812,-1.8248,-1.7981,-1.7971,-1.6756,-1.6033,-1.5898,-1.5671,-1.474,-1.2984,-1.1834,-1.1234,-1.1295,-1.1316,-1.159,-1.1951,-1.2191,-1.2016,-1.149,-1.1272,-1.0647,-0.9367,-0.7998,-0.7282,-0.677,-0.6774,-0.686,-0.7027,-0.7034,-0.618,-0.4521,-0.4395,-0.4378,-0.4272,-0.4372,-0.4399,-0.44,-0.4194,-0.4179,-0.4406,-0.5407,-0.6207,-0.5989,-0.5986,-0.5952,-0.5672,-0.4321,-0.2792,-0.1159,-0.0,-0.2237,-0.3581,-0.4901,-0.5744,-0.6004,-0.6906,-0.7728,-0.7962,-0.8384,-0.8976,-0.955,-0.9602,-0.9745,-0.9952,-1.0126,-1.0154,-1.0545,-1.055,-1.0526,-3.6057,-3.4626,-3.2258,-3.0823,-2.9869,-2.9856,-2.9856,-2.9998,-2.9844,-2.9741,-2.9681,-2.8774,-2.816,-2.8069,-2.8028,-2.749,-2.6622,-2.6559,-2.6571,-2.6634,-2.703,-2.7377,-2.7561,-2.7918,-2.8053,-2.7919,-2.749,-2.7042,-2.6515,-2.6571,-2.6521,-2.6571,-2.6596,-2.6546,-2.649,-2.6546,-2.6521,-2.6521,-2.6521,-2.6521,-2.6389,-2.5782,-2.5453,-2.5331,-2.4809,-2.3058,-2.0665,-1.8853,-1.7986,-1.7991,-1.7825,-1.7551,-1.705,-1.637,-1.4888,-1.2749,-1.2696,-1.2474,-1.181,-1.1518,-1.1677,-1.2164,-1.2278,-1.2399,-1.2459,-1.1964,-1.1582,-1.156,-0.9875,-0.8365,-0.7073,-0.698,-0.6977,-0.69,-0.7059,-0.6973,-0.6863,-0.6371,-0.6641,-0.6615,-0.6352,-0.6243,-0.6363,-0.6365,-0.5981,-0.594,-0.6207,-0.621,-0.6064,-0.604,-0.605,-0.6043,-0.5486,-0.4591,-0.3042,-0.2576,-0.2659,-0.3731,-0.5184,-0.6051,-0.6684,-0.7377,-0.8107,-0.8783,-0.9299,-0.9952,-1.0747,-1.1237,-1.1475,-1.1665,-1.1681,-1.1838,-1.1633,-1.2355,-1.2298,-3.6351,-3.485,-3.2927,-3.1888,-3.1623,-3.1549,-3.1636,-3.1449,-3.031,-3.0229,-3.0745,-3.0053,-2.9191,-2.8412,-2.8953,-2.8216,-2.6678,-2.6898,-2.6992,-2.7055,-2.7557,-2.7996,-2.8335,-2.8437,-2.8449,-2.836,-2.7836,-2.7288,-2.7092,-2.7331,-2.7519,-2.7444,-2.7155,-2.6992,-2.6929,-2.6628,-2.6521,-2.6521,-2.6521,-2.6521,-2.6508,-2.6226,-2.6126,-2.6113,-2.4662,-2.3177,-2.1691,-1.9312,-1.7985,-1.8017,-1.8031,-1.7921,-1.7581,-1.6431,-1.5368,-1.4368,-1.3421,-1.2882,-1.2677,-1.206,-1.1877,-1.2238,-1.2305,-1.2479,-1.2743,-1.2628,-1.2432,-1.1887,-1.1505,-1.0248,-0.85,-0.7519,-0.7122,-0.7078,-0.7068,-0.7034,-0.698,-0.6927,-0.693,-0.6878,-0.684,-0.6791,-0.679,-0.6646,-0.6495,-0.6427,-0.6325,-0.621,-0.6098,-0.6105,-0.6173,-0.6026,-0.5766,-0.5393,-0.4837,-0.4501,-0.4549,-0.4864,-0.5621,-0.6301,-0.6989,-0.8057,-0.8838,-0.9222,-0.9861,-1.0587,-1.1283,-1.1633,-1.2118,-1.2218,-1.2305,-1.2358,-1.2432,-1.2719,-1.285,-3.5937,-3.4632,-3.348,-3.289,-3.2593,-3.2593,-3.2593,-3.2481,-3.1253,-3.1043,-3.1445,-3.1099,-3.0158,-2.9107,-2.9367,-2.8833,-2.7442,-2.7606,-2.7538,-2.7344,-2.8034,-2.8462,-2.8762,-2.895,-2.8963,-2.8612,-2.7961,-2.7585,-2.7607,-2.7921,-2.8097,-2.8072,-2.772,-2.7444,-2.7243,-2.6771,-2.6509,-2.649,-2.6521,-2.6521,-2.6521,-2.6521,-2.6521,-2.6239,-2.4795,-2.3502,-2.2637,-2.0175,-1.8508,-1.8117,-1.8008,-1.7866,-1.7491,-1.6644,-1.5854,-1.525,-1.4343,-1.3585,-1.3269,-1.2706,-1.2342,-1.2278,-1.2392,-1.2587,-1.2878,-1.3199,-1.3082,-1.2745,-1.2281,-1.1466,-0.9749,-0.836,-0.758,-0.7228,-0.7139,-0.7017,-0.7017,-0.7085,-0.7041,-0.6926,-0.6956,-0.698,-0.6929,-0.6837,-0.6712,-0.6566,-0.6454,-0.6335,-0.6176,-0.622,-0.6224,-0.5945,-0.5884,-0.5768,-0.5461,-0.5246,-0.5077,-0.5359,-0.6051,-0.6692,-0.7456,-0.8554,-0.9408,-0.979,-1.032,-1.1048,-1.1632,-1.2056,-1.2184,-1.2285,-1.2338,-1.2385,-1.2572,-1.2826,-1.2975,-3.4949,-3.4206,-3.4027,-3.3533,-3.2961,-3.289,-3.2735,-3.2835,-3.2709,-3.2361,-3.2025,-3.1682,-3.0992,-2.9993,-2.965,-2.9149,-2.8957,-2.8826,-2.8343,-2.7657,-2.8448,-2.8938,-2.9013,-2.9441,-2.9276,-2.8657,-2.8024,-2.7817,-2.8109,-2.8235,-2.8285,-2.8197,-2.8172,-2.7908,-2.7344,-2.6847,-2.6524,-2.6521,-2.6527,-2.6477,-2.6521,-2.6521,-2.6521,-2.6383,-2.5451,-2.4484,-2.3592,-2.156,-1.9735,-1.836,-1.8075,-1.758,-1.7129,-1.7122,-1.6699,-1.5514,-1.5323,-1.4746,-1.3639,-1.3374,-1.2956,-1.2638,-1.264,-1.2872,-1.3134,-1.3423,-1.3645,-1.3646,-1.3021,-1.1809,-1.0611,-0.9492,-0.836,-0.7316,-0.7139,-0.7129,-0.7129,-0.7136,-0.7136,-0.7112,-0.7112,-0.7075,-0.698,-0.6912,-0.6837,-0.6736,-0.6661,-0.6549,-0.6325,-0.6366,-0.6318,-0.6122,-0.6003,-0.5949,-0.5932,-0.5888,-0.565,-0.5592,-0.6414,-0.71,-0.7847,-0.8807,-0.9716,-1.0174,-1.0685,-1.1369,-1.1857,-1.2218,-1.2238,-1.2318,-1.2358,-1.2452,-1.2705,-1.2966,-1.3287,-3.5294,-3.5067,-3.5052,-3.4839,-3.4624,-3.4572,-3.4624,-3.4601,-3.4588,-3.4211,-3.3602,-3.3071,-3.2348,-3.1632,-3.1406,-3.1008,-3.0429,-3.0703,-3.0187,-2.9047,-2.9276,-2.9503,-2.9528,-2.9744,-2.9252,-2.855,-2.8913,-2.8963,-2.8762,-2.9063,-2.9264,-2.9202,-2.885,-2.8599,-2.8262,-2.7188,-2.6623,-2.6972,-2.6656,-2.6494,-2.6477,-2.6521,-2.6521,-2.6383,-2.5511,-2.5098,-2.5329,-2.2391,-2.042,-1.9735,-1.901,-1.832,-1.7783,-1.7744,-1.7542,-1.7054,-1.6538,-1.6156,-1.5506,-1.4293,-1.3546,-1.328,-1.303,-1.2956,-1.3192,-1.3434,-1.3781,-1.4035,-1.3737,-1.2772,-1.1042,-1.0351,-0.9226,-0.7312,-0.7139,-0.7139,-0.7139,-0.7139,-0.7139,-0.7139,-0.7139,-0.7115,-0.7068,-0.7007,-0.6922,-0.6868,-0.678,-0.663,-0.6478,-0.6451,-0.641,-0.6227,-0.6142,-0.6051,-0.6027,-0.5952,-0.5762,-0.5844,-0.657,-0.7311,-0.8047,-0.8941,-0.9849,-1.0652,-1.1109,-1.1597,-1.2091,-1.2305,-1.2305,-1.2318,-1.2351,-1.2545,-1.2812,-1.3113,-1.3427,-3.5489,-3.5489,-3.5489,-3.5489,-3.5489,-3.5489,-3.5489,-3.5519,-3.5487,-3.515,-3.4543,-3.4337,-3.3618,-3.2864,-3.2792,-3.2514,-3.2026,-3.2306,-3.1829,-3.0813,-3.0377,-3.0203,-2.9819,-2.9553,-2.9315,-2.8925,-2.9264,-2.9415,-2.9289,-2.9603,-2.9779,-2.9691,-2.9428,-2.9114,-2.8938,-2.8201,-2.7703,-2.7297,-2.6772,-2.6511,-2.6458,-2.6521,-2.6521,-2.6383,-2.5873,-2.5889,-2.6186,-2.3322,-2.1302,-2.0544,-1.9314,-1.8311,-1.7842,-1.79,-1.7939,-1.7687,-1.7415,-1.6991,-1.6489,-1.5147,-1.4095,-1.3873,-1.3348,-1.3066,-1.3353,-1.3579,-1.3908,-1.4048,-1.4082,-1.33,-1.1643,-1.1209,-1.0341,-0.8615,-0.7573,-0.7228,-0.7139,-0.7139,-0.7139,-0.7139,-0.7139,-0.7139,-0.7115,-0.7078,-0.7007,-0.699,-0.6926,-0.677,-0.663,-0.6559,-0.6451,-0.6332,-0.621,-0.6146,-0.6112,-0.6003,-0.5861,-0.6202,-0.668,-0.7323,-0.7977,-0.8952,-0.9874,-1.0791,-1.139,-1.1724,-1.2178,-1.2271,-1.2305,-1.2325,-1.2378,-1.2685,-1.2973,-1.324,-1.354,-3.5489,-3.5489,-3.5489,-3.5489,-3.5489,-3.5489,-3.5489,-3.5524,-3.5458,-3.5157,-3.4793,-3.512,-3.4772,-3.3784,-3.3634,-3.3496,-3.3523,-3.3258,-3.3091,-3.2659,-3.1932,-3.0983,-2.9883,-2.9517,-2.9517,-2.958,-2.924,-2.9315,-2.9679,-2.9754,-2.9779,-2.9767,-2.9716,-2.9528,-2.9164,-2.9504,-2.8872,-2.7657,-2.6875,-2.6507,-2.6653,-2.6515,-2.6527,-2.654,-2.6502,-2.6427,-2.6177,-2.4068,-2.2116,-2.0605,-1.8932,-1.791,-1.7607,-1.7803,-1.7842,-1.7568,-1.7822,-1.7463,-1.6715,-1.5726,-1.4921,-1.4395,-1.3712,-1.3307,-1.3534,-1.3828,-1.4041,-1.4082,-1.4088,-1.3555,-1.2504,-1.2151,-1.1552,-1.0519,-0.8615,-0.7489,-0.7139,-0.7139,-0.7139,-0.7139,-0.7139,-0.7139,-0.7139,-0.7126,-0.7122,-0.7119,-0.7099,-0.6956,-0.6759,-0.6624,-0.6536,-0.64,-0.6244,-0.6217,-0.6176,-0.6078,-0.5945,-0.6075,-0.6495,-0.7018,-0.7873,-0.8931,-1.0077,-1.0992,-1.1619,-1.1962,-1.221,-1.2251,-1.2305,-1.2311,-1.2505,-1.2839,-1.3113,-1.336,-1.3634,-3.5489,-3.5489,-3.5489,-3.5489,-3.5489,-3.5489,-3.5489,-3.5489,-3.5479,-3.5359,-3.5299,-3.5394,-3.5322,-3.4936,-3.4427,-3.4472,-3.4692,-3.4352,-3.3952,-3.3753,-3.3502,-3.1901,-3.0355,-3.034,-3.0263,-2.9821,-2.9617,-2.9641,-2.9779,-2.9779,-2.9779,-2.9779,-2.9779,-2.9729,-2.9603,-2.968,-2.934,-2.8375,-2.7127,-2.6968,-2.7413,-2.6881,-2.6706,-2.7017,-2.6691,-2.6483,-2.6163,-2.3144,-2.0868,-1.9706,-1.8607,-1.7978,-1.7852,-1.7939,-1.7959,-1.791,-1.7939,-1.7949,-1.743,-1.6359,-1.5454,-1.5141,-1.4223,-1.3547,-1.3607,-1.3901,-1.4062,-1.4088,-1.4082,-1.3639,-1.2589,-1.2328,-1.1809,-1.0697,-0.9401,-0.8189,-0.7489,-0.7139,-0.7139,-0.7139,-0.7139,-0.7139,-0.7139,-0.7139,-0.7139,-0.7139,-0.7119,-0.7048,-0.6824,-0.6688,-0.66,-0.6393,-0.6331,-0.6254,-0.6224,-0.6132,-0.6047,-0.5986,-0.6241,-0.647,-0.7577,-0.8806,-1.0203,-1.139,-1.1717,-1.2049,-1.2231,-1.2298,-1.2305,-1.2305,-1.2599,-1.2906,-1.316,-1.3414,-1.3707,-3.5489,-3.5489,-3.5489,-3.5489,-3.5489,-3.5489,-3.5489,-3.5489,-3.5489,-3.5489,-3.5489,-3.5489,-3.5489,-3.5444,-3.5085,-3.5115,-3.54,-3.51,-3.4842,-3.467,-3.461,-3.3269,-3.1549,-3.1254,-3.0742,-2.9885,-2.9781,-2.9767,-2.9779,-2.9779,-2.9779,-2.9779,-2.9779,-2.9779,-2.9767,-2.9767,-2.9515,-2.89,-2.8163,-2.8052,-2.8011,-2.8041,-2.778,-2.7641,-2.7092,-2.6615,-2.5517,-2.2443,-2.0151,-1.912,-1.8356,-1.8017,-1.8027,-1.8008,-1.8076,-1.8232,-1.8271,-1.8281,-1.8062,-1.7117,-1.636,-1.5788,-1.4791,-1.4218,-1.3897,-1.4001,-1.4088,-1.4088,-1.4088,-1.373,-1.3294,-1.3033,-1.251,-1.1558,-1.0692,-0.9831,-0.8703,-0.8204,-0.7944,-0.776,-0.7404,-0.7139,-0.7139,-0.7139,-0.7139,-0.7139,-0.7139,-0.7017,-0.6854,-0.6763,-0.6634,-0.6434,-0.6366,-0.6274,-0.6264,-0.619,-0.6156,-0.6098,-0.6191,-0.6356,-0.7659,-0.9009,-1.0255,-1.1475,-1.1832,-1.2083,-1.2184,-1.2305,-1.2305,-1.2405,-1.2685,-1.2959,-1.3227,-1.3554,-1.3841,-3.5489,-3.5489,-3.5489,-3.5489,-3.5489,-3.5489,-3.5489,-3.5489,-3.5489,-3.5489,-3.5489,-3.5489,-3.5489,-3.5489,-3.54,-3.5474,-3.5489,-3.5429,-3.5444,-3.5344,-3.5279,-3.4423,-3.3045,-3.2105,-3.1289,-3.0455,-3.0063,-3.005,-2.9998,-2.9921,-2.9779,-2.9779,-2.9779,-2.9779,-2.9779,-2.9779,-2.9515,-2.9214,-2.9378,-2.9063,-2.876,-2.9043,-2.8953,-2.822,-2.7548,-2.6417,-2.4897,-2.2673,-2.0791,-1.8818,-1.8251,-1.811,-1.8086,-1.8154,-1.8301,-1.8584,-1.8643,-1.8613,-1.8608,-1.8164,-1.7345,-1.6267,-1.563,-1.4983,-1.4323,-1.4075,-1.4088,-1.4088,-1.4088,-1.3997,-1.3997,-1.3997,-1.3555,-1.2681,-1.2413,-1.1986,-1.1052,-0.9883,-0.9112,-0.8982,-0.8009,-0.7401,-0.7228,-0.7139,-0.7139,-0.7139,-0.7129,-0.7044,-0.6926,-0.6834,-0.6678,-0.6481,-0.6369,-0.6288,-0.6274,-0.6251,-0.624,-0.6224,-0.6318,-0.6707,-0.8153,-0.9419,-1.0569,-1.1461,-1.1919,-1.2224,-1.2245,-1.2305,-1.2345,-1.2572,-1.2886,-1.31,-1.3327,-1.3707,-1.4035,-3.5489,-3.5489,-3.5489,-3.5489,-3.5489,-3.5489,-3.5489,-3.5489,-3.5489,-3.5489,-3.5489,-3.5489,-3.5489,-3.5489,-3.5489,-3.5489,-3.5489,-3.5489,-3.5489,-3.5489,-3.5489,-3.5359,-3.4624,-3.3754,-3.2905,-3.2055,-3.1188,-3.0895,-3.0758,-3.0203,-2.9792,-2.9792,-2.9779,-2.9779,-2.9779,-2.9779,-2.9767,-2.9628,-2.9731,-2.9642,-2.9441,-2.9567,-2.9414,-2.8674,-2.7975,-2.6517,-2.5101,-2.4952,-2.3431,-2.0404,-1.8706,-1.8427,-1.8757,-1.8662,-1.8721,-1.8936,-1.8929,-1.8909,-1.9029,-1.8803,-1.8037,-1.6608,-1.5973,-1.5231,-1.4223,-1.4088,-1.4088,-1.4088,-1.4088,-1.4088,-1.4088,-1.4088,-1.3906,-1.3646,-1.3561,-1.3561,-1.3033,-1.1461,-1.0341,-1.0,-0.9213,-0.8515,-0.8364,-0.7489,-0.7228,-0.7139,-0.7112,-0.7068,-0.6993,-0.6905,-0.6759,-0.6583,-0.6491,-0.642,-0.6373,-0.6352,-0.6339,-0.6342,-0.643,-0.7202,-0.8627,-0.9527,-1.0507,-1.1421,-1.2164,-1.2298,-1.2305,-1.2458,-1.2525,-1.2806,-1.3066,-1.328,-1.3527,-1.3895,-1.4088,-3.5489,-3.5489,-3.5489,-3.5489,-3.5489,-3.5489,-3.5489,-3.5489,-3.5489,-3.5489,-3.5489,-3.5489,-3.5489,-3.5489,-3.5489,-3.5489,-3.5489,-3.5489,-3.5489,-3.5489,-3.5489,-3.5489,-3.5439,-3.5016,-3.4346,-3.3718,-3.2475,-3.1756,-3.118,-3.0758,-3.0279,-2.9792,-2.9779,-2.9779,-2.9779,-2.9779,-2.9779,-2.9767,-2.9779,-2.9779,-2.9819,-2.9782,-2.953,-2.9101,-2.8637,-2.7656,-2.6092,-2.4116,-2.3046,-2.1575,-2.0086,-1.9136,-1.9238,-1.9092,-1.9102,-1.9252,-1.9315,-1.9088,-1.9092,-1.9306,-1.8722,-1.6627,-1.6373,-1.5561,-1.458,-1.4088,-1.4088,-1.4088,-1.4088,-1.4088,-1.4088,-1.4088,-1.4088,-1.4088,-1.4088,-1.4088,-1.3822,-1.2486,-1.1348,-1.1031,-0.9913,-0.9139,-0.8536,-0.7841,-0.7316,-0.7139,-0.7139,-0.7099,-0.7065,-0.6976,-0.6885,-0.6749,-0.6644,-0.6563,-0.6498,-0.6464,-0.6444,-0.6458,-0.6502,-0.7672,-0.9168,-0.971,-1.0302,-1.1292,-1.2378,-1.2305,-1.2338,-1.2512,-1.2692,-1.2826,-1.3053,-1.338,-1.3667,-1.3915,-1.4041,-3.5619,-3.5489,-3.5489,-3.5489,-3.5489,-3.5489,-3.5489,-3.5489,-3.5489,-3.5489,-3.5489,-3.5489,-3.5489,-3.5489,-3.5489,-3.5489,-3.5489,-3.5489,-3.5489,-3.5489,-3.5489,-3.5489,-3.5439,-3.5389,-3.5296,-3.5263,-3.3662,-3.2478,-3.196,-3.1402,-3.097,-3.0203,-3.0075,-2.9998,-2.9856,-2.9779,-2.9779,-2.9779,-2.9779,-2.9779,-2.9779,-2.9754,-2.9515,-2.9264,-2.9366,-2.8649,-2.6773,-2.4705,-2.2757,-2.3147,-2.1595,-2.0342,-1.9757,-1.9394,-1.9453,-1.9463,-1.957,-1.9442,-1.934,-1.9482,-1.8798,-1.6446,-1.6686,-1.6191,-1.4788,-1.4156,-1.4021,-1.4068,-1.4088,-1.4088,-1.4088,-1.4088,-1.4088,-1.4088,-1.4088,-1.4088,-1.3913,-1.3203,-1.2681,-1.2328,-1.0854,-0.9643,-0.8877,-0.8189,-0.7577,-0.7139,-0.7139,-0.7132,-0.7099,-0.7054,-0.6963,-0.6885,-0.678,-0.6675,-0.6607,-0.6808,-0.6781,-0.6926,-0.6866,-0.8191,-0.9685,-1.0375,-1.0982,-1.1771,-1.2465,-1.2458,-1.2538,-1.2759,-1.2879,-1.2886,-1.3173,-1.3627,-1.3828,-1.3935,-1.4015,-3.6054,-3.5489,-3.5489,-3.5489,-3.5489,-3.5489,-3.5489,-3.5489,-3.5489,-3.5489,-3.5489,-3.5489,-3.5489,-3.5489,-3.5489,-3.5489,-3.5489,-3.5489,-3.5489,-3.5489,-3.5489,-3.5489,-3.5489,-3.5504,-3.5499,-3.5207,-3.4341,-3.3602,-3.3241,-3.2735,-3.1888,-3.1193,-3.0908,-3.062,-3.0075,-2.9779,-2.9779,-2.9779,-2.9779,-2.9779,-2.9779,-2.9767,-2.9741,-2.9566,-2.9693,-2.8774,-2.7729,-2.7543,-2.6479,-2.2703,-2.1261,-2.0605,-2.0242,-1.9971,-1.9971,-2.0,-1.9752,-1.9669,-1.9727,-1.901,-1.8554,-1.7765,-1.7047,-1.6094,-1.4926,-1.4227,-1.3958,-1.4035,-1.4088,-1.4088,-1.4088,-1.4088,-1.4088,-1.4088,-1.4088,-1.4088,-1.4004,-1.3822,-1.3646,-1.3379,-1.1707,-1.0139,-0.9474,-0.8619,-0.7753,-0.7228,-0.7139,-0.7139,-0.7122,-0.7183,-0.7225,-0.7066,-0.6905,-0.68,-0.6705,-0.6954,-0.7154,-0.7613,-0.7871,-0.8888,-1.0161,-1.1002,-1.1837,-1.2499,-1.2826,-1.2852,-1.2959,-1.3046,-1.318,-1.3273,-1.3587,-1.3908,-1.3968,-1.4015,-1.4035,-3.6753,-3.6039,-3.6054,-3.5831,-3.5554,-3.5489,-3.5489,-3.5489,-3.5489,-3.5489,-3.5489,-3.5489,-3.5489,-3.5489,-3.5489,-3.5489,-3.5489,-3.5489,-3.5489,-3.5489,-3.5489,-3.5489,-3.5489,-3.5489,-3.5489,-3.5359,-3.4986,-3.4461,-3.4027,-3.3587,-3.2806,-3.2033,-3.1462,-3.097,-3.0495,-3.0075,-2.9856,-2.9779,-2.9779,-2.9779,-2.9779,-2.9779,-2.9779,-2.9779,-2.9729,-2.9062,-2.8102,-2.7567,-2.6581,-2.3702,-2.1593,-2.0791,-2.0554,-2.0391,-2.0234,-2.0195,-2.0033,-1.9718,-1.9668,-1.8817,-1.8303,-1.7147,-1.6446,-1.5576,-1.4641,-1.3913,-1.3781,-1.3995,-1.4088,-1.4088,-1.4088,-1.4088,-1.4088,-1.4088,-1.4088,-1.4088,-1.4088,-1.4088,-1.4088,-1.399,-1.2638,-1.1166,-1.0255,-0.9226,-0.8009,-0.7489,-0.7228,-0.7228,-0.7228,-0.7647,-0.7967,-0.8024,-0.8123,-0.8235,-0.8123,-0.8151,-0.815,-0.8385,-0.895,-0.9906,-1.0795,-1.1729,-1.2447,-1.312,-1.3214,-1.3233,-1.3146,-1.316,-1.3407,-1.3539,-1.3728,-1.3854,-1.4001,-1.4088,-1.4088,-3.7557,-3.6843,-3.6843,-3.6523,-3.6022,-3.5973,-3.6037,-3.5879,-3.5612,-3.574,-3.591,-3.5683,-3.5619,-3.5668,-3.5554,-3.5489,-3.5489,-3.5489,-3.5489,-3.5489,-3.5489,-3.5489,-3.5489,-3.5489,-3.5489,-3.5489,-3.5424,-3.5067,-3.461,-3.4327,-3.3754,-3.289,-3.196,-3.1315,-3.1044,-3.0203,-2.9921,-2.9779,-2.9779,-2.9779,-2.9779,-2.9779,-2.9779,-2.9767,-2.9806,-2.9404,-2.8571,-2.7422,-2.637,-2.4453,-2.2413,-2.0717,-2.0787,-2.0712,-2.04,-2.0193,-2.0406,-1.9929,-1.9413,-1.8809,-1.8231,-1.7243,-1.6346,-1.5304,-1.4489,-1.3999,-1.3768,-1.4008,-1.4088,-1.4088,-1.4088,-1.4088,-1.4088,-1.4088,-1.4088,-1.4088,-1.4088,-1.4088,-1.4088,-1.3711,-1.3037,-1.202,-1.0859,-0.9575,-0.8277,-0.7665,-0.7489,-0.7841,-0.8013,-0.8882,-0.9213,-0.9401,-0.9634,-0.9962,-0.9961,-0.9785,-0.9691,-0.9723,-1.0274,-1.1032,-1.1787,-1.2457,-1.3067,-1.3579,-1.3532,-1.354,-1.3407,-1.336,-1.3634,-1.3788,-1.3754,-1.3821,-1.4008,-1.4088,-1.4088,-3.8358,-3.7632,-3.769,-3.7573,-3.7472,-3.7472,-3.7472,-3.7306,-3.6137,-3.6304,-3.7251,-3.6211,-3.6037,-3.6165,-3.5846,-3.5619,-3.5489,-3.5604,-3.5554,-3.5489,-3.5489,-3.5489,-3.5489,-3.5489,-3.5489,-3.5489,-3.5489,-3.5504,-3.5213,-3.5133,-3.4773,-3.3822,-3.289,-3.2019,-3.1315,-3.0342,-2.9779,-2.9779,-2.9779,-2.9779,-2.9779,-2.9779,-2.9779,-2.9793,-2.9732,-2.944,-2.853,-2.7284,-2.6285,-2.5829,-2.2626,-2.1259,-2.1546,-2.1001,-2.0712,-2.0572,-2.0587,-2.0551,-2.0032,-1.9036,-1.8414,-1.7622,-1.6534,-1.5615,-1.4706,-1.402,-1.3721,-1.4048,-1.4088,-1.4088,-1.4088,-1.4088,-1.4088,-1.4088,-1.4088,-1.4088,-1.4088,-1.4088,-1.4088,-1.4082,-1.3516,-1.231,-1.1128,-0.9749,-0.854,-0.8101,-0.7837,-0.8364,-0.8973,-0.9836,-1.0707,-1.0977,-1.1058,-1.1472,-1.1632,-1.1379,-1.1305,-1.1123,-1.1605,-1.2161,-1.2632,-1.3118,-1.3555,-1.3941,-1.3888,-1.3808,-1.3681,-1.3714,-1.3921,-1.3961,-1.3921,-1.3968,-1.4062,-1.4088,-1.4088,-3.9156,-3.8414,-3.8414,-3.8206,-3.7822,-3.7822,-3.7822,-3.7764,-3.7456,-3.744,-3.7738,-3.7531,-3.7077,-3.6707,-3.6646,-3.6321,-3.5797,-3.5958,-3.5831,-3.5554,-3.5554,-3.5489,-3.5489,-3.5489,-3.5489,-3.5489,-3.5489,-3.5489,-3.5489,-3.5504,-3.5213,-3.4773,-3.3837,-3.2947,-3.1893,-3.0511,-2.9948,-2.9756,-2.9779,-2.9779,-2.9779,-2.9779,-2.9779,-2.9767,-2.9771,-2.9238,-2.8296,-2.7217,-2.651,-2.6019,-2.3587,-2.2125,-2.1824,-2.1155,-2.0566,-2.0605,-2.0611,-2.0451,-1.9959,-1.872,-1.8385,-1.7849,-1.6501,-1.496,-1.4349,-1.3852,-1.3621,-1.4055,-1.4082,-1.4088,-1.4088,-1.4088,-1.4088,-1.4088,-1.4088,-1.4088,-1.4088,-1.4088,-1.4088,-1.4088,-1.3997,-1.2863,-1.1992,-1.13,-1.0183,-0.9401,-0.9314,-0.9749,-1.0265,-1.095,-1.1826,-1.2711,-1.279,-1.2863,-1.2948,-1.2911,-1.2899,-1.2778,-1.2863,-1.3256,-1.3353,-1.3815,-1.3997,-1.4088,-1.4015,-1.3948,-1.3895,-1.3935,-1.4021,-1.4055,-1.4082,-1.4088,-1.4088,-1.4102,-1.4195,-3.9563,-3.9209,-3.9209,-3.8887,-3.8358,-3.8196,-3.8212,-3.8479,-3.8788,-3.8755,-3.8553,-3.8707,-3.8174,-3.7222,-3.7397,-3.7131,-3.6196,-3.6646,-3.6415,-3.6006,-3.5718,-3.5668,-3.5554,-3.5489,-3.5489,-3.5489,-3.5489,-3.5489,-3.5489,-3.5489,-3.5504,-3.5424,-3.4327,-3.3656,-3.2582,-3.097,-2.9751,-2.9821,-2.9781,-2.9779,-2.9779,-2.9779,-2.9779,-2.9768,-2.9656,-2.9263,-2.8174,-2.7095,-2.6498,-2.6103,-2.4467,-2.3003,-2.2456,-2.1375,-2.0644,-2.0605,-2.0609,-2.0327,-1.9811,-1.8986,-1.8316,-1.7504,-1.6329,-1.4733,-1.3528,-1.3227,-1.3454,-1.4041,-1.4082,-1.4088,-1.4088,-1.4088,-1.4088,-1.4088,-1.4088,-1.4088,-1.4088,-1.4088,-1.4088,-1.4088,-1.3997,-1.373,-1.3033,-1.2857,-1.2077,-1.0956,-1.0783,-1.1133,-1.1563,-1.2163,-1.2687,-1.3574,-1.3568,-1.3561,-1.3646,-1.3822,-1.4082,-1.4088,-1.4088,-1.4082,-1.3906,-1.3906,-1.4082,-1.4088,-1.4088,-1.4062,-1.3988,-1.4041,-1.4088,-1.4088,-1.4088,-1.4088,-1.4095,-1.4135,-1.4376,-3.9462,-4.002,-3.9986,-3.9935,-3.9817,-3.9177,-3.9312,-3.9747,-3.9874,-3.9876,-3.9711,-3.9867,-3.9021,-3.8091,-3.7921,-3.7863,-3.7589,-3.769,-3.7219,-3.6737,-3.6492,-3.6024,-3.5721,-3.5494,-3.5489,-3.5489,-3.5489,-3.5489,-3.5489,-3.5489,-3.5489,-3.5344,-3.4691,-3.4163,-3.3141,-3.1504,-3.0124,-2.9894,-2.9796,-2.9779,-2.9779,-2.9779,-2.9779,-2.9793,-2.9682,-2.9277,-2.8176,-2.7344,-2.6569,-2.6485,-2.4422,-2.3503,-2.287,-2.142,-2.0615,-2.0615,-2.0595,-2.0299,-1.9781,-1.9336,-1.8697,-1.7726,-1.6288,-1.4652,-1.3352,-1.3186,-1.35,-1.3955,-1.4035,-1.4088,-1.4088,-1.4088,-1.4088,-1.4088,-1.4088,-1.4088,-1.4088,-1.4088,-1.4088,-1.4088,-1.3997,-1.3822,-1.3815,-1.347,-1.3124,-1.1997,-1.1997,-1.2345,-1.2869,-1.3385,-1.3561,-1.4004,-1.4004,-1.3997,-1.3997,-1.4088,-1.4088,-1.4088,-1.4088,-1.4088,-1.4082,-1.4088,-1.4088,-1.4088,-1.4088,-1.4088,-1.4088,-1.4088,-1.4088,-1.4088,-1.4115,-1.4215,-1.4322,-1.4416,-1.473,-3.8751,-3.9411,-3.9411,-3.9681,-4.007,-3.9783,-3.9817,-4.007,-4.0104,-4.0104,-4.0087,-4.0052,-3.9531,-3.881,-3.8995,-3.8668,-3.7994,-3.8302,-3.7905,-3.7322,-3.6859,-3.6215,-3.5715,-3.5503,-3.5489,-3.5474,-3.5474,-3.5489,-3.5489,-3.5489,-3.5489,-3.5279,-3.4986,-3.4528,-3.35,-3.2414,-3.1143,-2.9964,-2.9783,-2.9767,-2.9779,-2.9779,-2.9779,-2.9754,-2.9771,-2.9618,-2.915,-2.8818,-2.7797,-2.6257,-2.4128,-2.3496,-2.3036,-2.1349,-2.0575,-2.0557,-2.0566,-2.0438,-2.0085,-1.9477,-1.8442,-1.6537,-1.5468,-1.4605,-1.3319,-1.3093,-1.338,-1.3714,-1.3995,-1.4082,-1.4088,-1.4088,-1.4088,-1.4088,-1.4088,-1.4088,-1.4088,-1.4088,-1.4088,-1.4088,-1.4088,-1.3997,-1.3997,-1.3997,-1.3561,-1.3045,-1.33,-1.3561,-1.3906,-1.4088,-1.4088,-1.4088,-1.4088,-1.4088,-1.4088,-1.4088,-1.4088,-1.4088,-1.4088,-1.4088,-1.4088,-1.4088,-1.4088,-1.4088,-1.4088,-1.4088,-1.4088,-1.4088,-1.4088,-1.4088,-1.4255,-1.4462,-1.4569,-1.4649,-1.497,-3.799,-3.865,-3.865,-3.9225,-3.9969,-3.9614,-3.9698,-3.9969,-3.9563,-3.9749,-4.007,-4.007,-3.9833,-3.9558,-3.9731,-3.9627,-3.8887,-3.8995,-3.8707,-3.8246,-3.7594,-3.6617,-3.5968,-3.5717,-3.5774,-3.5608,-3.5524,-3.5489,-3.5489,-3.5489,-3.5489,-3.5489,-3.5424,-3.4986,-3.4578,-3.372,-3.2282,-3.0385,-2.9806,-2.9756,-2.9806,-2.9779,-2.9779,-2.9767,-2.9808,-2.9796,-2.9643,-2.9391,-2.8405,-2.6729,-2.4874,-2.3561,-2.26,-2.1665,-2.0757,-2.0595,-2.0557,-2.0518,-2.0205,-1.9454,-1.8197,-1.6518,-1.5593,-1.4691,-1.3665,-1.3328,-1.3507,-1.3641,-1.3908,-1.4088,-1.4088,-1.4088,-1.4088,-1.4088,-1.4088,-1.4088,-1.4088,-1.4088,-1.4088,-1.4088,-1.4088,-1.4088,-1.4088,-1.4095,-1.3939,-1.358,-1.3652,-1.3822,-1.3913,-1.4088,-1.4088,-1.4088,-1.4088,-1.4088,-1.4088,-1.4088,-1.4088,-1.4088,-1.4088,-1.4088,-1.4088,-1.4088,-1.4088,-1.4088,-1.4088,-1.4088,-1.4088,-1.4088,-1.4088,-1.4088,-1.4262,-1.4429,-1.4623,-1.471,-1.501,-3.7246,-3.7905,-3.7939,-3.8734,-3.9715,-3.8548,-3.8751,-3.9648,-3.8836,-3.8971,-4.002,-4.0087,-4.007,-4.002,-4.0087,-3.9901,-3.9799,-3.9833,-3.9558,-3.8962,-3.8476,-3.7408,-3.6672,-3.6292,-3.608,-3.5596,-3.551,-3.5489,-3.5489,-3.5489,-3.5489,-3.5489,-3.5489,-3.5424,-3.5419,-3.5436,-3.3449,-3.045,-3.0215,-2.9795,-2.9986,-2.9921,-2.9779,-2.9767,-2.982,-2.9821,-2.9821,-2.977,-2.8656,-2.6697,-2.6153,-2.4673,-2.2619,-2.2052,-2.1298,-2.0546,-2.0585,-2.0322,-1.9912,-1.9286,-1.8291,-1.7045,-1.611,-1.5014,-1.4275,-1.3831,-1.3486,-1.3641,-1.3908,-1.4062,-1.4088,-1.4088,-1.4088,-1.4088,-1.4088,-1.4088,-1.4088,-1.4088,-1.4088,-1.4088,-1.4088,-1.4088,-1.4095,-1.4102,-1.4128,-1.4037,-1.4095,-1.4088,-1.4095,-1.4088,-1.4088,-1.4088,-1.4088,-1.4088,-1.4088,-1.4088,-1.4088,-1.4088,-1.4088,-1.4088,-1.4088,-1.4088,-1.4088,-1.4088,-1.4088,-1.4088,-1.4088,-1.4095,-1.4202,-1.4309,-1.4182,-1.4302,-1.4522,-1.4816,-1.515,-3.6795,-3.7161,-3.7161,-3.7736,-3.8497,-3.8159,-3.821,-3.8715,-3.9103,-3.9628,-4.0036,-4.0087,-4.0087,-4.0087,-4.0087,-4.0087,-4.0087,-4.0087,-3.9782,-3.9662,-3.9209,-3.9028,-3.8216,-3.715,-3.6289,-3.5646,-3.5509,-3.5554,-3.5489,-3.5489,-3.5489,-3.5489,-3.5489,-3.5489,-3.5493,-3.5459,-3.4485,-3.3241,-3.1546,-3.0018,-3.0581,-3.0139,-2.9779,-2.9779,-2.977,-2.9732,-2.9631,-2.9615,-2.8469,-2.6816,-2.6527,-2.5487,-2.3464,-2.2818,-2.122,-2.0414,-2.0127,-1.9785,-1.9385,-1.8918,-1.8699,-1.7606,-1.6319,-1.5274,-1.4668,-1.3724,-1.3581,-1.3654,-1.3915,-1.4048,-1.4088,-1.4088,-1.4088,-1.4088,-1.4088,-1.4088,-1.4088,-1.4088,-1.4088,-1.4088,-1.4088,-1.4108,-1.4122,-1.4315,-1.4376,-1.4322,-1.4309,-1.4182,-1.4148,-1.4108,-1.4095,-1.4088,-1.4088,-1.4088,-1.4102,-1.4235,-1.4208,-1.4162,-1.4128,-1.4088,-1.4088,-1.4088,-1.4088,-1.4088,-1.4088,-1.4088,-1.4155,-1.4249,-1.4476,-1.4556,-1.4502,-1.4636,-1.4997,-1.5211,-1.5364,-3.6492,-3.6648,-3.6457,-3.6654,-3.7127,-3.7398,-3.7635,-3.8156,-3.9438,-4.0118,-4.0104,-4.0087,-4.0087,-4.0087,-4.0087,-4.0087,-4.0087,-4.0087,-4.0087,-4.002,-3.9594,-3.9561,-3.9221,-3.8258,-3.6864,-3.5983,-3.5788,-3.5831,-3.5489,-3.5489,-3.5489,-3.5489,-3.5489,-3.5489,-3.5463,-3.5444,-3.5398,-3.4528,-3.3098,-3.169,-3.1211,-3.0406,-2.9779,-2.9819,-2.9744,-2.9606,-2.925,-2.8667,-2.8053,-2.6914,-2.6355,-2.6091,-2.48,-2.3305,-2.1681,-2.0815,-1.9836,-1.9566,-1.9346,-1.8926,-1.8711,-1.8377,-1.6724,-1.5617,-1.5034,-1.4223,-1.3669,-1.3721,-1.3941,-1.4035,-1.4088,-1.4088,-1.4088,-1.4088,-1.4088,-1.4088,-1.4108,-1.4108,-1.4182,-1.4175,-1.4135,-1.4148,-1.4235,-1.4482,-1.4669,-1.4603,-1.4536,-1.4396,-1.4255,-1.4215,-1.4215,-1.4229,-1.4289,-1.4369,-1.4442,-1.4536,-1.4456,-1.4269,-1.4215,-1.4188,-1.4088,-1.4088,-1.4088,-1.4088,-1.4095,-1.4142,-1.4262,-1.4416,-1.4663,-1.4856,-1.495,-1.5164,-1.5511,-1.5551,-1.5545,-3.6433,-3.635,-3.5827,-3.5673,-3.5791,-3.6468,-3.7161,-3.7973,-3.9353,-3.9966,-4.0087,-4.0087,-4.0087,-4.0087,-4.0087,-4.0087,-4.0087,-4.0087,-4.0087,-4.0087,-3.9901,-4.0087,-3.9811,-3.9044,-3.7792,-3.6656,-3.609,-3.6054,-3.5554,-3.5489,-3.5489,-3.5489,-3.5489,-3.5489,-3.5469,-3.5463,-3.5474,-3.5122,-3.379,-3.2513,-3.1576,-3.0355,-2.9858,-2.9718,-2.9656,-2.9315,-2.8711,-2.764,-2.6962,-2.647,-2.642,-2.6449,-2.579,-2.4499,-2.2977,-2.1356,-1.9912,-1.957,-1.9355,-1.8857,-1.8857,-1.8547,-1.7453,-1.648,-1.5658,-1.4757,-1.4172,-1.3877,-1.3961,-1.4028,-1.4088,-1.4088,-1.4088,-1.4088,-1.4088,-1.4108,-1.4135,-1.4195,-1.4295,-1.4302,-1.4235,-1.4269,-1.4442,-1.4663,-1.4856,-1.4983,-1.491,-1.479,-1.4636,-1.4422,-1.4436,-1.4409,-1.4488,-1.4635,-1.4708,-1.4823,-1.473,-1.4549,-1.4429,-1.4376,-1.4242,-1.4115,-1.4088,-1.4095,-1.4108,-1.4215,-1.4469,-1.4676,-1.487,-1.5057,-1.5297,-1.5357,-1.5591,-1.5571,-1.5565,-3.6764,-3.6333,-3.581,-3.5639,-3.5656,-3.5876,-3.6688,-3.7889,-3.841,-3.9037,-4.0087,-4.0087,-3.9952,-4.0087,-4.0087,-4.0037,-4.0037,-4.0087,-4.0087,-4.0054,-3.9969,-4.0069,-3.9859,-3.9371,-3.878,-3.8232,-3.7418,-3.6384,-3.5653,-3.5489,-3.5489,-3.5489,-3.5415,-3.5429,-3.5474,-3.5489,-3.5463,-3.4986,-3.3492,-3.2552,-3.1729,-3.0581,-2.9923,-2.9416,-2.9541,-2.9259,-2.8809,-2.7297,-2.6631,-2.6464,-2.6446,-2.6477,-2.6353,-2.4571,-2.2652,-2.0151,-1.9216,-1.8779,-1.8672,-1.8896,-1.8936,-1.8433,-1.7428,-1.6882,-1.6156,-1.5405,-1.4564,-1.4178,-1.3988,-1.4062,-1.4088,-1.4088,-1.4088,-1.4088,-1.4095,-1.4128,-1.4168,-1.4242,-1.4355,-1.4509,-1.4442,-1.4416,-1.4596,-1.4763,-1.4963,-1.5217,-1.5271,-1.5097,-1.497,-1.4743,-1.4629,-1.4601,-1.4708,-1.4827,-1.492,-1.496,-1.495,-1.4836,-1.473,-1.4603,-1.4456,-1.4322,-1.4162,-1.4155,-1.4262,-1.4502,-1.479,-1.497,-1.5124,-1.5431,-1.5658,-1.5638,-1.5625,-1.5625,-1.5638,-3.7268,-3.6886,-3.6207,-3.581,-3.5622,-3.5639,-3.6349,-3.7381,-3.778,-3.873,-3.9952,-3.9445,-3.9377,-3.9529,-3.9309,-3.914,-3.9123,-3.9089,-3.9208,-3.958,-3.9681,-3.9851,-3.9728,-3.9668,-3.9676,-3.93,-3.8376,-3.6974,-3.5887,-3.5494,-3.5489,-3.5474,-3.531,-3.5295,-3.5385,-3.5529,-3.5529,-3.4802,-3.3704,-3.2486,-3.1591,-3.0808,-2.9866,-2.9001,-2.9145,-2.9104,-2.8957,-2.7215,-2.6666,-2.6308,-2.6208,-2.5803,-2.5465,-2.3781,-2.1862,-1.9625,-1.8711,-1.8506,-1.8457,-1.8555,-1.8496,-1.8161,-1.753,-1.7055,-1.626,-1.5446,-1.4703,-1.4196,-1.4146,-1.4088,-1.4088,-1.4088,-1.4088,-1.4088,-1.4122,-1.4155,-1.4215,-1.4275,-1.4456,-1.4676,-1.4683,-1.4609,-1.4703,-1.4863,-1.499,-1.5104,-1.5117,-1.499,-1.4977,-1.4957,-1.485,-1.4843,-1.4963,-1.509,-1.5099,-1.5212,-1.5251,-1.5177,-1.5084,-1.4937,-1.4736,-1.4609,-1.4516,-1.4482,-1.4482,-1.4743,-1.5017,-1.5211,-1.5398,-1.5671,-1.5825,-1.5772,-1.5732,-1.5752,-1.5772,-3.7677,-3.7556,-3.6759,-3.5985,-3.5627,-3.5661,-3.6169,-3.6818,-3.7398,-3.852,-3.9393,-3.8531,-3.8396,-3.8768,-3.8464,-3.821,-3.8261,-3.8278,-3.8667,-3.8988,-3.9157,-3.9479,-3.9952,-4.0088,-3.999,-3.981,-3.9089,-3.7767,-3.6135,-3.5429,-3.5269,-3.5359,-3.4726,-3.4577,-3.4767,-3.5374,-3.5344,-3.4684,-3.431,-3.3522,-3.1844,-3.0868,-2.996,-2.8885,-2.8371,-2.8113,-2.7804,-2.7188,-2.6499,-2.6096,-2.5622,-2.5024,-2.3867,-2.258,-2.0722,-1.9626,-1.8615,-1.8379,-1.834,-1.8398,-1.8467,-1.828,-1.7917,-1.7247,-1.6288,-1.5551,-1.4816,-1.4223,-1.4082,-1.4088,-1.4088,-1.4088,-1.4088,-1.4088,-1.4108,-1.4195,-1.4295,-1.4376,-1.4522,-1.4676,-1.4643,-1.4583,-1.4596,-1.4736,-1.4877,-1.4963,-1.499,-1.4903,-1.4863,-1.4963,-1.4983,-1.4937,-1.511,-1.5264,-1.5524,-1.5611,-1.5591,-1.5524,-1.5378,-1.5157,-1.4877,-1.485,-1.4897,-1.477,-1.4649,-1.4937,-1.5197,-1.5398,-1.5565,-1.5712,-1.5825,-1.5825,-1.5825,-1.573,-1.5825,-3.6074,-3.6077,-3.6059,-3.5737,-3.539,-3.5966,-3.6412,-3.6751,-3.6293,-3.7055,-3.8142,-3.8058,-3.7956,-3.8058,-3.7872,-3.7702,-3.7753,-3.7635,-3.8311,-3.8667,-3.8819,-3.9156,-3.9935,-3.9884,-4.0017,-4.0071,-3.9561,-3.8449,-3.6568,-3.5509,-3.4727,-3.4667,-3.4122,-3.3796,-3.3839,-3.4574,-3.4787,-3.4277,-3.3877,-3.3354,-3.1874,-3.0328,-2.9119,-2.8257,-2.77,-2.7544,-2.7215,-2.676,-2.6471,-2.6314,-2.5393,-2.4201,-2.2696,-2.1261,-2.0006,-1.8983,-1.8535,-1.8369,-1.8281,-1.834,-1.8535,-1.8043,-1.7605,-1.6942,-1.628,-1.5701,-1.5039,-1.4489,-1.4088,-1.4088,-1.4088,-1.4088,-1.4088,-1.4088,-1.4095,-1.4229,-1.4362,-1.4469,-1.4583,-1.4583,-1.4556,-1.4529,-1.4516,-1.4596,-1.4743,-1.4856,-1.4943,-1.491,-1.4756,-1.4776,-1.4897,-1.4937,-1.5217,-1.5424,-1.5658,-1.5798,-1.5718,-1.5618,-1.5458,-1.5244,-1.5017,-1.4917,-1.485,-1.4823,-1.4823,-1.5117,-1.5378,-1.5585,-1.5738,-1.5812,-1.5825,-1.5825,-1.573,-1.5629,-1.573,-3.5836,-3.5828,-3.5749,-3.5522,-3.5307,-3.57,-3.6045,-3.6124,-3.5808,-3.6079,-3.6789,-3.6907,-3.7077,-3.7229,-3.7077,-3.6975,-3.6975,-3.6874,-3.7229,-3.7753,-3.8244,-3.8614,-3.9037,-3.9477,-3.9832,-3.9867,-3.9235,-3.8077,-3.6702,-3.5357,-3.4531,-3.4272,-3.3607,-3.3035,-3.3019,-3.3683,-3.3804,-3.3514,-3.302,-3.2295,-3.1495,-3.0268,-2.8825,-2.7965,-2.7233,-2.6981,-2.6829,-2.6389,-2.5791,-2.5289,-2.4259,-2.3096,-2.1838,-2.082,-1.9676,-1.8754,-1.8301,-1.8262,-1.8203,-1.834,-1.8682,-1.825,-1.7841,-1.7414,-1.6809,-1.6167,-1.5047,-1.4496,-1.4166,-1.4088,-1.4088,-1.4088,-1.4088,-1.4088,-1.4115,-1.4202,-1.4289,-1.4369,-1.4469,-1.4529,-1.4442,-1.4289,-1.4282,-1.4282,-1.4402,-1.4416,-1.4556,-1.4616,-1.4522,-1.4563,-1.4689,-1.4856,-1.5084,-1.5217,-1.5297,-1.5531,-1.5738,-1.5638,-1.5471,-1.5357,-1.515,-1.4917,-1.4776,-1.497,-1.5137,-1.5382,-1.5538,-1.5718,-1.5778,-1.5818,-1.5825,-1.5825,-1.573,-1.5439,-1.5242,-3.5807,-3.5897,-3.5587,-3.5312,-3.5122,-3.524,-3.5387,-3.5562,-3.5576,-3.5599,-3.5757,-3.5757,-3.6062,-3.618,-3.6011,-3.5774,-3.574,-3.6028,-3.6332,-3.6772,-3.6958,-3.7784,-3.834,-3.8642,-3.8831,-3.8601,-3.7986,-3.7469,-3.6686,-3.5192,-3.4135,-3.4017,-3.3389,-3.2617,-3.2661,-3.2407,-3.2065,-3.2512,-3.2243,-3.1542,-3.0898,-3.0355,-2.9026,-2.7816,-2.6854,-2.6508,-2.6496,-2.6158,-2.5216,-2.4002,-2.3071,-2.2104,-2.1206,-2.0347,-1.9414,-1.8494,-1.8105,-1.8076,-1.8076,-1.8281,-1.874,-1.8879,-1.8488,-1.7813,-1.7064,-1.6175,-1.5137,-1.4573,-1.425,-1.4088,-1.4088,-1.4088,-1.4088,-1.4088,-1.4128,-1.4148,-1.4208,-1.4269,-1.4362,-1.4456,-1.4382,-1.4208,-1.4208,-1.4188,-1.4135,-1.4122,-1.4088,-1.4088,-1.4142,-1.4289,-1.4429,-1.4603,-1.481,-1.491,-1.501,-1.5217,-1.5524,-1.5424,-1.5264,-1.5311,-1.5271,-1.501,-1.5023,-1.5411,-1.5565,-1.5571,-1.5638,-1.5778,-1.5825,-1.5825,-1.5825,-1.5825,-1.573,-1.5439,-1.4561,-3.3697,-3.4321,-3.4879,-3.4872,-3.4625,-3.5129,-3.5382,-3.5324,-3.5525,-3.5642,-3.5491,-3.5588,-3.5757,-3.5842,-3.574,-3.5639,-3.5639,-3.5639,-3.6113,-3.6705,-3.662,-3.7246,-3.7699,-3.7682,-3.729,-3.6827,-3.6477,-3.6374,-3.5921,-3.457,-3.3435,-3.297,-3.2205,-3.1524,-3.112,-3.1123,-3.1601,-3.175,-3.1632,-3.1058,-3.0613,-3.0003,-2.9232,-2.8051,-2.6876,-2.6659,-2.6493,-2.6515,-2.5098,-2.3652,-2.238,-2.1591,-2.0862,-2.0204,-1.9233,-1.8529,-1.8134,-1.8008,-1.8096,-1.8223,-1.8633,-1.8976,-1.8368,-1.7355,-1.6613,-1.5764,-1.4887,-1.4328,-1.4088,-1.4088,-1.4088,-1.4088,-1.4088,-1.4088,-1.4108,-1.4108,-1.4135,-1.428,-1.4433,-1.4595,-1.4616,-1.4596,-1.4583,-1.4489,-1.4322,-1.4269,-1.4135,-1.4122,-1.4088,-1.4142,-1.4202,-1.4369,-1.4563,-1.4763,-1.4923,-1.4977,-1.5164,-1.509,-1.5077,-1.513,-1.5124,-1.5044,-1.517,-1.5551,-1.5718,-1.5745,-1.5818,-1.5825,-1.5825,-1.5825,-1.5825,-1.5825,-1.573,-1.5248,-1.437]},{"header":{"parameterUnit":"m.s-1","parameterCategory":1,"la1":31.0,"la2":29.5877,"lo1":-88.7671,"lo2":-86.6584,"dy":0.0162,"dx":0.0185,"nx":115,"ny":88,"refTime":"2023-05-02T00:00:00:Z","depth":0,"parameterNumber":3,"parameterNumberName":"V-component_of_WINDS"},"data":[0.0,0.0,0.0,0.0,0.0,0.0,0.0,0.0,0.0,0.0,0.0,0.0,0.0,0.0,0.0,0.0,0.0,0.0,0.0,0.0,0.0,0.0,0.0,0.0,0.0,0.0,0.0,0.0,0.0,0.0,0.0,0.0,0.0,0.0,0.0,0.0,0.0,0.0,0.0,0.0,0.0,0.0,0.0,0.0,0.0,0.0,0.0,0.0,0.0,0.0,0.0,0.0,0.0,0.0,0.0,0.0,0.0,0.0,0.0,0.0,0.0,0.0,0.0,0.0,0.0,0.0,0.0,0.0,0.0,0.0,0.0,0.0,0.0,0.0,0.0,0.0,0.0,0.0,0.0,0.0,0.0,0.0,0.0,0.0,0.0,0.0,0.0,0.0,0.0,0.0,0.0,0.0,0.0,0.0,0.0,0.0,0.0,0.0,0.0,0.0,0.0,0.0,0.0,0.0,0.0,0.0,0.0,0.0,0.0,0.0,0.0,0.0,0.0,0.0,0.0,0.0,0.0,0.0,0.0,0.0,0.0,0.0,0.0,0.0,0.0,0.0,0.0,0.0,0.0,0.0,0.0,0.0,0.0,0.0,0.0,0.0,0.0,0.0,0.0,0.0,0.0,0.0,0.0,0.0,0.0,0.0,0.0,0.0,0.0,0.0,0.0,0.0,0.0,0.0,0.0,0.0,0.0,0.0,0.0,0.0,0.0,0.0,0.0,0.0,0.0,0.0,0.0,0.0,0.0,0.0,0.0,0.0,0.0,0.0,0.0,0.0,0.0,0.0,0.0,0.0,0.0,0.0,0.0,0.0,0.0,0.0,0.0,0.0,0.0,0.0,0.0,0.0,0.0,0.0,0.0,0.0,0.0,0.0,0.0,0.0,0.0,0.0,0.0,0.0,0.0,0.0,0.0,0.0,0.0,0.0,0.0,0.0,0.0,0.0,0.0,0.0,0.0,0.0,0.0,0.0,0.0,0.0,0.0,0.0,0.0,0.0,0.0,0.0,0.0,0.0,0.0,0.0,0.0,0.0,0.0,0.0,0.0,0.0,0.0,0.0,0.0,0.0,0.0,0.0,0.0,0.0,0.0,0.0,0.0,0.0,0.0,0.0,0.0,0.0,0.0,0.0,0.0,0.0,0.0,0.0,0.0,0.0,0.0,0.0,0.0,0.0,0.0,0.0,0.0,0.0,0.0,0.0,0.0,0.0,0.0,0.0,0.0,0.0,0.0,0.0,0.0,0.0,0.0,0.0,0.0,0.0,0.0,0.0,0.0,0.0,0.0,0.0,0.0,0.0,0.0,0.0,0.0,0.0,0.0,0.0,0.0,0.0,0.0,0.0,0.0,0.0,0.0,0.0,0.0,0.0,0.0,0.0,0.0,0.0,0.0,0.0,0.0,0.0,0.0,0.0,0.0,0.0,0.0,0.0,0.0,0.0,0.0,0.0,0.0,0.0,0.0,0.0,0.0,0.0,0.0,0.0,0.0,0.0,0.0,0.0,0.0,0.0,0.0,0.0,0.0,0.0,0.0,0.0,0.0,0.0,0.0,0.0,0.0,0.0,0.0,0.0,0.0,0.0,0.0,0.0,0.0,0.0,0.0,0.0,0.0,0.0,0.0,0.0,0.0,0.0,0.0,0.0,0.0,0.0,0.0,0.0,0.0,0.0,0.0,0.0,0.0,0.0,0.0,0.0,0.0,0.0,0.0,0.0,0.0,0.0,0.0,0.0,0.0,0.0,0.0,0.0,0.0,0.0,0.0,0.0,0.0,0.0,0.0,0.0,0.0,0.0,0.0,0.0,0.0,0.0,0.0,0.0,0.0,0.0,0.0,0.0,0.0,0.0,0.0,0.0,0.0,0.0,0.0,0.0,0.0,0.0,0.0,0.0,0.0,0.0,0.0,0.0,0.0,0.0,0.0,0.0,0.0,0.0,0.0,0.0,0.0,0.0,0.0,0.0,0.0,0.0,0.0,0.0,0.0,0.0,0.0,0.0,0.0,0.0,0.0,0.0,0.0,0.0,0.0,0.0,0.0,0.0,0.0,0.0,0.0,0.0,0.0,0.0,0.0,0.0,0.0,0.0,0.0,0.0,0.0,0.0,0.0,0.0,0.0,0.0,0.0,0.0,0.0,0.0,0.0,0.0,0.0,0.0,0.0,0.0,0.0,0.0,0.0,0.0,0.0,0.0,0.0,0.0,0.0,0.0,0.0,0.0,0.0,0.0,0.0,0.0,0.0,0.0,0.0,0.0,0.0,0.0,0.0,0.0,0.0,0.0,0.0,0.0,0.0,0.0,0.0,0.0,0.0,0.0,0.0,0.0,0.0,0.0,0.0,0.0,0.0,0.0,0.0,0.0,0.0,0.0,0.0,0.0,0.0,0.0,0.0,0.0,0.0,0.0,0.0,0.0,0.0,0.0,0.0,0.0,0.0,0.0,0.0,0.0,0.0,0.0,0.0,0.0,0.0,0.0,0.0,0.0,0.0,0.0,0.0,0.0,0.0,0.0,0.0,0.0,0.0,0.0,0.0,0.0,0.0,0.0,0.0,0.0,0.0,0.0,0.0,0.0,0.0,0.0,0.0,0.0,0.0,0.0,0.0,0.0,0.0,0.0,0.0,0.0,0.0,0.0,0.0,0.0,0.0,0.0,0.0,0.0,0.0,0.0,0.0,0.0,0.0,0.0,0.0,0.0,0.0,0.0,0.0,0.0,0.0,0.0,0.0,0.0,0.0,0.0,0.0,0.0,0.0,0.0,0.0,0.0,0.0,0.0,0.0,0.0,0.0,0.0,0.0,0.0,0.0,0.0,0.0,0.0,0.0,0.0,0.0,0.0,0.0,0.0,0.0,0.0,0.0,0.0,0.0,0.0,0.0,0.0,0.0,0.0,0.0,0.0,0.0,0.0,0.0,0.0,0.0,0.0,0.0,0.0,0.0,0.0,0.0,0.0,0.0,0.0,0.0,0.0,0.0,0.0,0.0,0.0,0.0,0.0,0.0,0.0,0.0,0.0,0.0,0.0,0.0,0.0,0.0,0.0,0.0,0.0,0.0,0.0,0.0,0.0,0.0,0.0,0.0,0.0,0.0,0.0,0.0,0.0,0.0,0.0,0.0,0.0,0.0,0.0,0.0,0.0,0.0,0.0,0.0,0.0,0.0,0.0,0.0,0.0,0.0,0.0,0.0,0.0,0.0,0.0,0.0,0.0,0.0,0.0,0.0,0.0,0.0,0.0,0.0,0.0,0.0,0.0,0.0,0.0,0.0,0.0,0.0,0.0,0.0,0.0,0.0,0.0,0.0,0.0,0.0,0.0,0.0,0.0,0.0,0.0,0.0,0.0,0.0,0.0,0.0,0.0,0.0,0.0,0.0,0.0,0.0,0.0,0.0,0.0,0.0,0.0,0.0,0.0,0.0,0.0,0.0,0.0,0.0,0.0,0.0,0.0,0.0,0.0,0.0,0.0,0.0,0.0,0.0,0.0,0.0,0.0,0.0,0.0,0.0,0.0,0.0,0.0,0.0,0.0,0.0,0.0,0.0,0.0,0.0,0.0,0.0,0.0,0.0,0.0,0.0,0.0,0.0,0.0,0.0,0.0,0.0,0.0,0.0,0.0,0.0,0.0,0.0,0.0,0.0,0.0,0.0,0.0,0.0,0.0,0.0,0.0,0.0,0.0,0.0,0.0,0.0,0.0,0.0,0.0,0.0,0.0,0.0,0.0,0.0,0.0,0.0,0.0,0.0,0.0,0.0,0.0,0.0,0.0,0.0,0.0,0.0,0.0,0.0,0.0,0.0,0.0,0.0,0.0,0.0,0.0,0.0,0.0,0.0,0.0,0.0,0.0,0.0,0.0,0.0,0.0,0.0,0.0,0.0,0.0,0.0,0.0,0.0,0.0,0.0,0.0,0.0,0.0,0.0,0.0,0.0,0.0,0.0,0.0,0.0,0.0,0.0,0.0,0.0,0.0,0.0,0.0,0.0,0.0,0.0,0.0,0.0,0.0,0.0,0.0,0.0,0.0,0.0,0.0,0.0,0.0,0.0,0.0,0.0,0.0,0.0,0.0,0.0,0.0,0.0,0.0,0.0,0.0,0.0,0.0,0.0,0.0,0.0,0.0,0.0,0.0,0.0,0.0,0.0,0.0,0.0,0.0,0.0,0.0,0.0,0.0,0.0,0.0,0.0,0.0,0.0,0.0,0.0,0.0,0.0,0.0,0.0,0.0,0.0,0.0,0.0,0.0,0.0,0.0,0.0,0.0,0.0,0.0,-0.8871,0.0,0.0,0.0,0.0,0.0,0.0,0.0,0.0,0.0,0.0,0.0,0.0,0.0,0.0,0.0,0.0,0.0,0.0,0.0,0.0,0.0,0.0,0.0,0.0,0.0,0.0,0.0,0.0,0.0,0.0,0.0,0.0,0.0,0.0,0.0,0.0,0.0,0.0,0.0,0.0,0.0,0.0,0.0,0.0,0.0,0.0,0.0,0.0,0.0,0.0,0.0,0.0,0.0,0.0,0.0,0.0,0.0,0.0,0.0,0.0,0.0,0.0,0.0,0.0,0.0,0.0,0.0,0.0,0.0,0.0,0.0,0.0,0.0,0.0,0.0,0.0,0.0,0.0,0.0,0.0,0.0,0.0,0.0,0.0,0.0,0.0,0.0,0.0,0.0,0.0,0.0,0.0,0.0,0.0,0.0,0.0,0.0,0.0,0.0,0.0,0.0,0.0,0.0,0.0,0.0,0.0,0.0,0.0,0.0,0.0,-0.9313,-0.9368,-0.9368,-0.9516,-0.9888,0.0,0.0,0.0,0.0,0.0,0.0,0.0,0.0,0.0,0.0,0.0,0.0,0.0,0.0,0.0,0.0,0.0,0.0,0.0,0.0,0.0,0.0,0.0,0.0,0.0,0.0,0.0,0.0,0.0,0.0,0.0,0.0,0.0,0.0,0.0,0.0,0.0,0.0,0.0,0.0,0.0,0.0,0.0,0.0,0.0,0.0,0.0,0.0,0.0,0.0,0.0,0.0,0.0,0.0,0.0,0.0,0.0,0.0,0.0,0.0,0.0,0.0,0.0,0.0,0.0,0.0,0.0,0.0,0.0,0.0,0.0,0.0,0.0,0.0,0.0,0.0,0.0,0.0,0.0,0.0,0.0,0.0,0.0,0.0,0.0,0.0,0.0,0.0,0.0,0.0,0.0,0.0,0.0,0.0,0.0,0.0,0.0,0.0,0.0,0.0,0.0,0.0,0.0,0.0,0.0,0.0,0.0,0.0,0.0,0.0,0.0,0.0,-1.0394,-1.086,-1.1707,0.0,0.0,0.0,0.0,0.0,0.0,0.0,0.0,0.0,0.0,0.0,0.0,0.0,0.0,0.0,0.0,0.0,0.0,0.0,0.0,0.0,0.0,0.0,0.0,0.0,0.0,0.0,0.0,0.0,0.0,0.0,0.0,0.0,0.0,0.0,0.0,0.0,0.0,0.0,0.0,0.0,0.0,0.0,0.0,0.0,0.0,0.0,0.0,0.0,0.0,0.0,0.0,0.0,0.0,0.0,0.0,0.0,0.0,0.0,0.0,0.0,0.0,0.0,0.0,0.0,0.0,0.0,0.0,0.0,0.0,0.0,0.0,0.0,0.0,0.0,0.0,0.0,0.0,0.0,0.0,0.0,0.0,0.0,0.0,0.0,0.0,0.0,0.0,0.0,0.0,0.0,0.0,0.0,0.0,0.0,0.0,0.0,0.0,0.0,0.0,0.0,0.0,0.0,0.0,0.0,0.0,0.0,0.0,0.0,0.0,-1.149,-1.1433,-1.2129,0.0,-1.4308,0.0,0.0,0.0,0.0,0.0,0.0,0.0,0.0,0.0,0.0,0.0,0.0,0.0,0.0,0.0,0.0,0.0,0.0,0.0,0.0,0.0,0.0,0.0,0.0,0.0,0.0,0.0,0.0,0.0,0.0,0.0,0.0,0.0,0.0,0.0,0.0,0.0,0.0,0.0,0.0,0.0,0.0,0.0,0.0,0.0,0.0,0.0,0.0,0.0,0.0,0.0,0.0,0.0,0.0,0.0,0.0,0.0,0.0,0.0,0.0,0.0,0.0,0.0,0.0,0.0,0.0,0.0,0.0,0.0,0.0,0.0,0.0,0.0,0.0,0.0,0.0,0.0,0.0,0.0,0.0,0.0,0.0,0.0,0.0,0.0,0.0,0.0,0.0,0.0,0.0,0.0,0.0,0.0,0.0,0.0,0.0,0.0,0.0,0.0,0.0,0.0,0.0,0.0,0.0,0.0,0.0,0.0,0.0,0.0,0.0,-1.074,-1.2246,-1.335,-1.4145,0.0,0.0,0.0,0.0,0.0,0.0,0.0,0.0,0.0,0.0,0.0,0.0,0.0,0.0,0.0,0.0,0.0,0.0,0.0,0.0,0.0,0.0,0.0,0.0,0.0,0.0,0.0,0.0,0.0,0.0,0.0,0.0,0.0,0.0,0.0,0.0,0.0,0.0,0.0,0.0,0.0,0.0,0.0,0.0,0.0,0.0,0.0,0.0,0.0,0.0,0.0,0.0,0.0,0.0,0.0,0.0,0.0,0.0,0.0,0.0,0.0,0.0,0.0,0.0,0.0,0.0,0.0,0.0,0.0,0.0,0.0,0.0,0.0,0.0,0.0,0.0,0.0,0.0,0.0,0.0,0.0,0.0,0.0,0.0,0.0,0.0,0.0,0.0,0.0,0.0,0.0,0.0,0.0,0.0,0.0,0.0,0.0,0.0,0.0,0.0,0.0,0.0,0.0,0.0,0.0,0.0,0.0,0.0,0.0,0.0,-0.9814,-1.0886,-1.3403,-1.4459,-1.5094,-1.5466,0.0,0.0,0.0,0.0,0.0,0.0,0.0,0.0,0.0,0.0,0.0,0.0,0.0,0.0,0.0,0.0,0.0,0.0,0.0,0.0,0.0,0.0,0.0,0.0,0.0,0.0,0.0,0.0,0.0,0.0,0.0,0.0,0.0,0.0,0.0,0.0,0.0,0.0,0.0,0.0,0.0,0.0,0.0,0.0,0.0,0.0,0.0,0.0,0.0,0.0,0.0,0.0,0.0,0.0,0.0,0.0,0.0,0.0,0.0,0.0,0.0,0.0,0.0,0.0,0.0,0.0,0.0,0.0,0.0,0.0,0.0,0.0,0.0,0.0,0.0,0.0,0.0,0.0,0.0,0.0,0.0,0.0,0.0,0.0,0.0,0.0,0.0,0.0,0.0,0.0,0.0,0.0,0.0,0.0,0.0,0.0,0.0,0.0,0.0,0.0,0.0,0.0,0.0,0.0,0.0,0.0,0.0,0.0,-1.1329,-1.1469,-1.2809,-1.5362,-1.552,-1.6053,0.0,0.0,0.0,0.0,0.0,0.0,0.0,0.0,0.0,0.0,0.0,0.0,0.0,0.0,0.0,0.0,0.0,0.0,0.0,0.0,0.0,0.0,0.0,0.0,0.0,0.0,0.0,0.0,0.0,0.0,0.0,0.0,0.0,0.0,0.0,0.0,0.0,0.0,0.0,0.0,0.0,0.0,0.0,0.0,0.0,0.0,0.0,0.0,0.0,0.0,0.0,0.0,0.0,0.0,0.0,0.0,0.0,0.0,0.0,0.0,0.0,0.0,0.0,0.0,0.0,0.0,0.0,0.0,0.0,0.0,0.0,0.0,0.0,0.0,0.0,0.0,0.0,0.0,0.0,0.0,0.0,0.0,0.0,0.0,0.0,0.0,0.0,0.0,0.0,0.0,0.0,0.0,0.0,0.0,0.0,0.0,0.0,0.0,0.0,0.0,0.0,0.0,0.0,0.0,0.0,0.0,0.0,0.0,0.0,-1.1126,-1.3041,-1.4958,-1.6649,-1.7388,-1.8231,0.0,0.0,0.0,0.0,0.0,0.0,0.0,0.0,0.0,0.0,0.0,0.0,0.0,0.0,0.0,0.0,0.0,0.0,0.0,0.0,0.0,0.0,0.0,0.0,0.0,0.0,0.0,0.0,0.0,0.0,0.0,0.0,0.0,0.0,0.0,0.0,0.0,0.0,0.0,0.0,0.0,0.0,0.0,0.0,0.0,0.0,0.0,0.0,0.0,0.0,0.0,0.0,0.0,0.0,0.0,0.0,0.0,0.0,0.0,0.0,0.0,0.0,0.0,0.0,0.0,0.0,0.0,0.0,0.0,0.0,0.0,0.0,0.0,0.0,0.0,0.0,0.0,0.0,0.0,0.0,0.0,0.0,0.0,0.0,0.0,0.0,0.0,0.0,0.0,0.0,0.0,0.0,0.0,0.0,0.0,0.0,0.0,0.0,0.0,0.0,0.0,0.0,0.0,0.0,0.0,0.0,0.0,0.0,0.0,-1.2052,0.0,-1.6894,-1.7983,-1.9013,-1.9786,0.0,0.0,0.0,0.0,0.0,0.0,0.0,0.0,0.0,0.0,0.0,0.0,0.0,0.0,0.0,0.0,0.0,0.0,0.0,0.0,0.0,0.0,0.0,0.0,0.0,0.0,0.0,0.0,0.0,0.0,0.0,0.0,0.0,0.0,0.0,0.0,0.0,0.0,0.0,0.0,0.0,0.0,0.0,0.0,0.0,0.0,0.0,0.0,0.0,0.0,0.0,0.0,0.0,0.0,0.0,0.0,0.0,0.0,0.0,0.0,0.0,0.0,0.0,0.0,0.0,0.0,0.0,0.0,0.0,0.0,0.0,0.0,0.0,0.0,0.0,0.0,0.0,0.0,0.0,0.0,0.0,0.0,0.0,0.0,0.0,0.0,0.0,0.0,0.0,0.0,0.0,0.0,0.0,0.0,0.0,0.0,0.0,0.0,0.0,0.0,0.0,0.0,0.0,0.0,0.0,0.0,0.0,0.0,-1.346,-1.4464,-1.6961,-1.8802,-1.9597,-2.0398,-2.0702,0.0,0.0,0.0,0.0,0.0,0.0,0.0,0.0,0.0,0.0,0.0,0.0,0.0,0.0,0.0,0.0,0.0,0.0,0.0,0.0,0.0,0.0,0.0,0.0,0.0,0.0,0.0,0.0,0.0,0.0,0.0,0.0,0.0,0.0,0.0,0.0,0.0,0.0,0.0,0.0,0.0,0.0,0.0,0.0,0.0,0.0,0.0,0.0,0.0,0.0,0.0,0.0,0.0,0.0,0.0,0.0,0.0,0.0,0.0,0.0,0.0,0.0,0.0,0.0,0.0,0.0,0.0,0.0,0.0,0.0,0.0,0.0,0.0,0.0,0.0,0.0,0.0,0.0,0.0,0.0,0.0,0.0,0.0,0.0,0.0,0.0,0.0,0.0,0.0,0.0,0.0,0.0,0.0,0.0,0.0,0.0,0.0,0.0,0.0,0.0,0.0,0.0,0.0,0.0,0.0,0.0,0.0,0.0,0.0,-1.7119,-1.9856,-2.3106,-2.6461,-2.4275,-2.4397,0.0,0.0,0.0,0.0,0.0,0.0,0.0,0.0,0.0,0.0,0.0,0.0,0.0,0.0,0.0,0.0,0.0,0.0,0.0,0.0,0.0,0.0,0.0,0.0,0.0,0.0,0.0,0.0,0.0,0.0,0.0,0.0,0.0,0.0,0.0,0.0,0.0,0.0,0.0,0.0,0.0,0.0,0.0,0.0,0.0,0.0,0.0,0.0,0.0,0.0,0.0,0.0,0.0,0.0,0.0,0.0,0.0,0.0,0.0,0.0,0.0,0.0,0.0,0.0,0.0,0.0,0.0,0.0,0.0,0.0,0.0,0.0,0.0,0.0,0.0,0.0,0.0,0.0,0.0,0.0,0.0,0.0,0.0,0.0,0.0,0.0,0.0,0.0,0.0,0.0,0.0,0.0,0.0,0.0,0.0,0.0,0.0,0.0,0.0,0.0,0.0,0.0,0.0,0.0,0.0,0.0,0.0,0.0,0.0,-2.1942,-2.4185,-2.6749,-2.9453,-2.7352,-2.6906,-2.8407,0.0,0.0,0.0,0.0,0.0,0.0,0.0,0.0,0.0,0.0,0.0,0.0,0.0,0.0,0.0,0.0,0.0,0.0,0.0,0.0,0.0,0.0,0.0,0.0,0.0,0.0,0.0,0.0,0.0,0.0,0.0,0.0,0.0,0.0,0.0,0.0,0.0,0.0,0.0,0.0,0.0,0.0,0.0,0.0,0.0,0.0,0.0,0.0,0.0,0.0,0.0,0.0,0.0,0.0,0.0,0.0,0.0,0.0,0.0,0.0,0.0,0.0,0.0,0.0,0.0,0.0,0.0,0.0,0.0,0.0,0.0,0.0,0.0,0.0,0.0,0.0,0.0,0.0,0.0,0.0,0.0,0.0,0.0,0.0,0.0,0.0,0.0,0.0,0.0,0.0,0.0,0.0,0.0,0.0,0.0,0.0,0.0,0.0,0.0,0.0,0.0,0.0,0.0,0.0,0.0,0.0,0.0,0.0,-2.8075,-2.9663,-3.0144,-2.9372,-2.9782,-2.8628,0.0,0.0,0.0,0.0,0.0,0.0,0.0,0.0,0.0,0.0,0.0,0.0,0.0,0.0,0.0,0.0,0.0,0.0,0.0,0.0,0.0,0.0,0.0,0.0,0.0,0.0,0.0,0.0,0.0,0.0,0.0,0.0,0.0,0.0,0.0,0.0,0.0,0.0,0.0,0.0,0.0,0.0,0.0,0.0,0.0,0.0,0.0,0.0,0.0,0.0,0.0,0.0,0.0,0.0,0.0,0.0,0.0,0.0,0.0,0.0,0.0,0.0,0.0,0.0,0.0,0.0,0.0,0.0,0.0,0.0,0.0,0.0,0.0,0.0,0.0,0.0,0.0,0.0,0.0,0.0,0.0,0.0,0.0,0.0,0.0,0.0,0.0,0.0,0.0,0.0,0.0,0.0,0.0,0.0,0.0,0.0,0.0,0.0,0.0,0.0,0.0,0.0,0.0,0.0,0.0,0.0,0.0,0.0,0.0,-3.189,-3.5874,-3.7311,-3.5776,-3.3025,-3.1342,0.0,0.0,0.0,0.0,0.0,0.0,0.0,0.0,0.0,0.0,0.0,0.0,0.0,0.0,0.0,0.0,0.0,0.0,0.0,0.0,0.0,0.0,0.0,0.0,0.0,0.0,0.0,0.0,0.0,0.0,0.0,0.0,0.0,0.0,0.0,0.0,0.0,0.0,0.0,0.0,0.0,0.0,0.0,0.0,0.0,0.0,0.0,0.0,0.0,0.0,0.0,0.0,0.0,0.0,0.0,0.0,0.0,0.0,0.0,0.0,0.0,0.0,0.0,0.0,0.0,0.0,0.0,0.0,0.0,0.0,0.0,0.0,0.0,0.0,0.0,0.0,0.0,0.0,0.0,0.0,0.0,0.0,0.0,0.0,0.0,0.0,0.0,0.0,0.0,0.0,0.0,0.0,0.0,0.0,0.0,0.0,0.0,0.0,0.0,0.0,0.0,0.0,0.0,0.0,0.0,0.0,0.0,0.0,-3.2315,-3.4928,-3.9741,-4.1656,-4.0351,-3.6985,-3.3952,0.0,0.0,0.0,0.0,0.0,0.0,0.0,0.0,0.0,0.0,0.0,0.0,0.0,0.0,0.0,0.0,0.0,0.0,0.0,0.0,0.0,0.0,0.0,0.0,0.0,0.0,0.0,0.0,0.0,0.0,0.0,0.0,0.0,0.0,0.0,0.0,0.0,0.0,0.0,0.0,0.0,0.0,0.0,0.0,0.0,0.0,0.0,0.0,0.0,0.0,0.0,0.0,0.0,0.0,0.0,0.0,0.0,0.0,0.0,0.0,0.0,0.0,0.0,0.0,0.0,0.0,0.0,0.0,0.0,0.0,0.0,0.0,0.0,0.0,0.0,0.0,0.0,0.0,0.0,0.0,0.0,0.0,0.0,0.0,0.0,0.0,0.0,0.0,0.0,0.0,0.0,0.0,0.0,0.0,0.0,0.0,0.0,0.0,0.0,0.0,0.0,0.0,0.0,0.0,0.0,0.0,0.0,0.0,-3.4477,-3.7395,-4.1955,-4.3983,-4.3205,-4.0583,-3.6145,0.0,0.0,0.0,0.0,0.0,0.0,0.0,0.0,0.0,0.0,0.0,0.0,0.0,0.0,0.0,0.0,0.0,0.0,0.0,0.0,0.0,0.0,0.0,0.0,0.0,0.0,0.0,0.0,0.0,0.0,0.0,0.0,0.0,0.0,0.0,0.0,0.0,0.0,0.0,0.0,0.0,0.0,0.0,0.0,0.0,0.0,0.0,0.0,0.0,0.0,0.0,0.0,0.0,0.0,0.0,0.0,0.0,0.0,0.0,0.0,0.0,0.0,0.0,0.0,0.0,0.0,0.0,0.0,0.0,0.0,0.0,0.0,0.0,0.0,0.0,0.0,0.0,0.0,0.0,0.0,0.0,0.0,0.0,0.0,0.0,0.0,0.0,0.0,0.0,0.0,0.0,0.0,0.0,0.0,0.0,0.0,0.0,0.0,0.0,0.0,0.0,0.0,0.0,0.0,0.0,0.0,0.0,0.0,-3.5781,-3.8821,-4.3083,-4.4949,-4.4201,-3.9792,-3.5767,0.0,0.0,0.0,0.0,0.0,0.0,0.0,0.0,0.0,0.0,0.0,0.0,0.0,0.0,0.0,0.0,0.0,0.0,0.0,0.0,0.0,0.0,0.0,0.0,0.0,0.0,0.0,0.0,0.0,0.0,0.0,0.0,0.0,0.0,0.0,0.0,0.0,0.0,0.0,0.0,0.0,0.0,0.0,0.0,0.0,0.0,0.0,0.0,-1.7485,0.0,0.0,0.0,0.0,0.0,0.0,0.0,0.0,0.0,0.0,0.0,0.0,0.0,0.0,0.0,0.0,0.0,0.0,0.0,0.0,0.0,0.0,0.0,0.0,0.0,0.0,0.0,0.0,0.0,0.0,0.0,0.0,0.0,0.0,0.0,0.0,0.0,0.0,0.0,0.0,0.0,0.0,0.0,0.0,0.0,0.0,0.0,0.0,0.0,0.0,0.0,0.0,0.0,0.0,0.0,0.0,0.0,0.0,0.0,-3.7162,-4.0733,-4.3841,-4.5239,-4.4652,-4.0394,-3.6615,0.0,0.0,0.0,0.0,0.0,0.0,0.0,0.0,0.0,0.0,0.0,0.0,0.0,0.0,0.0,0.0,0.0,0.0,0.0,0.0,0.0,0.0,0.0,0.0,0.0,0.0,0.0,0.0,0.0,0.0,0.0,0.0,0.0,0.0,0.0,0.0,0.0,0.0,0.0,0.0,0.0,0.0,0.0,0.0,0.0,0.0,0.0,0.0,0.0,0.0,0.0,0.0,0.0,0.0,0.0,0.0,0.0,0.0,0.0,0.0,0.0,0.0,0.0,0.0,0.0,0.0,0.0,0.0,0.0,0.0,0.0,0.0,0.0,0.0,0.0,0.0,0.0,0.0,0.0,0.0,0.0,0.0,0.0,0.0,0.0,0.0,0.0,0.0,0.0,0.0,0.0,0.0,0.0,0.0,0.0,0.0,0.0,0.0,0.0,0.0,0.0,0.0,0.0,0.0,0.0,0.0,0.0,-3.5115,-3.8286,-4.2456,-4.436,-4.515,-4.4932,-4.1433,-3.7798,-3.4342,0.0,0.0,0.0,0.0,0.0,0.0,0.0,0.0,0.0,0.0,0.0,0.0,0.0,0.0,0.0,0.0,0.0,0.0,0.0,0.0,0.0,0.0,0.0,0.0,0.0,0.0,0.0,0.0,0.0,0.0,0.0,0.0,0.0,0.0,0.0,0.0,0.0,0.0,-1.1166,-1.288,0.0,0.0,0.0,0.0,0.0,0.0,0.0,0.0,-1.8068,0.0,0.0,0.0,0.0,0.0,0.0,0.0,0.0,0.0,0.0,0.0,0.0,0.0,0.0,0.0,0.0,0.0,0.0,0.0,0.0,0.0,0.0,0.0,0.0,0.0,0.0,0.0,0.0,0.0,0.0,0.0,0.0,0.0,0.0,0.0,0.0,0.0,0.0,0.0,0.0,0.0,0.0,0.0,0.0,0.0,0.0,0.0,0.0,0.0,0.0,0.0,0.0,0.0,0.0,0.0,0.0,-3.4699,-3.5733,-3.8437,-4.2972,-4.4435,-4.4916,-4.4381,-4.1745,-3.8389,-3.437,0.0,0.0,0.0,0.0,0.0,0.0,0.0,0.0,0.0,0.0,0.0,0.0,0.0,0.0,0.0,0.0,0.0,0.0,0.0,0.0,0.0,0.0,0.0,0.0,0.0,0.0,0.0,0.0,0.0,0.0,0.0,0.0,0.0,0.0,0.0,0.0,0.0,0.0,0.0,-1.4419,-1.511,0.0,0.0,0.0,0.0,0.0,0.0,0.0,0.0,-1.9858,0.0,0.0,0.0,0.0,0.0,0.0,0.0,0.0,0.0,0.0,0.0,0.0,0.0,0.0,0.0,0.0,0.0,0.0,0.0,0.0,0.0,0.0,0.0,0.0,0.0,0.0,0.0,0.0,0.0,0.0,0.0,0.0,0.0,0.0,0.0,0.0,0.0,0.0,0.0,0.0,0.0,0.0,0.0,0.0,0.0,0.0,0.0,0.0,0.0,0.0,0.0,0.0,0.0,0.0,0.0,-3.4199,-3.5482,-3.8306,-4.279,-4.3201,-4.345,-4.3662,-4.0233,-3.7034,0.0,0.0,0.0,0.0,0.0,0.0,0.0,0.0,0.0,0.0,0.0,0.0,0.0,0.0,0.0,0.0,0.0,0.0,0.0,0.0,0.0,0.0,0.0,0.0,0.0,0.0,0.0,0.0,0.0,0.0,0.0,0.0,0.0,0.0,0.0,0.0,0.0,0.0,0.0,0.0,-1.5266,-1.6031,-1.6032,0.0,0.0,0.0,0.0,0.0,0.0,-2.0074,-2.0685,0.0,0.0,0.0,0.0,0.0,0.0,0.0,0.0,0.0,0.0,0.0,0.0,0.0,0.0,0.0,0.0,0.0,0.0,0.0,0.0,0.0,0.0,0.0,0.0,0.0,0.0,0.0,0.0,0.0,0.0,0.0,0.0,0.0,0.0,0.0,0.0,0.0,0.0,0.0,0.0,0.0,0.0,0.0,0.0,0.0,0.0,0.0,0.0,0.0,0.0,0.0,0.0,0.0,0.0,0.0,-3.3365,-3.5007,-3.7964,-4.2174,-4.1882,-4.1907,-4.2486,-3.8472,-3.5412,0.0,0.0,0.0,0.0,0.0,0.0,0.0,0.0,0.0,0.0,0.0,0.0,0.0,0.0,0.0,0.0,0.0,0.0,0.0,0.0,0.0,0.0,0.0,0.0,0.0,0.0,0.0,0.0,0.0,0.0,0.0,0.0,0.0,0.0,0.0,0.0,0.0,0.0,0.0,0.0,0.0,-1.7102,-1.7391,-1.8358,0.0,0.0,0.0,0.0,-2.0387,-2.1407,0.0,0.0,0.0,0.0,0.0,0.0,0.0,0.0,0.0,0.0,0.0,0.0,0.0,0.0,0.0,0.0,0.0,0.0,0.0,0.0,0.0,0.0,0.0,0.0,0.0,0.0,0.0,0.0,0.0,0.0,0.0,0.0,0.0,0.0,0.0,0.0,0.0,0.0,0.0,0.0,0.0,0.0,0.0,0.0,0.0,0.0,0.0,0.0,0.0,0.0,0.0,0.0,0.0,0.0,0.0,0.0,-3.2549,-3.4519,-3.7294,-4.0921,-4.1427,-4.1118,-4.0113,-3.7461,-3.4637,0.0,0.0,0.0,0.0,0.0,0.0,0.0,0.0,0.0,0.0,0.0,0.0,0.0,0.0,0.0,0.0,0.0,0.0,0.0,0.0,0.0,0.0,0.0,0.0,0.0,0.0,0.0,0.0,0.0,0.0,0.0,0.0,0.0,0.0,0.0,0.0,0.0,0.0,0.0,0.0,0.0,-1.8444,-1.8003,-1.8575,-1.9145,0.0,0.0,-2.2014,-2.21,-2.4833,0.0,0.0,0.0,0.0,0.0,0.0,0.0,0.0,0.0,0.0,0.0,0.0,0.0,0.0,0.0,0.0,0.0,0.0,0.0,0.0,0.0,0.0,0.0,0.0,0.0,0.0,0.0,0.0,0.0,0.0,0.0,0.0,0.0,0.0,0.0,0.0,0.0,0.0,0.0,0.0,0.0,0.0,0.0,0.0,0.0,0.0,0.0,0.0,0.0,0.0,0.0,0.0,0.0,0.0,0.0,-2.8817,-3.1334,-3.357,-3.6079,-3.8859,-3.9165,-3.8877,-3.8008,-3.4689,-3.2128,0.0,0.0,0.0,0.0,0.0,0.0,0.0,0.0,0.0,0.0,0.0,0.0,0.0,0.0,0.0,0.0,0.0,0.0,0.0,0.0,0.0,0.0,0.0,0.0,0.0,0.0,0.0,0.0,0.0,0.0,0.0,0.0,0.0,0.0,0.0,0.0,0.0,0.0,0.0,0.0,0.0,0.0,-1.9431,-2.0702,0.0,0.0,0.0,-2.4238,-2.4321,0.0,0.0,0.0,0.0,0.0,0.0,0.0,0.0,0.0,0.0,0.0,0.0,0.0,0.0,0.0,0.0,0.0,0.0,0.0,0.0,0.0,0.0,0.0,0.0,0.0,0.0,0.0,0.0,0.0,0.0,0.0,0.0,0.0,0.0,0.0,0.0,0.0,0.0,0.0,0.0,0.0,0.0,0.0,0.0,0.0,0.0,0.0,0.0,0.0,0.0,0.0,0.0,0.0,0.0,0.0,0.0,0.0,-3.0317,-3.2411,-3.4655,-3.7038,-3.7037,-3.674,-3.6046,-3.2427,0.0,0.0,0.0,0.0,0.0,0.0,0.0,0.0,0.0,0.0,0.0,0.0,0.0,0.0,0.0,0.0,0.0,0.0,0.0,0.0,0.0,0.0,0.0,0.0,0.0,0.0,0.0,-2.2564,0.0,0.0,0.0,0.0,0.0,0.0,0.0,0.0,0.0,0.0,0.0,0.0,0.0,0.0,-1.9822,-2.1119,-2.284,-2.4156,0.0,0.0,-2.6086,-2.5715,-2.6938,-2.7419,0.0,0.0,0.0,0.0,0.0,0.0,0.0,0.0,0.0,0.0,0.0,0.0,0.0,0.0,0.0,0.0,0.0,0.0,0.0,0.0,0.0,0.0,0.0,0.0,0.0,0.0,0.0,0.0,0.0,0.0,0.0,0.0,0.0,0.0,0.0,0.0,0.0,0.0,0.0,0.0,0.0,0.0,0.0,0.0,0.0,0.0,0.0,0.0,0.0,0.0,0.0,0.0,0.0,0.0,0.0,-2.9783,-3.0982,-3.3064,-3.5936,-3.5866,-3.532,-3.4455,-3.1717,-2.9935,0.0,0.0,0.0,0.0,0.0,0.0,0.0,0.0,0.0,0.0,0.0,0.0,0.0,0.0,0.0,0.0,0.0,0.0,0.0,0.0,0.0,0.0,0.0,0.0,0.0,0.0,0.0,0.0,0.0,0.0,0.0,0.0,0.0,0.0,0.0,0.0,0.0,0.0,0.0,0.0,0.0,-2.2408,-2.2869,-2.4536,-2.5933,0.0,0.0,-2.7393,-2.5541,-2.91,-3.0459,-2.5683,0.0,0.0,0.0,0.0,0.0,0.0,0.0,0.0,0.0,0.0,0.0,0.0,0.0,0.0,0.0,0.0,0.0,0.0,0.0,0.0,0.0,0.0,0.0,0.0,0.0,0.0,0.0,0.0,0.0,0.0,0.0,0.0,0.0,0.0,0.0,0.0,0.0,0.0,0.0,0.0,0.0,0.0,0.0,0.0,0.0,0.0,0.0,0.0,0.0,0.0,0.0,0.0,0.0,-2.66,-2.8604,-3.0018,-3.1742,-3.374,-3.4217,-3.3811,-3.2481,-3.0055,-2.8445,0.0,0.0,0.0,0.0,0.0,0.0,0.0,0.0,0.0,0.0,0.0,0.0,0.0,0.0,0.0,0.0,0.0,0.0,0.0,0.0,0.0,0.0,0.0,0.0,0.0,0.0,0.0,0.0,-2.3818,-2.3543,-2.3734,0.0,0.0,0.0,0.0,0.0,0.0,0.0,0.0,0.0,0.0,-2.3504,-2.5157,-2.6656,0.0,0.0,-2.9195,-2.9196,-2.8289,-2.9731,-3.0151,-2.7829,-2.821,0.0,0.0,0.0,0.0,0.0,0.0,0.0,0.0,0.0,0.0,0.0,0.0,0.0,0.0,0.0,0.0,0.0,0.0,0.0,0.0,0.0,0.0,0.0,0.0,0.0,0.0,0.0,0.0,0.0,0.0,0.0,0.0,0.0,0.0,0.0,0.0,0.0,0.0,0.0,0.0,0.0,0.0,0.0,0.0,0.0,0.0,0.0,0.0,0.0,0.0,0.0,0.0,-2.5978,-2.7689,-2.9172,-3.0751,-3.2423,-3.2916,-3.2574,-3.1442,-2.9364,-2.7853,0.0,0.0,0.0,0.0,0.0,0.0,0.0,0.0,0.0,0.0,0.0,0.0,0.0,0.0,0.0,0.0,0.0,0.0,0.0,0.0,0.0,0.0,0.0,0.0,0.0,0.0,0.0,0.0,-2.5006,-2.4675,-2.4946,0.0,0.0,0.0,0.0,0.0,0.0,0.0,0.0,0.0,0.0,-2.4751,-2.6843,-2.8505,-2.9769,-3.0433,-3.0814,-3.0771,-3.0087,-3.0519,-3.0335,-2.8656,0.0,0.0,0.0,0.0,0.0,0.0,0.0,0.0,0.0,0.0,0.0,0.0,0.0,0.0,0.0,0.0,0.0,0.0,0.0,0.0,0.0,0.0,0.0,0.0,0.0,0.0,0.0,0.0,0.0,0.0,0.0,0.0,0.0,0.0,0.0,0.0,0.0,0.0,0.0,0.0,0.0,0.0,0.0,0.0,0.0,0.0,0.0,0.0,0.0,0.0,0.0,0.0,0.0,-2.5737,-2.721,-2.8424,-3.0078,-3.2218,-3.2004,-3.1824,-3.1716,-2.9951,-2.8625,-2.7846,0.0,0.0,0.0,0.0,0.0,0.0,0.0,0.0,0.0,0.0,0.0,0.0,0.0,0.0,0.0,0.0,0.0,0.0,0.0,0.0,0.0,0.0,0.0,0.0,0.0,0.0,-2.8084,-2.7017,-2.5954,0.0,0.0,0.0,0.0,0.0,0.0,0.0,0.0,0.0,0.0,-2.453,-2.6336,-2.7695,-2.9893,-3.1418,-3.1688,-3.2146,-3.192,-3.028,-3.1673,-3.1614,0.0,0.0,0.0,0.0,0.0,0.0,0.0,0.0,0.0,0.0,0.0,0.0,0.0,0.0,0.0,0.0,0.0,0.0,0.0,0.0,0.0,0.0,0.0,0.0,0.0,0.0,0.0,-2.3379,-2.3467,0.0,0.0,0.0,0.0,0.0,0.0,0.0,0.0,0.0,0.0,0.0,-2.7237,-2.823,0.0,0.0,0.0,0.0,0.0,0.0,0.0,0.0,0.0,0.0,0.0,0.0,-2.5366,-2.7504,-2.7977,-2.9303,-3.1495,-3.145,-3.1409,-3.1372,-2.9315,-2.7514,-2.6071,0.0,0.0,0.0,0.0,0.0,0.0,0.0,0.0,0.0,0.0,0.0,0.0,0.0,0.0,0.0,0.0,0.0,0.0,0.0,0.0,0.0,0.0,0.0,0.0,0.0,-2.781,0.0,0.0,0.0,0.0,0.0,0.0,0.0,0.0,0.0,0.0,0.0,-2.34,-2.367,-2.612,-2.8052,-2.8439,-3.0172,-3.1449,0.0,0.0,0.0,0.0,0.0,0.0,0.0,0.0,0.0,0.0,0.0,0.0,0.0,0.0,-3.4588,-3.1745,-3.11,-3.0985,-3.0946,0.0,0.0,0.0,0.0,0.0,0.0,0.0,0.0,0.0,0.0,0.0,0.0,0.0,0.0,0.0,0.0,-2.3545,0.0,0.0,0.0,0.0,0.0,0.0,0.0,0.0,-2.7459,-2.8721,-2.8782,-2.9973,-3.0432,0.0,-2.97,-2.8171,0.0,0.0,0.0,0.0,0.0,0.0,0.0,0.0,-2.549,-2.7194,-2.8135,-2.9426,-3.1083,-3.119,-3.119,-3.1157,-2.8986,-2.7012,-2.5343,-2.504,-2.5022,0.0,0.0,0.0,0.0,0.0,0.0,0.0,0.0,0.0,0.0,0.0,0.0,0.0,0.0,0.0,0.0,0.0,0.0,0.0,0.0,0.0,0.0,0.0,-2.8197,0.0,0.0,0.0,0.0,0.0,0.0,0.0,0.0,0.0,-2.4654,-2.4553,-2.4913,-2.5796,-2.755,-2.8975,-2.9572,0.0,0.0,0.0,0.0,0.0,0.0,0.0,-3.2954,-3.2023,-3.2938,-3.3981,-3.4544,-3.5329,-3.5701,-3.5149,0.0,0.0,-3.3344,-3.29,-3.2923,-3.2939,-3.3606,-3.4172,-3.4172,-3.5053,-3.5955,0.0,0.0,0.0,0.0,0.0,0.0,0.0,0.0,-2.2999,-2.341,0.0,-2.326,0.0,0.0,0.0,0.0,0.0,0.0,0.0,0.0,-2.9685,-3.0672,-2.9707,-3.0782,-3.1096,-3.0764,-3.1863,-3.1167,-2.882,-2.6343,0.0,0.0,0.0,0.0,0.0,0.0,-2.6095,-2.6338,-2.877,-3.0437,-3.1157,-3.119,-3.1157,-3.1055,-2.8992,-2.7142,-2.5676,-2.4893,-2.4348,-2.4076,-2.5756,0.0,0.0,0.0,0.0,0.0,0.0,0.0,0.0,0.0,0.0,0.0,0.0,0.0,0.0,0.0,0.0,0.0,0.0,0.0,0.0,-2.8559,0.0,0.0,0.0,0.0,0.0,0.0,0.0,0.0,0.0,0.0,-2.5805,-2.5446,-2.6208,-2.8791,0.0,0.0,0.0,0.0,-3.2967,-3.281,-3.4347,-3.5203,-3.4508,-3.5192,-3.4962,-3.2505,0.0,0.0,-3.4746,-3.543,-3.5959,-3.5933,-3.6022,-3.6256,-3.7075,-3.6894,-3.6855,-3.6971,-3.6443,-3.6112,-3.6074,-3.6269,-3.6641,-2.6811,0.0,0.0,0.0,0.0,-2.7012,-2.7339,-2.8114,-2.7444,-2.6819,-2.6145,-2.576,0.0,0.0,0.0,0.0,0.0,0.0,-2.6856,-2.8271,-3.0612,-3.2109,-3.2845,-3.3988,-3.4443,-3.4312,-3.3537,-3.2441,-3.0976,-2.9123,-2.7265,-2.5449,0.0,0.0,0.0,0.0,-2.7027,-2.8161,-2.9446,-3.0437,-3.1173,-3.119,-3.0683,-2.9651,-2.9013,-2.7688,-2.5693,-2.4893,-2.459,-2.4771,-2.4981,0.0,0.0,0.0,0.0,0.0,0.0,0.0,0.0,0.0,0.0,0.0,0.0,0.0,0.0,0.0,0.0,0.0,0.0,0.0,-2.9934,-2.8635,-2.816,0.0,0.0,0.0,0.0,0.0,0.0,0.0,0.0,0.0,-2.9046,-2.8547,-2.8706,0.0,0.0,-3.1821,-3.2351,-3.2875,-3.3203,-3.3138,0.0,0.0,0.0,-3.4428,-3.4769,-3.3959,-3.5368,-3.6348,-3.5723,-3.6292,-3.6839,-3.6829,-3.7252,-3.788,-3.8604,-3.7459,-3.644,-3.6347,-3.7022,-3.7667,-3.7702,-3.8632,-3.959,-3.0297,-2.8935,-2.7445,-2.7671,-2.8937,-2.85,-2.8933,-2.9889,-2.8798,-2.8229,-2.7988,-2.7203,-2.6531,-2.5949,-2.5831,0.0,0.0,0.0,-2.8281,-2.9959,-3.1675,-3.3149,-3.4358,-3.5324,-3.5794,-3.5745,-3.4496,-3.3567,-3.2904,-3.1065,-2.947,-2.8083,0.0,0.0,-2.6269,-2.7215,-2.8063,-2.8749,-2.9905,-3.0752,-3.119,-3.092,-3.0328,-2.9465,-2.8846,-2.7587,-2.5661,-2.4893,-2.4364,-2.4035,-2.413,-2.4612,0.0,0.0,0.0,0.0,0.0,0.0,0.0,0.0,0.0,0.0,0.0,-2.9785,0.0,0.0,0.0,0.0,-2.9229,-2.9494,-2.949,-2.8744,0.0,0.0,0.0,0.0,0.0,0.0,0.0,-3.0547,-3.0833,-3.132,-3.1856,-3.1657,-3.1637,-3.2112,-3.2683,-3.3189,-3.3569,0.0,-3.3828,-3.3847,-3.416,-3.4398,-3.4393,-3.4835,-3.5203,-3.5164,-3.6316,-3.7109,-3.668,-3.7148,-3.7656,-3.7696,-3.8009,-3.8455,-3.8949,-3.8121,-3.7539,-3.7812,-3.8681,-3.9355,-3.9298,-4.0213,-4.1086,-3.3532,-3.3187,-3.0043,-2.8996,-2.9358,-2.9358,-2.9472,-2.9527,-2.8281,-2.841,-2.9456,-2.8069,-2.7699,-2.8141,-2.7998,0.0,-2.8026,-2.9465,-3.0531,-3.141,-3.2763,-3.3795,-3.4534,-3.5243,-3.5543,-3.5493,-3.4895,-3.459,-3.4472,-3.2476,-3.1444,-3.1309,-2.8798,-2.7479,-2.74,-2.8691,-2.908,-2.8477,-3.0258,-3.119,-3.1173,-3.048,-3.004,-2.9905,-2.8485,-2.7024,-2.5576,-2.4796,-2.3779,-2.2502,-2.3335,-2.4031,-2.4346,0.0,0.0,0.0,0.0,0.0,0.0,0.0,0.0,0.0,0.0,0.0,0.0,0.0,0.0,0.0,-2.8148,0.0,-2.829,-2.8965,0.0,0.0,0.0,-3.1707,-3.173,-3.2393,-3.2759,-3.2587,0.0,0.0,-3.4048,0.0,-3.464,-3.4433,-3.3891,-3.3852,-3.4763,-3.4805,-3.4726,-3.4785,-3.5398,-3.5873,-3.582,-3.5898,-3.5918,-3.5937,-3.668,-3.7109,-3.7129,-3.7598,-3.8086,-3.8111,-3.8186,-3.8213,-3.8197,-3.8814,-3.9706,-4.0218,-4.0667,-4.087,-4.0688,-4.0819,-4.1168,-3.4267,-3.406,-3.2297,-3.1875,-3.2367,-3.1901,-3.1998,-3.2515,-3.1651,-3.0863,-3.014,-2.9666,-2.9202,-2.8794,-2.8735,-2.9025,-2.9583,-2.9956,-3.1106,-3.2848,-3.3237,-3.382,-3.4499,-3.5273,-3.5313,-3.4807,-3.5144,-3.5368,-3.5301,-3.4252,-3.3423,-3.2848,-3.1668,-3.0207,-2.8679,-2.9471,-2.985,-2.9695,-3.0671,-3.119,-3.1157,-3.048,-2.955,-2.8399,-2.7453,-2.6265,-2.4814,-2.4062,-2.3519,-2.3156,-2.3068,-2.3143,-2.349,-2.5408,0.0,0.0,0.0,0.0,0.0,0.0,0.0,0.0,0.0,-2.9101,-3.0469,0.0,-3.008,0.0,-2.8598,-2.8673,-2.9868,-2.9635,0.0,0.0,-3.2232,-3.2815,-3.2827,-3.3552,-3.3819,-3.3127,-3.3713,-3.4244,-3.4456,-3.5116,-3.557,-3.5519,-3.5413,-3.5671,-3.6523,-3.6074,-3.5664,-3.5684,-3.582,-3.5999,-3.5996,-3.6016,-3.6016,-3.6016,-3.6191,-3.6289,-3.6241,-3.6385,-3.6658,-3.716,-3.7295,-3.7513,-3.8047,-3.8444,-3.8579,-3.8749,-3.9774,-4.0735,-4.06,-4.0677,-4.0866,-3.4936,-3.4816,-3.3499,-3.318,-3.3408,-3.2486,-3.2625,-3.3502,-3.219,-3.132,-3.0877,-3.0432,-3.0135,-2.9989,-2.9973,-3.0192,-3.0632,-3.1275,-3.2239,-3.3423,-3.4083,-3.457,-3.5004,-3.5442,-3.5363,-3.5004,-3.538,-3.5436,-3.5098,-3.437,-3.3626,-3.2899,-3.2171,-3.119,-3.004,-3.0374,-3.0721,-3.1069,-3.1172,-3.1038,-3.07,-2.9989,-2.9194,-2.8349,-2.6926,-2.5816,-2.5023,-2.3952,-2.3392,-2.342,-2.3326,-2.3398,-2.3689,-2.5014,-2.5775,0.0,0.0,0.0,0.0,0.0,0.0,0.0,0.0,0.0,0.0,0.0,-3.0349,0.0,-2.9936,-3.0075,-3.1688,-3.1438,-3.1555,-3.2466,-3.3344,-3.3854,-3.3874,-3.4612,-3.4954,-3.449,-3.485,-3.5152,-3.5223,-3.5637,-3.5925,-3.5905,-3.5979,-3.6148,-3.6523,-3.625,-3.6016,-3.6016,-3.6016,-3.6016,-3.6016,-3.6016,-3.6016,-3.6016,-3.6016,-3.5988,-3.5905,-3.5905,-3.6029,-3.6317,-3.6381,-3.6502,-3.6925,-3.7362,-3.7536,-3.7656,-3.8527,-3.9523,-3.9892,-4.035,-4.0714,-3.5489,-3.54,-3.4143,-3.3574,-3.3395,-3.2183,-3.2293,-3.3203,-3.1403,-3.0882,-3.1326,-3.0559,-3.0576,-3.123,-3.123,-3.1286,-3.1427,-3.278,-3.3364,-3.3347,-3.4695,-3.5318,-3.5329,-3.5402,-3.5481,-3.5459,-3.5543,-3.5284,-3.4624,-3.3912,-3.3178,-3.2437,-3.1655,-3.1301,-3.1325,-3.1202,-3.1455,-3.2139,-3.1642,-3.1016,-3.0378,-2.9567,-2.9042,-2.8791,-2.6639,-2.5372,-2.5145,-2.3943,-2.3266,-2.3266,-2.3586,-2.3885,-2.4141,-2.4527,-2.4996,0.0,-2.5777,0.0,0.0,0.0,0.0,0.0,0.0,0.0,0.0,-2.9745,-3.0527,-3.2207,-3.166,-3.1816,-3.3262,-3.3379,-3.3457,-3.3594,-3.4355,-3.4902,-3.5039,-3.5664,-3.6094,-3.6172,-3.6027,-3.5948,-3.5947,-3.6001,-3.5982,-3.5932,-3.5971,-3.592,-3.5783,-3.5898,-3.5976,-3.5879,-3.584,-3.5781,-3.5937,-3.5898,-3.5801,-3.5801,-3.5937,-3.5918,-3.5693,-3.5797,-3.5828,-3.5674,-3.5655,-3.5622,-3.5526,-3.6122,-3.6526,-3.6584,-3.7296,-3.82,-3.9142,-3.9908,-4.0523,-3.5489,-3.5415,-3.4622,-3.3993,-3.344,-3.2662,-3.212,-3.1879,-3.1507,-3.1071,-3.0626,-2.9958,-3.0295,-3.1321,-3.1381,-3.1625,-3.2121,-3.3,-3.3134,-3.259,-3.3495,-3.3914,-3.3918,-3.4512,-3.4772,-3.4729,-3.5329,-3.5554,-3.5357,-3.4701,-3.4005,-3.3264,-3.205,-3.1707,-3.2078,0.0,0.0,0.0,-3.1864,-3.2008,-3.1833,-3.0565,-2.9296,-2.8026,-2.587,0.0,-2.2984,-2.2649,-2.2491,-2.2491,-2.2589,0.0,0.0,0.0,0.0,0.0,0.0,0.0,0.0,0.0,0.0,0.0,-3.0205,-3.0239,-3.0395,-3.1086,-3.1992,-3.3047,-3.3027,-3.3047,-3.3359,-3.3379,-3.3672,-3.4394,-3.5234,-3.6016,-3.6719,-3.6934,-3.7051,-3.7031,-3.6426,-3.5996,-3.5996,-3.6007,-3.5967,-3.5925,-3.5963,-3.5676,-3.4936,-3.5485,-3.5703,-3.5117,-3.5039,-3.5215,-3.5898,-3.5351,-3.5019,-3.5019,-3.5586,-3.5644,-3.504,-3.5369,-3.568,-3.5545,-3.5526,-3.5507,-3.5507,-3.5628,-3.5776,-3.5724,-3.6392,-3.743,-3.895,-3.9411,-3.9773,-3.5489,0.0,-3.4756,-3.4292,0.0,-3.3275,-3.2811,-3.2452,-3.144,-3.083,-3.0463,-3.0161,-3.0496,-3.1378,-3.1378,-3.156,-3.1879,-3.2619,-3.2763,-3.2513,-3.3194,-3.3535,-3.3534,-3.3958,-3.4105,-3.4086,-3.4429,-3.4427,-3.405,-3.373,-3.321,-3.2464,-3.1806,-3.1422,-3.1378,-3.0667,-3.0594,-3.119,-3.1567,-3.1601,-3.119,-3.0125,-2.9178,-2.8383,0.0,0.0,0.0,0.0,0.0,0.0,0.0,0.0,0.0,0.0,0.0,-2.4595,-2.5182,-2.6023,-2.7031,-2.7574,-2.8365,-2.9516,-3.049,-3.1083,-3.1229,-3.2099,-3.3027,-3.3926,-3.4043,-3.4394,-3.5234,-3.5332,-3.5684,-3.6504,-3.6641,-3.6836,-3.7168,-3.6914,-3.668,-3.6621,-3.6269,-3.6016,-3.6016,-3.6016,-3.5976,-3.5937,-3.5955,-3.5507,-3.434,-3.4756,-3.5273,-3.5273,-3.4512,-3.3887,-3.3652,-3.4355,-3.4492,-3.4316,-3.5137,-3.5488,-3.4678,-3.5173,-3.5661,-3.5526,-3.5507,-3.5507,-3.5507,-3.5507,-3.5507,-3.5526,-3.5834,-3.668,-3.8277,-3.8988,-3.9546,-3.5609,-3.5459,-3.4906,-3.4577,-3.4427,-3.3903,-3.3529,-3.323,0.0,0.0,0.0,-3.0517,-3.084,-3.1401,-3.145,-3.1483,-3.1629,-3.238,-3.2536,-3.2339,-3.3073,-3.3439,-3.3414,-3.3423,-3.3471,-3.3614,-3.361,-3.3294,-3.2716,-3.2599,-3.2212,-3.1623,-3.1365,-3.0972,-3.0433,-3.0459,-3.0656,-3.1002,-3.1269,-3.1111,-3.0497,-2.9753,-2.9262,-2.9028,-2.6319,-2.5053,-2.5344,-2.3646,-2.296,-2.3562,-2.411,-2.4282,-2.4156,-2.5027,-2.5135,-2.4223,-2.4245,-2.485,-2.6043,-2.6747,-2.7696,-2.9077,-3.0963,-3.2077,-3.2107,-3.2951,-3.3805,-3.4629,-3.4824,-3.5508,-3.6934,-3.7226,-3.7598,-3.8281,-3.7988,-3.7773,-3.7754,-3.7148,-3.6816,-3.6484,-3.6406,-3.6152,-3.6035,-3.6016,-3.5976,-3.5937,-3.5954,-3.5361,-3.3865,-3.3838,-3.4453,-3.5019,-3.4062,-3.2676,-3.1699,-3.2715,-3.3867,-3.3359,-3.4609,-3.5351,-3.4697,-3.5057,-3.5572,-3.5526,-3.5507,-3.5507,-3.5507,-3.5507,-3.5507,-3.5507,-3.5507,-3.5968,-3.7392,-3.8315,-3.9123,-3.6013,-3.5489,-3.5385,-3.5011,-3.4472,-3.4367,-3.3679,-3.2632,-3.2329,-3.1558,-3.0518,-3.0473,-3.089,-3.1581,-3.1581,-3.1876,-3.2378,-3.3134,-3.276,0.0,-3.2353,-3.2748,-3.2726,-3.2733,-3.3044,-3.3584,-3.3615,-3.355,-3.3419,-3.2845,-3.2547,-3.2284,-3.1235,-3.0517,-3.0438,-3.0929,-3.0907,-3.0456,-3.1556,-3.2094,-3.1968,-3.1258,-3.026,-2.8991,-2.73,-2.5805,-2.4677,-2.4345,-2.4247,-2.4333,-2.4083,-2.4181,-2.4807,-2.4719,-2.4924,-2.5578,-2.513,-2.5651,-2.7584,-2.788,-2.8706,-3.0508,-3.2395,-3.3325,-3.2923,-3.3645,-3.4291,-3.4609,-3.5254,-3.582,-3.6211,-3.6914,-3.7422,-3.7676,-3.875,-3.9512,-3.9434,-3.9258,-3.8848,-3.8184,-3.7559,-3.6797,-3.6211,-3.6074,-3.6055,-3.5996,-3.5891,-3.5336,-3.3789,-3.2888,-3.293,-3.3457,-3.2988,-3.2012,-3.1289,-3.1758,-3.2519,-3.2402,-3.3769,-3.4583,-3.3659,-3.4659,-3.5501,-3.5507,-3.5507,-3.5507,-3.5507,-3.5507,-3.5507,-3.5507,-3.5507,-3.5872,-3.6815,-3.718,-3.7911,-3.6312,-3.5998,-3.5654,-3.5325,-3.5026,-3.504,-3.4487,-3.3636,-3.3593,-3.2598,-3.1106,-3.1008,-3.1237,-3.1551,-3.1551,-3.1702,-3.1975,-3.2322,-3.2087,-3.1496,-3.187,-3.2016,-3.2025,-3.2016,-3.2163,-3.2455,-3.2456,-3.2461,-3.2407,-3.216,-3.2023,-3.1905,-3.1005,-3.0644,-3.0929,-3.0905,-3.0893,-3.0876,-3.1446,-3.1791,-3.1809,-3.1083,-3.052,-3.0176,-2.8319,-2.6807,-2.5743,-2.5309,-2.4927,-2.4529,-2.454,-2.4593,-2.4706,-2.5021,-2.5367,-2.5697,-2.5582,-2.6215,-2.7832,-2.8904,-3.0015,-3.1293,-3.2751,-3.3764,-3.4129,-3.4681,-3.5058,-3.5174,-3.5582,-3.6211,-3.7168,-3.7656,-3.8281,-3.9316,-3.9766,-3.9883,-3.9824,-3.9453,-3.9023,-3.8652,-3.8262,-3.7676,-3.6797,-3.6719,-3.6484,-3.6094,-3.565,-3.4807,-3.3612,-3.3086,-3.2617,-3.2148,-3.1719,-3.1387,-3.0996,-3.1621,-3.1953,-3.1601,-3.2891,-3.3633,-3.3342,-3.4301,-3.5039,-3.543,-3.5488,-3.5507,-3.5455,-3.5507,-3.5507,-3.5507,-3.5507,-3.5834,-3.6488,-3.7046,-3.8007,-3.6363,-3.6067,-3.5857,-3.5639,-3.5504,-3.5489,-3.5115,-3.4535,-3.4495,-3.3532,-3.2093,-3.1973,-3.1765,-3.1497,-3.1689,-3.1674,-3.1482,-3.1467,-3.1524,-3.1467,-3.1467,-3.1467,-3.1467,-3.1467,-3.1467,-3.1467,-3.1467,-3.1467,-3.1467,-3.1467,-3.1467,-3.148,-3.1001,-3.0929,-3.1377,-3.0974,-3.0894,-3.1202,-3.131,-3.1341,-3.1389,-3.0653,-3.0441,-3.0623,-2.9053,-2.7792,-2.7046,-2.659,-2.6034,-2.5313,-2.5615,-2.5547,-2.5063,-2.5507,-2.5843,-2.5914,-2.6075,-2.6826,-2.8278,-2.9847,-3.111,-3.1935,-3.2957,-3.3957,-3.4794,-3.5452,-3.5715,-3.5694,-3.5882,-3.6501,-3.75,-3.8359,-3.9199,-4.0371,-4.0155,-3.9863,-3.9785,-3.9277,-3.8789,-3.8672,-3.875,-3.8516,-3.7598,-3.7285,-3.6914,-3.6074,-3.5227,-3.441,-3.3777,-3.3392,-3.2477,-3.1777,-3.1367,-3.1328,-3.1094,-3.1641,-3.1777,-3.1055,-3.2324,-3.3161,-3.3366,-3.3895,-3.448,-3.4932,-3.4861,-3.4659,-3.4721,-3.4879,-3.4902,-3.4887,-3.5044,-3.548,-3.5997,-3.6993,-3.807,-3.6101,-3.5302,-3.5969,-3.6043,-3.5534,-3.5489,-3.513,-3.4577,-3.4471,-3.4088,-3.332,-3.3305,-3.2647,-3.1719,-3.2138,-3.2063,-3.1497,-3.1467,-3.1467,-3.1467,-3.1467,-3.1467,-3.1554,-3.1497,-3.1467,-3.1539,-3.1554,-3.1569,-3.1467,-3.1467,-3.1467,-3.1467,-3.1407,-3.1377,-3.1362,-3.1324,-3.1091,-3.0618,-3.111,-3.1413,-3.1342,-3.0725,-3.0093,-2.9483,-2.9264,-2.8741,-2.8051,-2.8408,-2.8305,-2.7606,-2.7487,-2.7233,-2.6539,-2.5963,-2.6085,-2.7,-2.6889,-2.7662,-2.9753,-3.0834,-3.1636,-3.2482,-3.3462,-3.4134,-3.4375,-3.5476,-3.6023,-3.5926,-3.64,-3.662,-3.6202,-3.8073,-3.924,-3.9071,-3.9481,-3.9726,-3.9726,-3.9766,-3.9473,-3.8672,-3.9258,-3.918,-3.7734,-3.7324,-3.6914,-3.6028,-3.5261,-3.4584,-3.4121,-3.3334,-3.242,-3.2434,-3.2754,-3.2402,-3.1445,-3.1621,-3.166,-3.1172,-3.2181,-3.2919,-3.3151,-3.3594,-3.4255,-3.3934,-3.349,-3.3064,-3.3082,-3.3052,-3.3695,-3.4148,-3.4472,-3.485,-3.5076,-3.6119,-3.7509,-3.5759,-3.5468,-3.5529,-3.5524,-3.5469,-3.5489,-3.5355,-3.51,-3.5076,-3.4688,-3.4188,-3.4502,-3.3739,-3.2138,-3.2003,-3.1764,-3.1482,-3.1467,-3.1467,-3.1467,-3.1467,-3.1702,-3.2058,-3.2107,-3.2092,-3.2088,-3.2107,-3.1913,-3.1526,-3.1467,-3.1467,-3.1467,-3.1467,-3.1452,-3.1452,-3.1437,-3.136,-3.1106,-3.136,-3.1438,-3.1374,-3.0824,-3.072,-3.1071,-3.0312,-2.9725,-2.942,-2.9546,-2.9296,-2.8538,-2.8065,-2.7674,-2.7368,-2.6656,-2.6678,-2.7566,-2.7949,-2.8713,-3.0094,-3.0937,-3.1733,-3.2559,-3.3442,-3.4037,-3.4349,-3.5255,-3.6232,-3.7321,-3.7544,-3.7584,-3.7882,-3.8865,-3.9526,-3.9758,-4.013,-4.0151,-3.9696,-4.0106,-3.9945,-3.8783,-3.9598,-3.9784,-3.8244,-3.7429,-3.6766,-3.5989,-3.5415,-3.4937,-3.3972,-3.3905,-3.3364,-3.2089,-3.2844,-3.3027,-3.1465,-3.1152,-3.1211,-3.1047,-3.1294,-3.1788,-3.2378,-3.2398,-3.263,-3.2985,-3.2621,-3.2519,-3.3034,-3.311,-3.3507,-3.3883,-3.426,-3.4694,-3.4694,-3.56,-3.6764,-3.4886,-3.4818,-3.4711,-3.4996,-3.5519,-3.5489,-3.5489,-3.5489,-3.5489,-3.522,-3.4801,-3.4921,-3.4173,-3.2856,-3.2287,-3.184,-3.1511,-3.1467,-3.1467,-3.1554,-3.1646,-3.2032,-3.2449,-3.2691,-3.2676,-3.2511,-3.2496,-3.2168,-3.1541,-3.1467,-3.1467,-3.1467,-3.1467,-3.1467,-3.1467,-3.1467,-3.1467,-3.1467,-3.1467,-3.1467,-3.142,-3.0848,-3.0952,-3.1773,-3.0891,-3.0293,-3.0253,-3.0369,-3.0074,-2.9326,-2.8733,-2.8337,-2.81,-2.7419,-2.7289,-2.7844,-2.8394,-2.9265,-3.0412,-3.1091,-3.1843,-3.2834,-3.3495,-3.3931,-3.434,-3.5213,-3.6527,-3.7923,-3.8454,-3.8815,-3.8888,-3.9422,-3.9923,-4.0369,-4.0408,-4.0152,-3.9685,-4.0131,-3.9976,-3.9005,-3.9917,-4.017,-3.8617,-3.754,-3.6677,-3.5883,-3.5647,-3.5199,-3.3968,-3.4385,-3.4193,-3.1763,-3.2822,-3.2733,-3.1248,-3.1152,-3.1013,-3.0828,-3.0942,-3.1373,-3.1623,-3.1478,-3.1286,-3.1933,-3.1844,-3.1825,-3.1984,-3.2416,-3.3433,-3.4145,-3.4461,-3.4555,-3.4764,-3.5333,-3.6114,-3.3185,-3.2431,-3.3551,-3.4534,-3.5439,-3.5424,-3.5424,-3.5279,-3.5409,-3.5444,-3.5061,-3.414,-3.3559,-3.3304,-3.3108,-3.2617,-3.1586,-3.1511,-3.1526,-3.1601,-3.2213,-3.2482,-3.2557,-3.3124,-3.3138,-3.2688,-3.2617,-3.2228,-3.1599,-3.1526,-3.1467,-3.1526,-3.1556,-3.1497,-3.1569,-3.1497,-3.1467,-3.1467,-3.1467,-3.1467,-3.145,-3.0863,-3.0603,-3.0729,-3.05,-3.046,-3.0493,-3.0916,-3.0842,-3.009,-2.9962,-2.9648,-2.8945,-2.8212,-2.7853,-2.7974,-2.802,-2.9035,-3.0969,-3.1433,-3.2082,-3.3421,-3.3733,-3.3835,-3.4,-3.5499,-3.6733,-3.7231,-3.8883,-3.9355,-3.8635,-3.9585,-4.0081,-3.9638,-3.9531,-3.9546,-3.9427,-3.9667,-3.9682,-3.9528,-4.0105,-3.9984,-3.8541,-3.753,-3.6723,-3.5978,-3.5655,-3.5218,-3.4391,-3.4257,-3.3878,-3.3006,-3.2351,-3.1661,-3.0886,-3.1006,-3.1176,-3.0948,-3.0975,-3.1494,-3.1446,-3.1331,-3.1069,-3.0885,-3.0897,-3.0857,-3.0775,-3.1513,-3.2859,-3.364,-3.3924,-3.4138,-3.4518,-3.4889,-3.5715,-3.216,-3.2074,-3.2784,-3.331,-3.3616,-3.3685,-3.363,-3.3725,-3.4259,-3.4017,-3.326,-3.3231,-3.2849,-3.1973,-3.1458,-3.1337,-3.1513,-3.1915,-3.2168,-3.2243,-3.2841,-3.3365,-3.3769,-3.404,-3.4055,-3.3799,-3.3321,-3.2811,-3.2287,-3.2572,-3.2796,-3.2706,-3.2362,-3.2168,-3.2093,-3.1734,-3.1467,-3.1467,-3.1467,-3.1467,-3.1452,-3.1255,-3.1135,-3.112,-3.1144,-3.1322,-3.1709,-3.1825,-3.1788,-3.1523,-3.0611,-2.9973,-2.9698,-2.9189,-2.8903,-2.8977,-2.9449,-3.0348,-3.1574,-3.2044,-3.2632,-3.3623,-3.3807,-3.3826,-3.4082,-3.5414,-3.6887,-3.7988,-3.884,-3.9271,-3.9566,-4.0082,-4.0392,-4.0142,-4.0085,-3.9892,-3.9585,-3.9792,-3.9811,-3.9008,-3.9292,-3.9518,-3.9003,-3.8176,-3.731,-3.6449,-3.5872,-3.5218,-3.4584,-3.4622,-3.457,-3.3327,-3.2699,-3.2228,-3.1427,-3.1043,-3.0897,-3.0711,-3.0701,-3.0628,-3.0579,-3.0335,-3.0076,-3.0165,-3.0126,-3.0748,-3.0999,-3.218,-3.3293,-3.3568,-3.3807,-3.3954,-3.4156,-3.4945,-3.579,-3.124,-3.1734,-3.205,-3.2321,-3.2593,-3.2593,-3.2593,-3.2623,-3.3078,-3.2713,-3.1999,-3.2064,-3.1641,-3.0807,-3.0015,-2.9989,-3.0746,-3.1617,-3.2243,-3.2587,-3.341,-3.407,-3.443,-3.4502,-3.4364,-3.4098,-3.3471,-3.3021,-3.2901,-3.3275,-3.3484,-3.3455,-3.3036,-3.2706,-3.2467,-3.2047,-3.1732,-3.1569,-3.1467,-3.1467,-3.1467,-3.1467,-3.1467,-3.1549,-3.1736,-3.2053,-3.2479,-3.2602,-3.2547,-3.2185,-3.1348,-3.0482,-2.9842,-2.9719,-2.9506,-2.9296,-2.9902,-3.0874,-3.1838,-3.2256,-3.2793,-3.3733,-3.4045,-3.4119,-3.399,-3.5538,-3.72,-3.8368,-3.895,-3.9339,-3.984,-4.0194,-4.0408,-4.0473,-4.0489,-4.0312,-3.9796,-4.0181,-3.9931,-3.9277,-3.945,-3.9585,-3.9296,-3.8777,-3.8065,-3.7238,-3.6603,-3.593,-3.5026,-3.5276,-3.5295,-3.3718,-3.3372,-3.3134,-3.2632,-3.2212,-3.1171,-3.0787,-3.042,-3.0185,-2.9905,-2.9589,-2.939,-2.9471,-2.9972,-3.0772,-3.1744,-3.29,-3.3476,-3.3752,-3.3899,-3.4027,-3.4541,-3.5238,-3.614,-3.0381,-3.1071,-3.118,-3.1683,-3.2249,-3.2321,-3.2451,-3.2266,-3.2003,-3.1801,-3.1334,-3.0595,-3.0323,-2.9862,-2.9265,-2.9022,-2.9596,-3.0643,-3.1616,-3.2526,-3.3903,-3.4487,-3.4577,-3.4624,-3.4278,-3.3702,-3.2958,-3.3005,-3.3499,-3.3649,-3.3709,-3.3604,-3.3574,-3.326,-3.2587,-3.2568,-3.2176,-3.1747,-3.1614,-3.1554,-3.1467,-3.1467,-3.1467,-3.1582,-3.2139,-3.2491,-3.2471,-3.3041,-3.3007,-3.2451,-3.2275,-3.1232,-2.9668,-2.9807,-2.9666,-2.9024,-2.928,-3.0402,-3.1745,-3.209,-3.2682,-3.3579,-3.4495,-3.4659,-3.4666,-3.6142,-3.7746,-3.8534,-3.8915,-3.9238,-3.9599,-3.9922,-4.0194,-4.0457,-4.0489,-4.0431,-4.0431,-4.0469,-4.0469,-4.0335,-4.0335,-4.0123,-3.9585,-3.92,-3.8777,-3.82,-3.7777,-3.7142,-3.5872,-3.6103,-3.5834,-3.4718,-3.4045,-3.3737,-3.3641,-3.3391,-3.2045,-3.0924,-3.0505,-3.0152,-2.9805,-2.9494,-2.9249,-2.9341,-3.0383,-3.1237,-3.2577,-3.3568,-3.3623,-3.3844,-3.3954,-3.4211,-3.4908,-3.5624,-3.6505,-3.0011,-3.0216,-3.0203,-3.0419,-3.0633,-3.0722,-3.0633,-3.0748,-3.1143,-3.0803,-2.9991,-3.0171,-3.0033,-2.9369,-2.8402,-2.8663,-3.0033,-3.0172,-3.0853,-3.2402,-3.4278,-3.516,-3.519,-3.5135,-3.4861,-3.4328,-3.4457,-3.4364,-3.4277,-3.4637,-3.4876,-3.4801,-3.4382,-3.4083,-3.383,-3.3425,-3.2877,-3.2287,-3.2193,-3.1998,-3.1554,-3.1467,-3.1467,-3.1582,-3.2216,-3.2415,-3.1986,-3.2886,-3.3323,-3.3007,-3.2596,-3.1732,-3.0801,-3.0734,-3.0692,-3.0452,-3.0779,-3.1202,-3.1791,-3.2483,-3.2907,-3.3499,-3.4392,-3.5357,-3.5999,-3.6909,-3.7863,-3.856,-3.8792,-3.9017,-3.9481,-3.9668,-3.9964,-4.0438,-4.0489,-4.0489,-4.0489,-4.0489,-4.0489,-4.0489,-4.0489,-4.0354,-4.0085,-3.9738,-3.9258,-3.895,-3.845,-3.7603,-3.6738,-3.6584,-3.6353,-3.5315,-3.4834,-3.4314,-3.418,-3.3757,-3.2679,-3.1533,-3.0911,-3.0162,-2.9771,-2.9474,-2.9225,-2.9669,-3.0729,-3.1861,-3.322,-3.3807,-3.3807,-3.3844,-3.3935,-3.4468,-3.5202,-3.6028,-3.689,-2.9779,-2.9779,-2.9779,-2.9779,-2.9779,-2.9779,-2.9779,-2.9804,-3.0175,-2.9757,-2.9114,-2.9327,-2.9353,-2.8821,-2.8007,-2.8389,-2.9605,-2.9733,-3.047,-3.1769,-3.3885,-3.5052,-3.5379,-3.522,-3.4936,-3.4625,-3.4876,-3.5055,-3.4906,-3.528,-3.5489,-3.5385,-3.507,-3.4696,-3.4487,-3.4059,-3.3457,-3.2676,-3.2477,-3.2161,-3.1672,-3.1467,-3.1467,-3.1582,-3.1951,-3.2114,-3.2049,-3.3001,-3.3277,-3.2718,-3.2144,-3.1556,-3.0903,-3.1004,-3.1072,-3.0946,-3.1257,-3.1623,-3.1844,-3.2482,-3.3206,-3.3701,-3.4772,-3.5899,-3.6938,-3.7562,-3.8212,-3.8597,-3.8689,-3.8902,-3.9308,-3.9414,-3.963,-4.0101,-4.037,-4.0473,-4.0489,-4.0489,-4.0489,-4.0489,-4.0489,-4.0489,-4.0354,-4.0142,-3.9738,-3.9642,-3.9277,-3.8392,-3.7603,-3.7199,-3.6584,-3.5911,-3.5218,-3.4853,-3.4661,-3.4045,-3.3237,-3.2281,-3.1427,-3.05,-2.977,-2.9512,-2.9299,-3.0262,-3.1292,-3.221,-3.3458,-3.3715,-3.3807,-3.3862,-3.4009,-3.4853,-3.5642,-3.6376,-3.7202,-2.9779,-2.9779,-2.9779,-2.9779,-2.9779,-2.9779,-2.9779,-2.9677,-2.9359,-2.911,-2.8937,-2.8694,-2.841,-2.8348,-2.8222,-2.8356,-2.8505,-2.9554,-3.0322,-3.1128,-3.2779,-3.4259,-3.5299,-3.4867,-3.456,-3.4634,-3.4692,-3.4936,-3.537,-3.5459,-3.5489,-3.5474,-3.5415,-3.519,-3.4756,-3.4545,-3.3955,-3.2961,-3.2747,-3.2443,-3.1764,-3.1599,-3.1614,-3.1629,-3.1584,-3.1775,-3.2182,-3.2825,-3.2789,-3.1729,-3.1508,-3.1021,-3.0497,-3.0835,-3.0903,-3.0429,-3.0869,-3.1342,-3.177,-3.2422,-3.3123,-3.4119,-3.549,-3.656,-3.7184,-3.7991,-3.8579,-3.8689,-3.8707,-3.8815,-3.9063,-3.9133,-3.9314,-3.9603,-4.0101,-4.0406,-4.0489,-4.0489,-4.0489,-4.0489,-4.0489,-4.0489,-4.0489,-4.0412,-4.0392,-4.0373,-4.0258,-3.945,-3.8334,-3.7565,-3.7065,-3.6295,-3.5411,-3.5257,-3.5026,-3.4468,-3.3718,-3.3179,-3.2283,-3.1333,-3.0444,-3.015,-3.0117,-3.1041,-3.1708,-3.2643,-3.3321,-3.366,-3.3807,-3.3825,-3.4357,-3.5275,-3.6028,-3.6707,-3.7459,-2.9779,-2.9779,-2.9779,-2.9779,-2.9779,-2.9779,-2.9779,-2.9779,-2.9639,-2.9539,-2.9489,-2.9437,-2.9247,-2.9315,-2.8888,-2.8925,-2.924,-2.9339,-3.0038,-3.0929,-3.1516,-3.3325,-3.492,-3.4596,-3.4508,-3.507,-3.5141,-3.5325,-3.5489,-3.5489,-3.5489,-3.5489,-3.5489,-3.5429,-3.528,-3.5215,-3.4812,-3.4117,-3.3951,-3.3602,-3.2961,-3.2464,-3.2254,-3.2198,-3.1809,-3.1422,-3.118,-3.171,-3.2442,-3.2797,-3.1746,-3.114,-3.092,-3.1072,-3.1106,-3.1021,-3.1072,-3.1247,-3.1606,-3.2633,-3.3523,-3.4008,-3.5877,-3.7221,-3.7386,-3.8193,-3.8634,-3.8707,-3.8689,-3.8785,-3.9036,-3.9099,-3.9238,-3.9576,-3.9924,-4.025,-4.0406,-4.0489,-4.0489,-4.0489,-4.0489,-4.0489,-4.0489,-4.0489,-4.0489,-4.0489,-4.0373,-3.9969,-3.87,-3.793,-3.743,-3.6257,-3.5455,-3.5468,-3.5295,-3.4776,-3.4295,-3.3949,-3.3267,-3.2527,-3.1865,-3.1487,-3.1637,-3.2164,-3.2192,-3.2881,-3.3376,-3.3788,-3.3807,-3.3807,-3.4614,-3.5459,-3.6156,-3.6853,-3.7661,-2.9779,-2.9779,-2.9779,-2.9779,-2.9779,-2.9779,-2.9779,-2.9779,-2.9779,-2.9779,-2.9779,-2.9779,-2.9779,-2.9741,-2.944,-2.9465,-2.9704,-2.9453,-2.9758,-3.0405,-3.062,-3.1988,-3.3685,-3.3959,-3.4292,-3.4836,-3.5335,-3.5474,-3.5489,-3.5489,-3.5489,-3.5489,-3.5489,-3.5489,-3.5474,-3.5474,-3.5175,-3.4595,-3.4469,-3.4181,-3.3531,-3.3123,-3.296,-3.2796,-3.2287,-3.1719,-3.1511,-3.1756,-3.2249,-3.2622,-3.2116,-3.1523,-3.1224,-3.119,-3.1309,-3.1579,-3.1647,-3.1664,-3.1924,-3.3058,-3.3917,-3.4445,-3.6154,-3.7283,-3.7924,-3.8469,-3.8707,-3.8707,-3.8707,-3.8773,-3.8884,-3.8952,-3.9082,-3.9333,-3.9557,-3.98,-4.0082,-4.0326,-4.0398,-4.0394,-4.0441,-4.0489,-4.0489,-4.0489,-4.0489,-4.0489,-4.0489,-3.9796,-3.8873,-3.8354,-3.7623,-3.6488,-3.5647,-3.5584,-3.5526,-3.5103,-3.4911,-3.4584,-3.4666,-3.3882,-3.2849,-3.2485,-3.2523,-3.2631,-3.2732,-3.2973,-3.3476,-3.3807,-3.3807,-3.4082,-3.4853,-3.5605,-3.634,-3.7239,-3.8028,-2.9779,-2.9779,-2.9779,-2.9779,-2.9779,-2.9779,-2.9779,-2.9779,-2.9779,-2.9779,-2.9779,-2.9779,-2.9779,-2.9779,-2.9704,-2.9767,-2.9779,-2.9729,-2.9741,-2.9921,-2.9998,-3.0859,-3.2191,-3.3101,-3.3554,-3.3972,-3.4889,-3.5184,-3.5279,-3.5344,-3.5489,-3.5489,-3.5489,-3.5489,-3.5489,-3.5489,-3.5175,-3.4816,-3.4703,-3.4483,-3.3973,-3.3706,-3.3602,-3.3483,-3.2976,-3.2768,-3.2742,-3.2835,-3.2793,-3.2594,-3.2423,-3.2009,-3.1484,-3.1444,-3.1698,-3.2188,-3.229,-3.2239,-3.2557,-3.3453,-3.4411,-3.5084,-3.6161,-3.7319,-3.8308,-3.867,-3.8707,-3.8707,-3.8707,-3.8719,-3.8719,-3.8719,-3.8815,-3.9027,-3.9072,-3.9205,-3.9519,-4.0008,-4.0271,-4.01,-4.0266,-4.0422,-4.0473,-4.0489,-4.0489,-4.0489,-4.0431,-3.995,-3.9277,-3.8757,-3.7873,-3.6757,-3.6122,-3.5661,-3.5584,-3.5449,-3.5391,-3.5295,-3.5834,-3.5326,-3.3635,-3.312,-3.3018,-3.305,-3.3198,-3.3358,-3.3642,-3.3807,-3.3917,-3.4541,-3.5404,-3.5991,-3.6615,-3.7661,-3.856,-2.9779,-2.9779,-2.9779,-2.9779,-2.9779,-2.9779,-2.9779,-2.9779,-2.9779,-2.9779,-2.9779,-2.9779,-2.9779,-2.9779,-2.9779,-2.9779,-2.9779,-2.9779,-2.9779,-2.9779,-2.9779,-2.9934,-3.0633,-3.1476,-3.2195,-3.2905,-3.3887,-3.4312,-3.4461,-3.5052,-3.5504,-3.5504,-3.5489,-3.5489,-3.5489,-3.5489,-3.5474,-3.531,-3.5275,-3.517,-3.4931,-3.4466,-3.4288,-3.4173,-3.3637,-3.3637,-3.4077,-3.4187,-3.4092,-3.379,-3.3063,-3.257,-3.2652,-3.2324,-3.2425,-3.2797,-3.2621,-3.2587,-3.3126,-3.3748,-3.4649,-3.5615,-3.6736,-3.7935,-3.8554,-3.8707,-3.8707,-3.8707,-3.8707,-3.8707,-3.8707,-3.8707,-3.8732,-3.8803,-3.8833,-3.8833,-3.8952,-3.9321,-3.963,-3.9738,-3.9907,-4.0062,-4.0213,-4.0406,-4.0473,-4.0489,-4.0335,-4.0085,-3.9662,-3.9161,-3.8334,-3.7334,-3.6815,-3.6411,-3.6142,-3.6026,-3.5949,-3.5968,-3.6469,-3.6623,-3.4927,-3.4064,-3.4101,-3.3889,-3.365,-3.3788,-3.3807,-3.4229,-3.4412,-3.5183,-3.5899,-3.6486,-3.7165,-3.8175,-3.8707,-2.9779,-2.9779,-2.9779,-2.9779,-2.9779,-2.9779,-2.9779,-2.9779,-2.9779,-2.9779,-2.9779,-2.9779,-2.9779,-2.9779,-2.9779,-2.9779,-2.9779,-2.9779,-2.9779,-2.9779,-2.9779,-2.9779,-2.9869,-3.0305,-3.1061,-3.1998,-3.2903,-3.3463,-3.4027,-3.4461,-3.4986,-3.5504,-3.5489,-3.5489,-3.5489,-3.5489,-3.5489,-3.5474,-3.5489,-3.5489,-3.5379,-3.518,-3.4728,-3.4528,-3.4128,-3.4001,-3.3547,-3.4281,-3.4329,-3.403,-3.3594,-3.3313,-3.3322,-3.3068,-3.3085,-3.3178,-3.3119,-3.2731,-3.3068,-3.3778,-3.4661,-3.5455,-3.6774,-3.7801,-3.8483,-3.8707,-3.8707,-3.8707,-3.8707,-3.8707,-3.8707,-3.8707,-3.8707,-3.8707,-3.8707,-3.8707,-3.8762,-3.9007,-3.9252,-3.9443,-3.9759,-3.9984,-4.0157,-4.0339,-4.0457,-4.0489,-4.0489,-4.0258,-4.0065,-3.9565,-3.9046,-3.8277,-3.768,-3.7219,-3.6853,-3.6661,-3.6546,-3.6622,-3.6873,-3.6886,-3.61,-3.5614,-3.5346,-3.4754,-3.4009,-3.3807,-3.3899,-3.4376,-3.4871,-3.5238,-3.5862,-3.6762,-3.7551,-3.823,-3.8579,-2.9624,-2.9779,-2.9779,-2.9779,-2.9779,-2.9779,-2.9779,-2.9779,-2.9779,-2.9779,-2.9779,-2.9779,-2.9779,-2.9779,-2.9779,-2.9779,-2.9779,-2.9779,-2.9779,-2.9779,-2.9779,-2.9779,-2.9869,-2.9959,-3.0279,-3.1061,-3.1944,-3.2763,-3.3241,-3.3822,-3.4245,-3.5052,-3.5213,-3.5279,-3.5424,-3.5489,-3.5489,-3.5489,-3.5489,-3.5489,-3.5489,-3.5459,-3.5175,-3.4876,-3.4688,-3.4143,-3.3658,-3.4004,-3.4381,-3.3836,-3.4225,-3.4192,-3.3878,-3.3592,-3.3694,-3.3711,-3.3558,-3.3339,-3.333,-3.3744,-3.4264,-3.4871,-3.5988,-3.7238,-3.8027,-3.837,-3.8524,-3.8652,-3.8707,-3.8707,-3.8707,-3.8707,-3.8707,-3.8707,-3.8707,-3.8707,-3.875,-3.8894,-3.9027,-3.9099,-3.9472,-3.9785,-4.0043,-4.025,-4.0389,-4.0489,-4.0489,-4.045,-4.0258,-4.0008,-3.9488,-3.9046,-3.845,-3.7853,-3.7469,-3.7651,-3.7497,-3.7371,-3.7502,-3.7335,-3.7116,-3.6788,-3.6203,-3.4925,-3.4247,-3.4229,-3.4449,-3.5055,-3.5385,-3.5404,-3.6193,-3.7441,-3.7991,-3.8285,-3.8505,-2.8937,-2.9779,-2.9779,-2.9779,-2.9779,-2.9779,-2.9779,-2.9779,-2.9779,-2.9779,-2.9779,-2.9779,-2.9779,-2.9779,-2.9779,-2.9779,-2.9779,-2.9779,-2.9779,-2.9779,-2.9779,-2.9779,-2.9779,-2.9792,-2.9919,-3.0203,-3.0921,-3.1609,-3.196,-3.2451,-3.331,-3.4041,-3.4327,-3.461,-3.5213,-3.5489,-3.5489,-3.5489,-3.5489,-3.5489,-3.5489,-3.5474,-3.5444,-3.5235,-3.523,-3.4751,-3.4243,-3.4318,-3.4508,-3.4464,-3.4526,-3.4807,-3.4884,-3.459,-3.459,-3.4641,-3.404,-3.3727,-3.4167,-3.343,-3.3819,-3.4679,-3.5342,-3.5936,-3.6942,-3.7551,-3.809,-3.856,-3.8707,-3.8707,-3.8707,-3.8707,-3.8707,-3.8707,-3.8707,-3.8707,-3.8738,-3.8762,-3.8803,-3.8855,-3.9207,-3.9561,-3.9846,-4.012,-4.0356,-4.0473,-4.0489,-4.0489,-4.0392,-4.0223,-3.9957,-3.9569,-3.9161,-3.8565,-3.8027,-3.8458,-3.86,-3.8274,-3.8261,-3.8118,-3.792,-3.7746,-3.698,-3.579,-3.5238,-3.5312,-3.5605,-3.5844,-3.6211,-3.6468,-3.7331,-3.8212,-3.8377,-3.8505,-3.856,-2.7947,-2.8924,-2.8937,-2.9275,-2.9702,-2.9779,-2.9779,-2.9779,-2.9779,-2.9779,-2.9779,-2.9779,-2.9779,-2.9779,-2.9779,-2.9779,-2.9779,-2.9779,-2.9779,-2.9779,-2.9779,-2.9779,-2.9779,-2.9779,-2.9779,-2.9934,-3.0279,-3.0758,-3.118,-3.1596,-3.2379,-3.3171,-3.3739,-3.4245,-3.4773,-3.5213,-3.5424,-3.5489,-3.5489,-3.5489,-3.5489,-3.5489,-3.5489,-3.5489,-3.5429,-3.4943,-3.4242,-3.4348,-3.433,-3.4166,-3.4388,-3.4947,-3.5245,-3.5318,-3.5047,-3.4979,-3.4351,-3.3811,-3.4066,-3.309,-3.3711,-3.4771,-3.4871,-3.561,-3.6699,-3.7461,-3.7863,-3.845,-3.8707,-3.8707,-3.8707,-3.8707,-3.8707,-3.8707,-3.8707,-3.8707,-3.8707,-3.8707,-3.8707,-3.8701,-3.8897,-3.9263,-3.9652,-3.9964,-4.0266,-4.0406,-4.0473,-4.0473,-4.0473,-4.0277,-4.0055,-3.9884,-3.9485,-3.9163,-3.8628,-3.8762,-3.9181,-3.9031,-3.8765,-3.8653,-3.8597,-3.8364,-3.7747,-3.6793,-3.6552,-3.6358,-3.6119,-3.6156,-3.6835,-3.7452,-3.7716,-3.8065,-3.8469,-3.8707,-3.8707,-2.6789,-2.7763,-2.7763,-2.8279,-2.904,-2.9131,-2.9052,-2.9184,-2.9356,-2.9201,-2.9209,-2.9546,-2.9624,-2.9534,-2.9702,-2.9779,-2.9779,-2.9779,-2.9779,-2.9779,-2.9779,-2.9779,-2.9779,-2.9779,-2.9779,-2.9779,-2.9856,-3.0216,-3.062,-3.0908,-3.1476,-3.2321,-3.3241,-3.3876,-3.4177,-3.5052,-3.5344,-3.5489,-3.5489,-3.5489,-3.5489,-3.5489,-3.5489,-3.5474,-3.5365,-3.4733,-3.3749,-3.3713,-3.3752,-3.3656,-3.4023,-3.465,-3.529,-3.5515,-3.5334,-3.48,-3.4471,-3.3664,-3.3288,-3.2577,-3.306,-3.4025,-3.427,-3.5196,-3.6318,-3.6949,-3.7826,-3.8487,-3.8707,-3.8707,-3.8707,-3.8707,-3.8707,-3.8707,-3.8707,-3.8707,-3.8707,-3.8707,-3.8707,-3.8718,-3.8682,-3.901,-3.9491,-3.9882,-4.0232,-4.0372,-4.0406,-4.0339,-4.0285,-4.0062,-3.9907,-3.9924,-3.9747,-3.9586,-3.9223,-3.8885,-3.9231,-3.9364,-3.9022,-3.8794,-3.8857,-3.8914,-3.8219,-3.7562,-3.7434,-3.7202,-3.6835,-3.6707,-3.7459,-3.7881,-3.779,-3.7973,-3.8487,-3.8707,-3.8707,-2.563,-2.6719,-2.6637,-2.6801,-2.6976,-2.6976,-2.6976,-2.7105,-2.798,-2.7731,-2.7313,-2.8803,-2.9052,-2.8767,-2.9287,-2.9624,-2.9779,-2.9611,-2.9702,-2.9779,-2.9779,-2.9779,-2.9779,-2.9779,-2.9779,-2.9779,-2.9779,-2.9792,-3.0075,-3.0139,-3.0495,-3.1402,-3.2321,-3.3157,-3.3876,-3.4751,-3.5489,-3.5489,-3.5489,-3.5489,-3.5489,-3.5489,-3.5489,-3.535,-3.4966,-3.4317,-3.3553,-3.3245,-3.2898,-3.2911,-3.3387,-3.4021,-3.4648,-3.5299,-3.5515,-3.5099,-3.4432,-3.3701,-3.3671,-3.2807,-3.2218,-3.2969,-3.2982,-3.3298,-3.4857,-3.6523,-3.7698,-3.8597,-3.8707,-3.8707,-3.8707,-3.8707,-3.8707,-3.8707,-3.8707,-3.8707,-3.8707,-3.8707,-3.8707,-3.8689,-3.8704,-3.9043,-3.9457,-3.984,-4.0177,-4.0267,-4.0319,-4.0213,-4.0062,-3.9819,-3.9614,-3.958,-3.9537,-3.9358,-3.927,-3.9039,-3.9102,-3.9438,-3.9177,-3.8864,-3.8878,-3.8923,-3.8815,-3.8303,-3.8157,-3.7936,-3.7588,-3.7679,-3.8248,-3.8358,-3.8248,-3.8377,-3.8634,-3.8707,-3.8707,-2.4467,-2.5546,-2.5546,-2.5891,-2.6483,-2.6483,-2.6483,-2.6565,-2.6964,-2.6953,-2.667,-2.7393,-2.794,-2.8039,-2.8119,-2.8633,-2.9378,-2.9118,-2.9275,-2.9702,-2.9702,-2.9779,-2.9779,-2.9779,-2.9779,-2.9779,-2.9779,-2.9779,-2.9779,-2.9792,-3.0075,-3.0495,-3.1415,-3.2236,-3.317,-3.4185,-3.491,-3.5305,-3.5489,-3.5489,-3.5489,-3.5489,-3.5489,-3.5474,-3.4857,-3.4233,-3.3572,-3.287,-3.2591,-3.271,-3.322,-3.3908,-3.4589,-3.5207,-3.5622,-3.5509,-3.4645,-3.4035,-3.3715,-3.292,-3.2661,-3.2535,-3.2737,-3.3405,-3.4857,-3.6085,-3.7422,-3.8615,-3.8689,-3.8707,-3.8707,-3.8707,-3.8707,-3.8707,-3.8707,-3.8707,-3.8707,-3.8707,-3.8707,-3.8707,-3.8719,-3.9008,-3.9223,-3.9408,-3.9731,-3.9924,-3.9944,-3.984,-3.969,-3.9486,-3.9294,-3.912,-3.9073,-3.9008,-3.898,-3.8869,-3.8832,-3.9036,-3.9008,-3.8773,-3.8781,-3.8743,-3.8719,-3.8707,-3.8505,-3.8322,-3.8175,-3.8285,-3.8524,-3.8615,-3.8689,-3.8707,-3.8707,-3.8744,-3.9001,-2.3537,-2.4382,-2.4382,-2.4893,-2.563,-2.5521,-2.5532,-2.5589,-2.5795,-2.5773,-2.576,-2.5986,-2.6729,-2.7418,-2.7046,-2.7476,-2.8791,-2.8119,-2.845,-2.9028,-2.9443,-2.9534,-2.9702,-2.9779,-2.9779,-2.9779,-2.9779,-2.9779,-2.9779,-2.9779,-2.9792,-2.9856,-3.0908,-3.1523,-3.2299,-3.3211,-3.4074,-3.4916,-3.5335,-3.5489,-3.5489,-3.5489,-3.5489,-3.532,-3.4877,-3.4263,-3.3726,-3.2869,-3.2576,-3.2669,-3.3065,-3.3627,-3.4252,-3.5052,-3.5577,-3.5509,-3.4987,-3.4337,-3.3802,-3.3219,-3.3214,-3.2921,-3.2931,-3.3484,-3.5707,-3.634,-3.6964,-3.8579,-3.8689,-3.8707,-3.8707,-3.8707,-3.8707,-3.8707,-3.8707,-3.8707,-3.8707,-3.8707,-3.8707,-3.8707,-3.8719,-3.8773,-3.8952,-3.899,-3.9197,-3.9505,-3.9552,-3.9476,-3.9352,-3.9171,-3.9045,-3.887,-3.8851,-3.8833,-3.8803,-3.8762,-3.8689,-3.8707,-3.8707,-3.8689,-3.8732,-3.8732,-3.8689,-3.8707,-3.8707,-3.8634,-3.8432,-3.8579,-3.8707,-3.8707,-3.8707,-3.8707,-3.8726,-3.8836,-3.9496,-2.2783,-2.3222,-2.3202,-2.329,-2.3454,-2.2962,-2.3041,-2.3647,-2.4196,-2.4079,-2.3861,-2.4431,-2.5583,-2.6302,-2.6307,-2.6389,-2.6812,-2.6637,-2.729,-2.7936,-2.8255,-2.8912,-2.9316,-2.9651,-2.9779,-2.9779,-2.9779,-2.9779,-2.9779,-2.9779,-2.9779,-2.9921,-3.0558,-3.1031,-3.1726,-3.2623,-3.3456,-3.4389,-3.5041,-3.5489,-3.5489,-3.5489,-3.5489,-3.535,-3.4907,-3.4431,-3.4332,-3.3171,-3.2518,-3.2561,-3.2855,-3.3256,-3.3906,-3.4955,-3.5526,-3.5526,-3.5493,-3.4806,-3.409,-3.3491,-3.3046,-3.2647,-3.2669,-3.3498,-3.5711,-3.6229,-3.7092,-3.834,-3.856,-3.8707,-3.8707,-3.8707,-3.8707,-3.8707,-3.8707,-3.8707,-3.8707,-3.8707,-3.8707,-3.8707,-3.8719,-3.8762,-3.8743,-3.8844,-3.8942,-3.9242,-3.9242,-3.9154,-3.9027,-3.8873,-3.8833,-3.8738,-3.8738,-3.8719,-3.8719,-3.8707,-3.8707,-3.8707,-3.8707,-3.8707,-3.8689,-3.8707,-3.8707,-3.8707,-3.8707,-3.8707,-3.8707,-3.8707,-3.8707,-3.8707,-3.8781,-3.9056,-3.935,-3.9606,-4.0469,-2.2373,-2.2754,-2.2754,-2.291,-2.3135,-2.2969,-2.2988,-2.3135,-2.3388,-2.3388,-2.3144,-2.3593,-2.4344,-2.5084,-2.4723,-2.5231,-2.6235,-2.5714,-2.6295,-2.7116,-2.7775,-2.8294,-2.8922,-2.9397,-2.9779,-2.9767,-2.9767,-2.9779,-2.9779,-2.9779,-2.9779,-2.9998,-3.0279,-3.0683,-3.1376,-3.2414,-3.3397,-3.4017,-3.4872,-3.5474,-3.5489,-3.5489,-3.5489,-3.5459,-3.4857,-3.4525,-3.4282,-3.3151,-3.269,-3.257,-3.2756,-3.3093,-3.3675,-3.4838,-3.5459,-3.5605,-3.5622,-3.5222,-3.4614,-3.3905,-3.31,-3.2631,-3.2611,-3.3391,-3.5389,-3.5973,-3.6762,-3.7679,-3.845,-3.8689,-3.8707,-3.8707,-3.8707,-3.8707,-3.8707,-3.8707,-3.8707,-3.8707,-3.8707,-3.8707,-3.8707,-3.8719,-3.8719,-3.8719,-3.8833,-3.8989,-3.8902,-3.8833,-3.8732,-3.8707,-3.8707,-3.8707,-3.8707,-3.8707,-3.8707,-3.8707,-3.8707,-3.8707,-3.8707,-3.8707,-3.8707,-3.8707,-3.8707,-3.8707,-3.8707,-3.8707,-3.8707,-3.8707,-3.8707,-3.8707,-3.9166,-3.9735,-4.0029,-4.0249,-4.113,-2.1934,-2.2314,-2.2314,-2.2646,-2.3076,-2.2871,-2.292,-2.3076,-2.2842,-2.2949,-2.3135,-2.3135,-2.3464,-2.3887,-2.3637,-2.381,-2.4893,-2.4723,-2.5136,-2.5797,-2.6569,-2.7219,-2.7975,-2.8795,-2.9621,-2.9484,-2.9677,-2.9779,-2.9779,-2.9779,-2.9779,-2.9779,-2.9856,-3.0279,-3.0862,-3.228,-3.3283,-3.3746,-3.444,-3.5305,-3.5365,-3.5489,-3.5489,-3.5474,-3.5056,-3.4887,-3.4555,-3.3662,-3.2966,-3.2715,-3.2711,-3.2879,-3.3664,-3.4504,-3.5239,-3.5493,-3.5605,-3.5537,-3.4996,-3.4211,-3.3168,-3.2772,-3.2876,-3.3588,-3.4691,-3.5886,-3.711,-3.7477,-3.8212,-3.8707,-3.8707,-3.8707,-3.8707,-3.8707,-3.8707,-3.8707,-3.8707,-3.8707,-3.8707,-3.8707,-3.8707,-3.8707,-3.8707,-3.8726,-3.8823,-3.8888,-3.8822,-3.8762,-3.875,-3.8707,-3.8707,-3.8707,-3.8707,-3.8707,-3.8707,-3.8707,-3.8707,-3.8707,-3.8707,-3.8707,-3.8707,-3.8707,-3.8707,-3.8707,-3.8707,-3.8707,-3.8707,-3.8707,-3.8707,-3.8707,-3.9184,-3.9643,-4.0175,-4.0414,-4.124,-2.1504,-2.1885,-2.1904,-2.2363,-2.293,-2.2256,-2.2373,-2.2891,-2.2422,-2.25,-2.3105,-2.3144,-2.3135,-2.3222,-2.3144,-2.3387,-2.356,-2.3464,-2.3887,-2.4702,-2.5346,-2.5709,-2.7012,-2.8354,-2.9217,-2.8697,-2.9142,-2.9779,-2.9779,-2.9779,-2.9779,-2.9779,-2.9779,-2.9856,-2.9984,-3.0804,-3.1742,-3.2654,-3.3558,-3.4579,-3.5109,-3.5344,-3.5489,-3.5474,-3.5225,-3.507,-3.4762,-3.3797,-3.3111,-3.2968,-3.2152,-3.2446,-3.3534,-3.4119,-3.4755,-3.5408,-3.5476,-3.5199,-3.4489,-3.3744,-3.334,-3.3095,-3.3213,-3.3723,-3.4677,-3.603,-3.7305,-3.7477,-3.8212,-3.8634,-3.8707,-3.8707,-3.8707,-3.8707,-3.8707,-3.8707,-3.8707,-3.8707,-3.8707,-3.8707,-3.8707,-3.8707,-3.8726,-3.8744,-3.8817,-3.883,-3.8726,-3.8707,-3.8726,-3.8707,-3.8707,-3.8707,-3.8707,-3.8707,-3.8707,-3.8707,-3.8707,-3.8707,-3.8707,-3.8707,-3.8707,-3.8707,-3.8707,-3.8707,-3.8707,-3.8707,-3.8707,-3.8726,-3.9019,-3.9313,-3.8964,-3.9294,-3.99,-4.0708,-4.1625,-2.0396,-2.1455,-2.1455,-2.1787,-2.2227,-2.2031,-2.206,-2.224,-2.2349,-2.265,-2.2999,-2.3144,-2.3144,-2.3144,-2.3144,-2.3144,-2.3144,-2.3144,-2.3551,-2.3714,-2.4382,-2.5466,-2.6635,-2.7615,-2.8736,-2.9254,-2.9664,-2.9702,-2.9779,-2.9779,-2.9779,-2.9779,-2.9779,-2.9779,-3.0047,-3.0688,-3.1461,-3.196,-3.3097,-3.4229,-3.4566,-3.5133,-3.5489,-3.5489,-3.5165,-3.4966,-3.4847,-3.3621,-3.304,-3.2821,-3.1895,-3.2185,-3.3355,-3.3989,-3.4459,-3.4829,-3.4861,-3.4269,-3.3575,-3.31,-3.356,-3.3464,-3.3459,-3.3906,-3.4979,-3.5987,-3.6813,-3.7514,-3.823,-3.8597,-3.8707,-3.8707,-3.8707,-3.8707,-3.8707,-3.8707,-3.8707,-3.8707,-3.8707,-3.8707,-3.8707,-3.8762,-3.8799,-3.9331,-3.9496,-3.935,-3.9313,-3.8964,-3.8872,-3.8762,-3.8726,-3.8707,-3.8707,-3.8707,-3.8744,-3.9111,-3.9038,-3.8909,-3.8817,-3.8707,-3.8707,-3.8707,-3.8707,-3.8707,-3.8707,-3.8707,-3.8891,-3.9148,-3.9772,-3.9992,-3.9845,-4.0212,-4.1203,-4.1791,-4.2213,-1.9608,-2.0419,-2.0837,-2.1162,-2.1435,-2.1592,-2.1728,-2.1919,-2.2313,-2.2698,-2.3038,-2.3144,-2.3144,-2.3144,-2.3144,-2.3144,-2.3144,-2.3144,-2.3144,-2.3222,-2.379,-2.4481,-2.5349,-2.654,-2.7278,-2.8494,-2.911,-2.9275,-2.9779,-2.9779,-2.9779,-2.9779,-2.9779,-2.9779,-3.0022,-3.0406,-3.0907,-3.1501,-3.2667,-3.3687,-3.421,-3.4824,-3.5489,-3.5379,-3.5135,-3.4818,-3.4248,-3.3565,-3.2702,-3.236,-3.2113,-3.2076,-3.306,-3.3751,-3.4032,-3.4134,-3.4013,-3.3719,-3.3508,-3.278,-3.324,-3.3671,-3.3542,-3.4072,-3.5205,-3.6339,-3.7051,-3.7698,-3.8303,-3.856,-3.8707,-3.8707,-3.8707,-3.8707,-3.8707,-3.8707,-3.8762,-3.8762,-3.8964,-3.8946,-3.8836,-3.8872,-3.9111,-3.979,-4.0304,-4.012,-3.9937,-3.9551,-3.9166,-3.9056,-3.9056,-3.9093,-3.9258,-3.9478,-3.968,-3.9937,-3.9717,-3.9203,-3.9056,-3.8982,-3.8707,-3.8707,-3.8707,-3.8707,-3.8726,-3.8854,-3.9184,-3.9606,-4.0286,-4.0818,-4.1075,-4.1662,-4.2616,-4.2727,-4.2708,-1.8966,-1.9125,-2.0167,-2.0596,-2.0664,-2.1055,-2.1455,-2.1924,-2.2265,-2.2727,-2.3144,-2.3144,-2.3144,-2.3144,-2.3144,-2.3144,-2.3144,-2.3144,-2.3144,-2.3144,-2.3387,-2.3495,-2.3921,-2.4754,-2.6218,-2.7001,-2.7818,-2.8937,-2.9702,-2.9779,-2.9779,-2.9779,-2.9779,-2.9779,-2.9894,-3.0022,-3.0431,-3.1073,-3.2206,-3.3085,-3.3713,-3.492,-3.527,-3.526,-3.5031,-3.4629,-3.4065,-3.3382,-3.2853,-3.2397,-3.1908,-3.2086,-3.2568,-3.326,-3.3432,-3.3521,-3.347,-3.3558,-3.3525,-3.2662,-3.2662,-3.3287,-3.4815,-3.4747,-3.5168,-3.6526,-3.7405,-3.7869,-3.8358,-3.8542,-3.8707,-3.8707,-3.8707,-3.8707,-3.8707,-3.8762,-3.8836,-3.9001,-3.9276,-3.9294,-3.9111,-3.9203,-3.968,-4.0286,-4.0818,-4.1167,-4.0965,-4.0634,-4.0212,-3.9625,-3.9662,-3.9858,-4.0079,-4.0483,-4.0685,-4.0726,-4.0469,-3.9974,-3.9643,-3.9496,-3.9129,-3.8781,-3.8707,-3.8726,-3.8762,-3.9056,-3.9753,-4.0322,-4.0855,-4.1368,-4.2029,-4.2194,-4.2837,-4.2782,-4.2763,-1.823,-1.9116,-2.0157,-2.0576,-2.0586,-2.0713,-2.1182,-2.1875,-2.2065,-2.2425,-2.3144,-2.3144,-2.3066,-2.3144,-2.3144,-2.3115,-2.3115,-2.3144,-2.3144,-2.3125,-2.3076,-2.3602,-2.4068,-2.4602,-2.5912,-2.702,-2.7941,-2.8426,-2.9521,-2.9779,-2.9779,-2.9779,-2.9716,-2.9729,-2.9767,-2.9779,-3.0022,-3.0547,-3.1783,-3.2552,-3.3435,-3.4566,-3.4881,-3.4902,-3.4436,-3.3957,-3.3288,-3.2676,-3.2163,-3.182,-3.1657,-3.1835,-3.2543,-3.3206,-3.3582,-3.3372,-3.2951,-3.2527,-3.2341,-3.273,-3.2797,-3.2747,-3.4391,-3.5594,-3.5865,-3.6512,-3.7694,-3.8175,-3.8432,-3.8634,-3.8707,-3.8707,-3.8707,-3.8707,-3.8726,-3.8817,-3.8927,-3.9129,-3.9441,-3.9863,-3.968,-3.9606,-4.0102,-4.0561,-4.1111,-4.1809,-4.1956,-4.1479,-4.113,-4.0506,-4.0194,-4.0391,-4.0685,-4.1015,-4.1273,-4.1383,-4.1075,-4.0763,-4.0469,-4.012,-3.9717,-3.935,-3.8909,-3.8891,-3.9184,-3.9845,-4.0634,-4.113,-4.1552,-4.2396,-4.302,-4.2965,-4.2928,-4.2928,-4.2965,-1.7082,-1.7891,-1.9353,-2.0157,-2.0566,-2.0576,-2.0986,-2.1582,-2.1593,-2.2136,-2.295,-2.2773,-2.2734,-2.2822,-2.2695,-2.2598,-2.2588,-2.2568,-2.2637,-2.2852,-2.291,-2.3357,-2.3871,-2.4308,-2.5034,-2.6259,-2.7121,-2.7359,-2.8802,-2.9651,-2.9779,-2.9767,-2.9628,-2.9616,-2.9691,-2.9549,-2.9549,-3.0253,-3.1156,-3.2064,-3.3,-3.3917,-3.4206,-3.4409,-3.3824,-3.3187,-3.2587,-3.2005,-3.1779,-3.1492,-3.1372,-3.1302,-3.1728,-3.2139,-3.303,-3.2823,-3.2408,-3.2053,-3.1968,-3.2138,-3.2036,-3.2429,-3.3856,-3.4969,-3.6096,-3.6834,-3.7808,-3.848,-3.8603,-3.8707,-3.8707,-3.8707,-3.8707,-3.8707,-3.8799,-3.8891,-3.9056,-3.9221,-3.9717,-4.0322,-4.0341,-4.0139,-4.0396,-4.0836,-4.1185,-4.1497,-4.1534,-4.1185,-4.1148,-4.1093,-4.0799,-4.0781,-4.1111,-4.146,-4.1769,-4.2081,-4.1901,-4.1699,-4.1442,-4.1038,-4.0487,-4.0139,-3.9882,-3.979,-3.979,-4.0506,-4.1258,-4.1791,-4.2304,-4.3057,-4.3479,-4.3332,-4.3222,-4.3277,-4.3332,-1.5606,-1.5845,-1.7929,-1.9437,-2.0362,-2.0382,-2.0672,-2.115,-2.1159,-2.1794,-2.2629,-2.2246,-2.2168,-2.2383,-2.2207,-2.206,-2.209,-2.21,-2.2324,-2.251,-2.2607,-2.2908,-2.3183,-2.3261,-2.4267,-2.4635,-2.5264,-2.6322,-2.7727,-2.8562,-2.8944,-2.9539,-2.9139,-2.9013,-2.9303,-2.9031,-2.9006,-2.9492,-3.0222,-3.1123,-3.2264,-3.2958,-3.342,-3.3969,-3.3662,-3.3062,-3.2555,-3.2258,-3.2146,-3.1516,-3.0945,-3.0628,-3.0824,-3.0937,-3.1909,-3.2343,-3.208,-3.1833,-3.1765,-3.1867,-3.1985,-3.2474,-3.352,-3.4591,-3.5741,-3.7086,-3.8099,-3.8554,-3.8689,-3.8707,-3.8707,-3.8707,-3.8707,-3.8707,-3.8762,-3.9001,-3.9276,-3.9496,-3.99,-4.0322,-4.023,-4.0065,-4.0102,-4.0487,-4.0873,-4.1111,-4.1185,-4.0946,-4.0836,-4.1111,-4.1167,-4.1038,-4.1515,-4.1937,-4.2653,-4.2892,-4.2837,-4.2653,-4.2249,-4.1644,-4.0873,-4.0799,-4.0928,-4.0579,-4.0249,-4.1038,-4.1754,-4.2304,-4.2763,-4.3167,-4.3479,-4.3479,-4.3479,-4.3513,-4.3479,-1.5035,-1.5129,-1.6719,-1.8013,-1.9016,-1.9224,-2.008,-2.1111,-2.0849,-2.1286,-2.2021,-2.1973,-2.1914,-2.1973,-2.1865,-2.1768,-2.1797,-2.1728,-2.2119,-2.2324,-2.2412,-2.2493,-2.294,-2.3027,-2.369,-2.4435,-2.4961,-2.5209,-2.6325,-2.7002,-2.75,-2.7575,-2.7755,-2.8484,-2.8646,-2.8374,-2.8422,-2.8762,-2.8933,-3.0032,-3.146,-3.2099,-3.2625,-3.2939,-3.2721,-3.2392,-3.2005,-3.175,-3.1687,-3.136,-3.0805,-3.0837,-3.1239,-3.108,-3.1556,-3.2227,-3.2104,-3.1816,-3.1664,-3.1765,-3.2104,-3.2718,-3.364,-3.4546,-3.5723,-3.7214,-3.818,-3.8496,-3.8707,-3.8707,-3.8707,-3.8707,-3.8707,-3.8707,-3.8726,-3.9093,-3.946,-3.9753,-4.0065,-4.0065,-3.9992,-3.9918,-3.9882,-4.0102,-4.0506,-4.0818,-4.1056,-4.0965,-4.0543,-4.0598,-4.0928,-4.1038,-4.1809,-4.2378,-4.302,-4.3406,-4.3185,-4.291,-4.247,-4.1882,-4.1258,-4.0983,-4.0799,-4.0726,-4.0726,-4.1534,-4.2249,-4.2818,-4.324,-4.3442,-4.3479,-4.3479,-4.3513,-4.3529,-4.3513,-1.4116,-1.4294,-1.5451,-1.6943,-1.838,-1.8683,-1.9571,-2.0751,-2.0674,-2.083,-2.124,-2.1309,-2.1406,-2.1494,-2.1406,-2.1348,-2.1348,-2.1289,-2.1494,-2.1797,-2.208,-2.2181,-2.2425,-2.2678,-2.2766,-2.3484,-2.4043,-2.4492,-2.4872,-2.6163,-2.6737,-2.6656,-2.7336,-2.7843,-2.7952,-2.7889,-2.7866,-2.8122,-2.783,-2.8698,-3.0282,-3.0801,-3.1734,-3.2029,-3.2169,-3.1871,-3.1692,-3.145,-3.1287,-3.0815,-3.0091,-2.9964,-3.0196,-3.0293,-3.0886,-3.1523,-3.1698,-3.163,-3.1529,-3.1765,-3.2357,-3.3094,-3.409,-3.5119,-3.6254,-3.7631,-3.8198,-3.8515,-3.8658,-3.8707,-3.8707,-3.8707,-3.8707,-3.8707,-3.8781,-3.9019,-3.9258,-3.9478,-3.9753,-3.9918,-3.968,-3.9258,-3.9239,-3.9239,-3.957,-3.9606,-3.9992,-4.0157,-3.99,-4.001,-4.0359,-4.0818,-4.1442,-4.1809,-4.2029,-4.2671,-4.324,-4.2965,-4.2506,-4.2194,-4.1625,-4.0983,-4.0598,-4.113,-4.1589,-4.1977,-4.269,-4.3185,-4.3351,-4.3461,-4.3479,-4.3479,-4.3513,-4.3597,-4.3646,-1.3033,-1.3243,-1.4108,-1.5814,-1.7799,-1.7956,-1.8815,-2.012,-2.0333,-2.045,-2.0644,-2.0644,-2.082,-2.0889,-2.0791,-2.0654,-2.0635,-2.0801,-2.0977,-2.123,-2.1338,-2.1705,-2.1913,-2.1974,-2.2194,-2.2399,-2.2825,-2.3074,-2.3259,-2.4756,-2.584,-2.622,-2.6797,-2.7369,-2.7528,-2.7556,-2.7386,-2.7523,-2.7538,-2.7662,-2.8437,-2.9185,-3.0453,-3.1302,-3.1722,-3.1452,-3.1437,-3.1312,-3.1,-3.0446,-2.9662,-2.9467,-2.9593,-2.9883,-3.0474,-3.1086,-3.136,-3.1309,-3.1309,-3.1664,-3.2459,-3.3369,-3.4588,-3.5727,-3.6803,-3.7649,-3.8183,-3.8465,-3.8627,-3.8707,-3.8707,-3.8707,-3.8707,-3.8707,-3.8817,-3.8872,-3.9038,-3.9203,-3.946,-3.9717,-3.9515,-3.9038,-3.9038,-3.8982,-3.8836,-3.8799,-3.8707,-3.8707,-3.8854,-3.9258,-3.9643,-4.012,-4.0689,-4.0965,-4.124,-4.1809,-4.2653,-4.2378,-4.1937,-4.2066,-4.1956,-4.124,-4.1277,-4.2341,-4.2763,-4.2782,-4.2965,-4.3351,-4.3479,-4.3479,-4.3479,-4.3479,-4.3513,-4.3597,-4.3836,-1.2265,-1.2492,-1.2954,-1.4001,-1.5145,-1.5457,-1.6782,-1.8683,-1.8889,-1.9453,-2.0285,-2.0547,-2.0644,-2.0693,-2.0635,-2.0576,-2.0576,-2.0576,-2.085,-2.1191,-2.1143,-2.1504,-2.1656,-2.1646,-2.1856,-2.191,-2.181,-2.164,-2.2012,-2.3318,-2.3959,-2.3735,-2.5963,-2.6452,-2.6113,-2.6231,-2.6634,-2.676,-2.6779,-2.6879,-2.7443,-2.8224,-2.9104,-2.995,-3.0646,-3.0939,-3.1157,-3.0908,-3.0719,-3.0274,-2.9699,-2.9313,-2.9382,-2.9673,-3.0335,-3.0838,-3.1095,-3.119,-3.1343,-3.1562,-3.2273,-3.3202,-3.4364,-3.5583,-3.6666,-3.7823,-3.8281,-3.8578,-3.8707,-3.8707,-3.8707,-3.8707,-3.8707,-3.8707,-3.8762,-3.8762,-3.8836,-3.897,-3.9122,-3.9562,-3.9887,-3.9832,-4.0065,-3.9808,-3.935,-3.9203,-3.8836,-3.8799,-3.8707,-3.8854,-3.9019,-3.9478,-4.001,-4.0561,-4.1001,-4.1148,-4.1662,-4.146,-4.1423,-4.157,-4.1552,-4.1332,-4.168,-4.2727,-4.3185,-4.3259,-4.3461,-4.3479,-4.3479,-4.3479,-4.3479,-4.3479,-4.3513,-4.3664,-4.3899]}]]